<?xml version="1.0" encoding="UTF-8" standalone="no" ?>
<gpx xmlns="http://www.topografix.com/GPX/1/1" xmlns:xsi="http://www.w3.org/2001/XMLSchema-instance" xsi:schemaLocation="http://www.topografix.com/GPX/1/1 http://www.topografix.com/GPX/1/1/gpx.xsd" version="1.1" creator="VisuGPX - https://www.visugpx.com">
  <metadata>
    <name>TRACES &amp;amp; GITES 5m/7pts</name>
  </metadata>
  <wpt lat="44.11547" lon="3.41205">
    <ele>723.6796875</ele>
    <name><![CDATA[AIGUEBONNE Chez Denis]]></name>
    <type><![CDATA[user]]></type>
  </wpt>
  <wpt lat="44.40878" lon="3.41314">
    <ele>934.109375</ele>
    <name><![CDATA[CHAMPERBOUX Les Dolmens]]></name>
    <type><![CDATA[user]]></type>
  </wpt>
  <wpt lat="44.18932" lon="3.20806">
    <ele>426.30078125</ele>
    <name><![CDATA[Forêt]]></name>
    <type><![CDATA[user]]></type>
  </wpt>
  <wpt lat="44.37201" lon="3.5332">
    <ele>520.00390625</ele>
    <name><![CDATA[ISPAGNAC Le Vallon]]></name>
    <desc><![CDATA[Vallon
D907 Bis
Ispagnac, Languedoc-Roussilion, 48320, France
0033-4-66442124]]></desc>
    <cmt><![CDATA[Vallon
D907 Bis
Ispagnac, Languedoc-Roussilion, 48320, France
0033-4-66442124]]></cmt>
    <type><![CDATA[user]]></type>
  </wpt>
  <wpt lat="44.22528" lon="3.51366">
    <ele>1079.17578125</ele>
    <name><![CDATA[L'HOM La ferme]]></name>
    <desc><![CDATA[Chambre D'Hôtes L'Hom
Lieu-Dit L'Hom
Fraissinet-de-Fourques, Languedoc-Roussilion, 48400, France]]></desc>
    <cmt><![CDATA[Chambre D'Hôtes L'Hom
Lieu-Dit L'Hom
Fraissinet-de-Fourques, Languedoc-Roussilion, 48400, France]]></cmt>
    <type><![CDATA[user]]></type>
  </wpt>
  <wpt lat="44.3401" lon="3.47271">
    <ele>525.08984375</ele>
    <name><![CDATA[LE CERET Gite des gorges du Tarn/Les copains d'abord]]></name>
    <type><![CDATA[user]]></type>
  </wpt>
  <wpt lat="44.18913" lon="3.20754">
    <ele>435.7421875</ele>
    <name><![CDATA[LE ROZIER Le gevaudan ou PEYRELEAU Evolution]]></name>
    <type><![CDATA[user]]></type>
  </wpt>
  <wpt lat="44.27777" lon="3.22748">
    <ele>424.09375</ele>
    <name><![CDATA[LES VIGNES Chez Alex]]></name>
    <type><![CDATA[user]]></type>
  </wpt>
  <wpt lat="44.37425" lon="3.77646">
    <ele>1243.0078125</ele>
    <name><![CDATA[VILLENEUVE Ferme de séjour chez Molines J.C.]]></name>
    <type><![CDATA[user]]></type>
  </wpt>
  <trk>
    <name><![CDATA[1-9 Champerboux à Les Vignes pour costauds par Dignas-del Py-La Caze-LaMalène]]></name>
    <trkseg>
      <trkpt lat="44.40854" lon="3.41297">
        <ele>936</ele>
        <time>2019-11-23T08:20:40Z</time>
      </trkpt>
      <trkpt lat="44.40828" lon="3.41239">
        <ele>934</ele>
        <time>2019-11-23T08:20:51Z</time>
      </trkpt>
      <trkpt lat="44.40798" lon="3.41196">
        <ele>932</ele>
        <time>2019-11-23T08:21:01Z</time>
      </trkpt>
      <trkpt lat="44.40783" lon="3.41183">
        <ele>931</ele>
        <time>2019-11-23T08:21:06Z</time>
      </trkpt>
      <trkpt lat="44.40738" lon="3.4116">
        <ele>928</ele>
        <time>2019-11-23T08:21:17Z</time>
      </trkpt>
      <trkpt lat="44.40715" lon="3.4116">
        <ele>928</ele>
        <time>2019-11-23T08:21:22Z</time>
      </trkpt>
      <trkpt lat="44.40693" lon="3.41156">
        <ele>928</ele>
        <time>2019-11-23T08:21:27Z</time>
      </trkpt>
      <trkpt lat="44.40676" lon="3.41158">
        <ele>928</ele>
        <time>2019-11-23T08:21:31Z</time>
      </trkpt>
      <trkpt lat="44.40633" lon="3.41156">
        <ele>927</ele>
        <time>2019-11-23T08:21:41Z</time>
      </trkpt>
      <trkpt lat="44.40577" lon="3.41138">
        <ele>926</ele>
        <time>2019-11-23T08:21:55Z</time>
      </trkpt>
      <trkpt lat="44.40547" lon="3.41136">
        <ele>925</ele>
        <time>2019-11-23T08:22:02Z</time>
      </trkpt>
      <trkpt lat="44.40496" lon="3.41121">
        <ele>923</ele>
        <time>2019-11-23T08:22:14Z</time>
      </trkpt>
      <trkpt lat="44.40472" lon="3.41119">
        <ele>922</ele>
        <time>2019-11-23T08:22:20Z</time>
      </trkpt>
      <trkpt lat="44.40455" lon="3.4113">
        <ele>921</ele>
        <time>2019-11-23T08:22:24Z</time>
      </trkpt>
      <trkpt lat="44.40444" lon="3.41141">
        <ele>922</ele>
        <time>2019-11-23T08:22:27Z</time>
      </trkpt>
      <trkpt lat="44.40434" lon="3.41145">
        <ele>922</ele>
        <time>2019-11-23T08:22:30Z</time>
      </trkpt>
      <trkpt lat="44.40414" lon="3.41147">
        <ele>922</ele>
        <time>2019-11-23T08:22:34Z</time>
      </trkpt>
      <trkpt lat="44.40382" lon="3.41117">
        <ele>920</ele>
        <time>2019-11-23T08:22:43Z</time>
      </trkpt>
      <trkpt lat="44.40361" lon="3.41087">
        <ele>915</ele>
        <time>2019-11-23T08:22:50Z</time>
      </trkpt>
      <trkpt lat="44.40356" lon="3.41076">
        <ele>914</ele>
        <time>2019-11-23T08:22:52Z</time>
      </trkpt>
      <trkpt lat="44.40356" lon="3.41065">
        <ele>912</ele>
        <time>2019-11-23T08:22:54Z</time>
      </trkpt>
      <trkpt lat="44.40335" lon="3.41027">
        <ele>906</ele>
        <time>2019-11-23T08:23:02Z</time>
      </trkpt>
      <trkpt lat="44.40311" lon="3.41005">
        <ele>902</ele>
        <time>2019-11-23T08:23:09Z</time>
      </trkpt>
      <trkpt lat="44.40303" lon="3.41001">
        <ele>901</ele>
        <time>2019-11-23T08:23:11Z</time>
      </trkpt>
      <trkpt lat="44.40202" lon="3.4099">
        <ele>892</ele>
        <time>2019-11-23T08:23:35Z</time>
      </trkpt>
      <trkpt lat="44.4015" lon="3.40982">
        <ele>888</ele>
        <time>2019-11-23T08:23:47Z</time>
      </trkpt>
      <trkpt lat="44.4009" lon="3.40894">
        <ele>877</ele>
        <time>2019-11-23T08:24:07Z</time>
      </trkpt>
      <trkpt lat="44.40077" lon="3.40866">
        <ele>875</ele>
        <time>2019-11-23T08:24:13Z</time>
      </trkpt>
      <trkpt lat="44.4006" lon="3.40838">
        <ele>873</ele>
        <time>2019-11-23T08:24:19Z</time>
      </trkpt>
      <trkpt lat="44.40013" lon="3.40797">
        <ele>872</ele>
        <time>2019-11-23T08:24:32Z</time>
      </trkpt>
      <trkpt lat="44.39989" lon="3.4078">
        <ele>871</ele>
        <time>2019-11-23T08:24:38Z</time>
      </trkpt>
      <trkpt lat="44.39961" lon="3.40767">
        <ele>867</ele>
        <time>2019-11-23T08:24:45Z</time>
      </trkpt>
      <trkpt lat="44.39955" lon="3.40759">
        <ele>866</ele>
        <time>2019-11-23T08:24:47Z</time>
      </trkpt>
      <trkpt lat="44.39927" lon="3.40694">
        <ele>863</ele>
        <time>2019-11-23T08:24:59Z</time>
      </trkpt>
      <trkpt lat="44.39919" lon="3.40668">
        <ele>863</ele>
        <time>2019-11-23T08:25:04Z</time>
      </trkpt>
      <trkpt lat="44.39919" lon="3.40638">
        <ele>863</ele>
        <time>2019-11-23T08:25:09Z</time>
      </trkpt>
      <trkpt lat="44.39927" lon="3.40572">
        <ele>864</ele>
        <time>2019-11-23T08:25:20Z</time>
      </trkpt>
      <trkpt lat="44.39916" lon="3.40555">
        <ele>864</ele>
        <time>2019-11-23T08:25:24Z</time>
      </trkpt>
      <trkpt lat="44.3985" lon="3.40508">
        <ele>857</ele>
        <time>2019-11-23T08:25:42Z</time>
      </trkpt>
      <trkpt lat="44.39818" lon="3.40482">
        <ele>856</ele>
        <time>2019-11-23T08:25:50Z</time>
      </trkpt>
      <trkpt lat="44.39753" lon="3.40437">
        <ele>854</ele>
        <time>2019-11-23T08:26:07Z</time>
      </trkpt>
      <trkpt lat="44.39719" lon="3.40437">
        <ele>854</ele>
        <time>2019-11-23T08:26:15Z</time>
      </trkpt>
      <trkpt lat="44.39685" lon="3.40411">
        <ele>856</ele>
        <time>2019-11-23T08:26:24Z</time>
      </trkpt>
      <trkpt lat="44.3965" lon="3.40405">
        <ele>856</ele>
        <time>2019-11-23T08:26:32Z</time>
      </trkpt>
      <trkpt lat="44.39616" lon="3.40407">
        <ele>855</ele>
        <time>2019-11-23T08:26:40Z</time>
      </trkpt>
      <trkpt lat="44.39575" lon="3.4039">
        <ele>854</ele>
        <time>2019-11-23T08:26:50Z</time>
      </trkpt>
      <trkpt lat="44.39556" lon="3.40385">
        <ele>854</ele>
        <time>2019-11-23T08:26:55Z</time>
      </trkpt>
      <trkpt lat="44.39477" lon="3.40407">
        <ele>855</ele>
        <time>2019-11-23T08:27:14Z</time>
      </trkpt>
      <trkpt lat="44.39431" lon="3.40407">
        <ele>857</ele>
        <time>2019-11-23T08:27:24Z</time>
      </trkpt>
      <trkpt lat="44.39374" lon="3.40411">
        <ele>858</ele>
        <time>2019-11-23T08:27:38Z</time>
      </trkpt>
      <trkpt lat="44.3932" lon="3.40402">
        <ele>859</ele>
        <time>2019-11-23T08:27:50Z</time>
      </trkpt>
      <trkpt lat="44.39296" lon="3.40411">
        <ele>860</ele>
        <time>2019-11-23T08:27:56Z</time>
      </trkpt>
      <trkpt lat="44.39281" lon="3.40437">
        <ele>861</ele>
        <time>2019-11-23T08:28:02Z</time>
      </trkpt>
      <trkpt lat="44.39238" lon="3.40465">
        <ele>864</ele>
        <time>2019-11-23T08:28:13Z</time>
      </trkpt>
      <trkpt lat="44.3923" lon="3.40478">
        <ele>865</ele>
        <time>2019-11-23T08:28:16Z</time>
      </trkpt>
      <trkpt lat="44.39219" lon="3.4048">
        <ele>866</ele>
        <time>2019-11-23T08:28:18Z</time>
      </trkpt>
      <trkpt lat="44.3921" lon="3.40473">
        <ele>866</ele>
        <time>2019-11-23T08:28:21Z</time>
      </trkpt>
      <trkpt lat="44.39202" lon="3.40462">
        <ele>867</ele>
        <time>2019-11-23T08:28:23Z</time>
      </trkpt>
      <trkpt lat="44.39189" lon="3.40452">
        <ele>867</ele>
        <time>2019-11-23T08:28:27Z</time>
      </trkpt>
      <trkpt lat="44.39148" lon="3.40445">
        <ele>869</ele>
        <time>2019-11-23T08:28:36Z</time>
      </trkpt>
      <trkpt lat="44.39097" lon="3.40447">
        <ele>869</ele>
        <time>2019-11-23T08:28:48Z</time>
      </trkpt>
      <trkpt lat="44.39073" lon="3.40456">
        <ele>868</ele>
        <time>2019-11-23T08:28:54Z</time>
      </trkpt>
      <trkpt lat="44.39043" lon="3.4046">
        <ele>865</ele>
        <time>2019-11-23T08:29:01Z</time>
      </trkpt>
      <trkpt lat="44.39022" lon="3.4046">
        <ele>863</ele>
        <time>2019-11-23T08:29:06Z</time>
      </trkpt>
      <trkpt lat="44.39011" lon="3.40458">
        <ele>862</ele>
        <time>2019-11-23T08:29:09Z</time>
      </trkpt>
      <trkpt lat="44.38992" lon="3.40437">
        <ele>860</ele>
        <time>2019-11-23T08:29:14Z</time>
      </trkpt>
      <trkpt lat="44.38977" lon="3.40428">
        <ele>859</ele>
        <time>2019-11-23T08:29:18Z</time>
      </trkpt>
      <trkpt lat="44.38966" lon="3.40428">
        <ele>858</ele>
        <time>2019-11-23T08:29:21Z</time>
      </trkpt>
      <trkpt lat="44.38932" lon="3.40471">
        <ele>858</ele>
        <time>2019-11-23T08:29:31Z</time>
      </trkpt>
      <trkpt lat="44.38865" lon="3.40505">
        <ele>862</ele>
        <time>2019-11-23T08:29:48Z</time>
      </trkpt>
      <trkpt lat="44.38856" lon="3.40514">
        <ele>864</ele>
        <time>2019-11-23T08:29:51Z</time>
      </trkpt>
      <trkpt lat="44.38854" lon="3.40523">
        <ele>865</ele>
        <time>2019-11-23T08:29:52Z</time>
      </trkpt>
      <trkpt lat="44.38869" lon="3.40555">
        <ele>866</ele>
        <time>2019-11-23T08:29:59Z</time>
      </trkpt>
      <trkpt lat="44.38865" lon="3.40576">
        <ele>868</ele>
        <time>2019-11-23T08:30:02Z</time>
      </trkpt>
      <trkpt lat="44.38859" lon="3.40585">
        <ele>869</ele>
        <time>2019-11-23T08:30:04Z</time>
      </trkpt>
      <trkpt lat="44.38837" lon="3.40602">
        <ele>874</ele>
        <time>2019-11-23T08:30:10Z</time>
      </trkpt>
      <trkpt lat="44.38809" lon="3.40611">
        <ele>879</ele>
        <time>2019-11-23T08:30:17Z</time>
      </trkpt>
      <trkpt lat="44.38788" lon="3.40615">
        <ele>883</ele>
        <time>2019-11-23T08:30:22Z</time>
      </trkpt>
      <trkpt lat="44.38766" lon="3.40613">
        <ele>887</ele>
        <time>2019-11-23T08:30:27Z</time>
      </trkpt>
      <trkpt lat="44.38685" lon="3.40535">
        <ele>892</ele>
        <time>2019-11-23T08:30:50Z</time>
      </trkpt>
      <trkpt lat="44.38672" lon="3.40527">
        <ele>893</ele>
        <time>2019-11-23T08:30:53Z</time>
      </trkpt>
      <trkpt lat="44.3853" lon="3.40475">
        <ele>903</ele>
        <time>2019-11-23T08:31:27Z</time>
      </trkpt>
      <trkpt lat="44.3852" lon="3.40469">
        <ele>903</ele>
        <time>2019-11-23T08:31:30Z</time>
      </trkpt>
      <trkpt lat="44.38496" lon="3.40465">
        <ele>904</ele>
        <time>2019-11-23T08:31:36Z</time>
      </trkpt>
      <trkpt lat="44.38472" lon="3.40465">
        <ele>906</ele>
        <time>2019-11-23T08:31:41Z</time>
      </trkpt>
      <trkpt lat="44.3841" lon="3.40471">
        <ele>912</ele>
        <time>2019-11-23T08:31:56Z</time>
      </trkpt>
      <trkpt lat="44.38399" lon="3.40475">
        <ele>913</ele>
        <time>2019-11-23T08:31:58Z</time>
      </trkpt>
      <trkpt lat="44.38395" lon="3.40482">
        <ele>913</ele>
        <time>2019-11-23T08:32:00Z</time>
      </trkpt>
      <trkpt lat="44.38352" lon="3.40493">
        <ele>915</ele>
        <time>2019-11-23T08:32:10Z</time>
      </trkpt>
      <trkpt lat="44.38335" lon="3.40514">
        <ele>916</ele>
        <time>2019-11-23T08:32:15Z</time>
      </trkpt>
      <trkpt lat="44.38307" lon="3.40557">
        <ele>915</ele>
        <time>2019-11-23T08:32:25Z</time>
      </trkpt>
      <trkpt lat="44.38279" lon="3.40589">
        <ele>913</ele>
        <time>2019-11-23T08:32:34Z</time>
      </trkpt>
      <trkpt lat="44.38247" lon="3.40617">
        <ele>909</ele>
        <time>2019-11-23T08:32:42Z</time>
      </trkpt>
      <trkpt lat="44.38232" lon="3.40626">
        <ele>907</ele>
        <time>2019-11-23T08:32:46Z</time>
      </trkpt>
      <trkpt lat="44.38223" lon="3.40628">
        <ele>906</ele>
        <time>2019-11-23T08:32:48Z</time>
      </trkpt>
      <trkpt lat="44.38213" lon="3.40621">
        <ele>905</ele>
        <time>2019-11-23T08:32:51Z</time>
      </trkpt>
      <trkpt lat="44.38204" lon="3.40623">
        <ele>904</ele>
        <time>2019-11-23T08:32:53Z</time>
      </trkpt>
      <trkpt lat="44.38144" lon="3.40653">
        <ele>899</ele>
        <time>2019-11-23T08:33:08Z</time>
      </trkpt>
      <trkpt lat="44.3805" lon="3.40679">
        <ele>897</ele>
        <time>2019-11-23T08:33:30Z</time>
      </trkpt>
      <trkpt lat="44.38015" lon="3.40696">
        <ele>897</ele>
        <time>2019-11-23T08:33:39Z</time>
      </trkpt>
      <trkpt lat="44.37985" lon="3.4072">
        <ele>897</ele>
        <time>2019-11-23T08:33:47Z</time>
      </trkpt>
      <trkpt lat="44.3797" lon="3.40729">
        <ele>897</ele>
        <time>2019-11-23T08:33:51Z</time>
      </trkpt>
      <trkpt lat="44.37932" lon="3.40729">
        <ele>899</ele>
        <time>2019-11-23T08:34:00Z</time>
      </trkpt>
      <trkpt lat="44.37914" lon="3.40711">
        <ele>900</ele>
        <time>2019-11-23T08:34:05Z</time>
      </trkpt>
      <trkpt lat="44.37861" lon="3.40677">
        <ele>898</ele>
        <time>2019-11-23T08:34:19Z</time>
      </trkpt>
      <trkpt lat="44.37835" lon="3.40658">
        <ele>897</ele>
        <time>2019-11-23T08:34:25Z</time>
      </trkpt>
      <trkpt lat="44.37829" lon="3.40649">
        <ele>897</ele>
        <time>2019-11-23T08:34:27Z</time>
      </trkpt>
      <trkpt lat="44.3782" lon="3.40643">
        <ele>896</ele>
        <time>2019-11-23T08:34:30Z</time>
      </trkpt>
      <trkpt lat="44.37805" lon="3.40636">
        <ele>896</ele>
        <time>2019-11-23T08:34:33Z</time>
      </trkpt>
      <trkpt lat="44.37777" lon="3.40632">
        <ele>895</ele>
        <time>2019-11-23T08:34:40Z</time>
      </trkpt>
      <trkpt lat="44.37764" lon="3.40632">
        <ele>894</ele>
        <time>2019-11-23T08:34:43Z</time>
      </trkpt>
      <trkpt lat="44.37753" lon="3.40638">
        <ele>894</ele>
        <time>2019-11-23T08:34:46Z</time>
      </trkpt>
      <trkpt lat="44.37732" lon="3.4066">
        <ele>893</ele>
        <time>2019-11-23T08:34:52Z</time>
      </trkpt>
      <trkpt lat="44.37629" lon="3.40675">
        <ele>883</ele>
        <time>2019-11-23T08:35:16Z</time>
      </trkpt>
      <trkpt lat="44.37601" lon="3.40688">
        <ele>880</ele>
        <time>2019-11-23T08:35:23Z</time>
      </trkpt>
      <trkpt lat="44.37586" lon="3.40703">
        <ele>878</ele>
        <time>2019-11-23T08:35:27Z</time>
      </trkpt>
      <trkpt lat="44.37528" lon="3.40778">
        <ele>862</ele>
        <time>2019-11-23T08:35:46Z</time>
      </trkpt>
      <trkpt lat="44.37528" lon="3.40787">
        <ele>862</ele>
        <time>2019-11-23T08:35:47Z</time>
      </trkpt>
      <trkpt lat="44.3752" lon="3.4081">
        <ele>857</ele>
        <time>2019-11-23T08:35:52Z</time>
      </trkpt>
      <trkpt lat="44.37524" lon="3.40827">
        <ele>857</ele>
        <time>2019-11-23T08:35:55Z</time>
      </trkpt>
      <trkpt lat="44.37526" lon="3.40862">
        <ele>857</ele>
        <time>2019-11-23T08:36:00Z</time>
      </trkpt>
      <trkpt lat="44.37524" lon="3.4087">
        <ele>856</ele>
        <time>2019-11-23T08:36:02Z</time>
      </trkpt>
      <trkpt lat="44.37507" lon="3.40887">
        <ele>849</ele>
        <time>2019-11-23T08:36:07Z</time>
      </trkpt>
      <trkpt lat="44.37485" lon="3.40917">
        <ele>838</ele>
        <time>2019-11-23T08:36:14Z</time>
      </trkpt>
      <trkpt lat="44.37481" lon="3.40941">
        <ele>837</ele>
        <time>2019-11-23T08:36:18Z</time>
      </trkpt>
      <trkpt lat="44.37483" lon="3.40954">
        <ele>838</ele>
        <time>2019-11-23T08:36:20Z</time>
      </trkpt>
      <trkpt lat="44.37483" lon="3.40999">
        <ele>841</ele>
        <time>2019-11-23T08:36:28Z</time>
      </trkpt>
      <trkpt lat="44.37479" lon="3.41016">
        <ele>840</ele>
        <time>2019-11-23T08:36:31Z</time>
      </trkpt>
      <trkpt lat="44.37475" lon="3.4102">
        <ele>838</ele>
        <time>2019-11-23T08:36:32Z</time>
      </trkpt>
      <trkpt lat="44.37477" lon="3.40999">
        <ele>837</ele>
        <time>2019-11-23T08:36:35Z</time>
      </trkpt>
      <trkpt lat="44.37475" lon="3.40993">
        <ele>835</ele>
        <time>2019-11-23T08:36:36Z</time>
      </trkpt>
      <trkpt lat="44.37436" lon="3.41061">
        <ele>820</ele>
        <time>2019-11-23T08:36:51Z</time>
      </trkpt>
      <trkpt lat="44.37419" lon="3.4108">
        <ele>814</ele>
        <time>2019-11-23T08:36:56Z</time>
      </trkpt>
      <trkpt lat="44.37417" lon="3.41074">
        <ele>812</ele>
        <time>2019-11-23T08:36:57Z</time>
      </trkpt>
      <trkpt lat="44.37421" lon="3.41012">
        <ele>804</ele>
        <time>2019-11-23T08:37:08Z</time>
      </trkpt>
      <trkpt lat="44.37419" lon="3.40986">
        <ele>801</ele>
        <time>2019-11-23T08:37:12Z</time>
      </trkpt>
      <trkpt lat="44.37412" lon="3.40932">
        <ele>799</ele>
        <time>2019-11-23T08:37:21Z</time>
      </trkpt>
      <trkpt lat="44.37402" lon="3.40883">
        <ele>805</ele>
        <time>2019-11-23T08:37:30Z</time>
      </trkpt>
      <trkpt lat="44.37397" lon="3.40879">
        <ele>805</ele>
        <time>2019-11-23T08:37:31Z</time>
      </trkpt>
      <trkpt lat="44.37395" lon="3.40883">
        <ele>804</ele>
        <time>2019-11-23T08:37:32Z</time>
      </trkpt>
      <trkpt lat="44.37397" lon="3.40902">
        <ele>800</ele>
        <time>2019-11-23T08:37:35Z</time>
      </trkpt>
      <trkpt lat="44.37395" lon="3.40915">
        <ele>796</ele>
        <time>2019-11-23T08:37:37Z</time>
      </trkpt>
      <trkpt lat="44.37391" lon="3.4092">
        <ele>795</ele>
        <time>2019-11-23T08:37:38Z</time>
      </trkpt>
      <trkpt lat="44.37387" lon="3.40911">
        <ele>796</ele>
        <time>2019-11-23T08:37:40Z</time>
      </trkpt>
      <trkpt lat="44.37382" lon="3.40909">
        <ele>796</ele>
        <time>2019-11-23T08:37:41Z</time>
      </trkpt>
      <trkpt lat="44.37372" lon="3.40913">
        <ele>793</ele>
        <time>2019-11-23T08:37:44Z</time>
      </trkpt>
      <trkpt lat="44.37346" lon="3.40939">
        <ele>781</ele>
        <time>2019-11-23T08:37:51Z</time>
      </trkpt>
      <trkpt lat="44.37354" lon="3.40947">
        <ele>782</ele>
        <time>2019-11-23T08:37:54Z</time>
      </trkpt>
      <trkpt lat="44.37354" lon="3.40954">
        <ele>780</ele>
        <time>2019-11-23T08:37:55Z</time>
      </trkpt>
      <trkpt lat="44.37339" lon="3.40956">
        <ele>775</ele>
        <time>2019-11-23T08:37:58Z</time>
      </trkpt>
      <trkpt lat="44.37337" lon="3.40962">
        <ele>773</ele>
        <time>2019-11-23T08:37:59Z</time>
      </trkpt>
      <trkpt lat="44.37346" lon="3.40973">
        <ele>773</ele>
        <time>2019-11-23T08:38:02Z</time>
      </trkpt>
      <trkpt lat="44.37331" lon="3.40975">
        <ele>768</ele>
        <time>2019-11-23T08:38:06Z</time>
      </trkpt>
      <trkpt lat="44.37318" lon="3.40995">
        <ele>760</ele>
        <time>2019-11-23T08:38:10Z</time>
      </trkpt>
      <trkpt lat="44.37316" lon="3.41003">
        <ele>758</ele>
        <time>2019-11-23T08:38:12Z</time>
      </trkpt>
      <trkpt lat="44.37318" lon="3.41018">
        <ele>757</ele>
        <time>2019-11-23T08:38:14Z</time>
      </trkpt>
      <trkpt lat="44.37296" lon="3.41044">
        <ele>749</ele>
        <time>2019-11-23T08:38:21Z</time>
      </trkpt>
      <trkpt lat="44.37279" lon="3.41083">
        <ele>736</ele>
        <time>2019-11-23T08:38:29Z</time>
      </trkpt>
      <trkpt lat="44.37256" lon="3.41123">
        <ele>720</ele>
        <time>2019-11-23T08:38:37Z</time>
      </trkpt>
      <trkpt lat="44.37249" lon="3.41141">
        <ele>714</ele>
        <time>2019-11-23T08:38:41Z</time>
      </trkpt>
      <trkpt lat="44.37251" lon="3.41171">
        <ele>711</ele>
        <time>2019-11-23T08:38:46Z</time>
      </trkpt>
      <trkpt lat="44.37271" lon="3.4122">
        <ele>710</ele>
        <time>2019-11-23T08:38:55Z</time>
      </trkpt>
      <trkpt lat="44.37286" lon="3.41244">
        <ele>712</ele>
        <time>2019-11-23T08:39:00Z</time>
      </trkpt>
      <trkpt lat="44.37314" lon="3.41274">
        <ele>722</ele>
        <time>2019-11-23T08:39:09Z</time>
      </trkpt>
      <trkpt lat="44.37318" lon="3.41286">
        <ele>721</ele>
        <time>2019-11-23T08:39:11Z</time>
      </trkpt>
      <trkpt lat="44.37314" lon="3.41366">
        <ele>705</ele>
        <time>2019-11-23T08:39:24Z</time>
      </trkpt>
      <trkpt lat="44.37307" lon="3.41389">
        <ele>697</ele>
        <time>2019-11-23T08:39:28Z</time>
      </trkpt>
      <trkpt lat="44.37307" lon="3.41404">
        <ele>695</ele>
        <time>2019-11-23T08:39:31Z</time>
      </trkpt>
      <trkpt lat="44.37301" lon="3.41428">
        <ele>686</ele>
        <time>2019-11-23T08:39:35Z</time>
      </trkpt>
      <trkpt lat="44.37299" lon="3.4145">
        <ele>680</ele>
        <time>2019-11-23T08:39:39Z</time>
      </trkpt>
      <trkpt lat="44.37309" lon="3.41474">
        <ele>682</ele>
        <time>2019-11-23T08:39:43Z</time>
      </trkpt>
      <trkpt lat="44.37375" lon="3.41553">
        <ele>703</ele>
        <time>2019-11-23T08:40:04Z</time>
      </trkpt>
      <trkpt lat="44.3739" lon="3.41577">
        <ele>705</ele>
        <time>2019-11-23T08:40:09Z</time>
      </trkpt>
      <trkpt lat="44.37409" lon="3.41626">
        <ele>705</ele>
        <time>2019-11-23T08:40:18Z</time>
      </trkpt>
      <trkpt lat="44.37417" lon="3.41638">
        <ele>707</ele>
        <time>2019-11-23T08:40:21Z</time>
      </trkpt>
      <trkpt lat="44.37456" lon="3.41684">
        <ele>710</ele>
        <time>2019-11-23T08:40:33Z</time>
      </trkpt>
      <trkpt lat="44.37465" lon="3.41691">
        <ele>711</ele>
        <time>2019-11-23T08:40:35Z</time>
      </trkpt>
      <trkpt lat="44.37552" lon="3.41732">
        <ele>725</ele>
        <time>2019-11-23T08:40:57Z</time>
      </trkpt>
      <trkpt lat="44.37583" lon="3.41734">
        <ele>733</ele>
        <time>2019-11-23T08:41:04Z</time>
      </trkpt>
      <trkpt lat="44.37615" lon="3.41747">
        <ele>741</ele>
        <time>2019-11-23T08:41:12Z</time>
      </trkpt>
      <trkpt lat="44.37685" lon="3.41801">
        <ele>748</ele>
        <time>2019-11-23T08:41:31Z</time>
      </trkpt>
      <trkpt lat="44.37698" lon="3.41818">
        <ele>747</ele>
        <time>2019-11-23T08:41:35Z</time>
      </trkpt>
      <trkpt lat="44.37712" lon="3.41853">
        <ele>745</ele>
        <time>2019-11-23T08:41:41Z</time>
      </trkpt>
      <trkpt lat="44.37723" lon="3.41868">
        <ele>747</ele>
        <time>2019-11-23T08:41:45Z</time>
      </trkpt>
      <trkpt lat="44.37763" lon="3.41893">
        <ele>752</ele>
        <time>2019-11-23T08:41:55Z</time>
      </trkpt>
      <trkpt lat="44.37787" lon="3.41914">
        <ele>755</ele>
        <time>2019-11-23T08:42:02Z</time>
      </trkpt>
      <trkpt lat="44.37807" lon="3.41938">
        <ele>761</ele>
        <time>2019-11-23T08:42:08Z</time>
      </trkpt>
      <trkpt lat="44.37825" lon="3.41967">
        <ele>762</ele>
        <time>2019-11-23T08:42:14Z</time>
      </trkpt>
      <trkpt lat="44.37847" lon="3.41995">
        <ele>764</ele>
        <time>2019-11-23T08:42:21Z</time>
      </trkpt>
      <trkpt lat="44.37875" lon="3.4204">
        <ele>774</ele>
        <time>2019-11-23T08:42:31Z</time>
      </trkpt>
      <trkpt lat="44.3787" lon="3.41998">
        <ele>775</ele>
        <time>2019-11-23T08:42:39Z</time>
      </trkpt>
      <trkpt lat="44.37885" lon="3.42023">
        <ele>778</ele>
        <time>2019-11-23T08:42:46Z</time>
      </trkpt>
      <trkpt lat="44.379" lon="3.42069">
        <ele>760.421875</ele>
      </trkpt>
      <trkpt lat="44.3791" lon="3.42088">
        <ele>761.0390625</ele>
      </trkpt>
      <trkpt lat="44.37942" lon="3.42127">
        <ele>767.421875</ele>
      </trkpt>
      <trkpt lat="44.3798" lon="3.42163">
        <ele>772.61328125</ele>
      </trkpt>
      <trkpt lat="44.38006" lon="3.42187">
        <ele>775.921875</ele>
      </trkpt>
      <trkpt lat="44.38019" lon="3.42193">
        <ele>778.7109375</ele>
      </trkpt>
      <trkpt lat="44.38037" lon="3.42201">
        <ele>781.09375</ele>
      </trkpt>
      <trkpt lat="44.38069" lon="3.42193">
        <ele>786.3046875</ele>
      </trkpt>
      <trkpt lat="44.38109" lon="3.42179">
        <ele>791.00390625</ele>
      </trkpt>
      <trkpt lat="44.38137" lon="3.42176">
        <ele>794.171875</ele>
      </trkpt>
      <trkpt lat="44.38159" lon="3.42174">
        <ele>797.33984375</ele>
      </trkpt>
      <trkpt lat="44.38185" lon="3.42182">
        <ele>798.05859375</ele>
      </trkpt>
      <trkpt lat="44.38209" lon="3.42189">
        <ele>802.3359375</ele>
      </trkpt>
      <trkpt lat="44.3824" lon="3.42195">
        <ele>807.5234375</ele>
      </trkpt>
      <trkpt lat="44.38262" lon="3.42196">
        <ele>810.45703125</ele>
      </trkpt>
      <trkpt lat="44.38286" lon="3.42193">
        <ele>813.6328125</ele>
      </trkpt>
      <trkpt lat="44.38316" lon="3.42186">
        <ele>817.140625</ele>
      </trkpt>
      <trkpt lat="44.38338" lon="3.42182">
        <ele>819.50390625</ele>
      </trkpt>
      <trkpt lat="44.38365" lon="3.4218">
        <ele>821.48828125</ele>
      </trkpt>
      <trkpt lat="44.38387" lon="3.42176">
        <ele>823.32421875</ele>
      </trkpt>
      <trkpt lat="44.38414" lon="3.4218">
        <ele>824.05859375</ele>
      </trkpt>
      <trkpt lat="44.38437" lon="3.42187">
        <ele>827.04296875</ele>
      </trkpt>
      <trkpt lat="44.38458" lon="3.42193">
        <ele>829.53515625</ele>
      </trkpt>
      <trkpt lat="44.38482" lon="3.42202">
        <ele>831.87109375</ele>
      </trkpt>
      <trkpt lat="44.38497" lon="3.42208">
        <ele>833.0859375</ele>
      </trkpt>
      <trkpt lat="44.38517" lon="3.42225">
        <ele>833.30078125</ele>
      </trkpt>
      <trkpt lat="44.38534" lon="3.42241">
        <ele>834.10546875</ele>
      </trkpt>
      <trkpt lat="44.38551" lon="3.42251">
        <ele>836.0390625</ele>
      </trkpt>
      <trkpt lat="44.38573" lon="3.42262">
        <ele>837.515625</ele>
      </trkpt>
      <trkpt lat="44.38595" lon="3.4226">
        <ele>839.22265625</ele>
      </trkpt>
      <trkpt lat="44.38618" lon="3.42252">
        <ele>841.578125</ele>
      </trkpt>
      <trkpt lat="44.38639" lon="3.42244">
        <ele>843.6640625</ele>
      </trkpt>
      <trkpt lat="44.3867" lon="3.4223">
        <ele>846.7734375</ele>
      </trkpt>
      <trkpt lat="44.387" lon="3.42223">
        <ele>849.3046875</ele>
      </trkpt>
      <trkpt lat="44.38724" lon="3.42219">
        <ele>850.98828125</ele>
      </trkpt>
      <trkpt lat="44.38747" lon="3.42213">
        <ele>853.3828125</ele>
      </trkpt>
      <trkpt lat="44.38779" lon="3.42205">
        <ele>856.71484375</ele>
      </trkpt>
      <trkpt lat="44.38806" lon="3.42201">
        <ele>858.9140625</ele>
      </trkpt>
      <trkpt lat="44.38838" lon="3.42204">
        <ele>860.39453125</ele>
      </trkpt>
      <trkpt lat="44.38865" lon="3.42202">
        <ele>862.16015625</ele>
      </trkpt>
      <trkpt lat="44.38891" lon="3.42206">
        <ele>862.9375</ele>
      </trkpt>
      <trkpt lat="44.38925" lon="3.42208">
        <ele>864.5703125</ele>
      </trkpt>
      <trkpt lat="44.38946" lon="3.42214">
        <ele>864.6328125</ele>
      </trkpt>
      <trkpt lat="44.38962" lon="3.42223">
        <ele>864.03125</ele>
      </trkpt>
      <trkpt lat="44.38974" lon="3.4224">
        <ele>862.47265625</ele>
      </trkpt>
      <trkpt lat="44.38987" lon="3.42262">
        <ele>861.96875</ele>
      </trkpt>
      <trkpt lat="44.38994" lon="3.42282">
        <ele>861.12890625</ele>
      </trkpt>
      <trkpt lat="44.38972" lon="3.42293">
        <ele>860.4296875</ele>
      </trkpt>
      <trkpt lat="44.38959" lon="3.423">
        <ele>861.0859375</ele>
      </trkpt>
      <trkpt lat="44.3894" lon="3.42318">
        <ele>863.7421875</ele>
      </trkpt>
      <trkpt lat="44.3892" lon="3.42323">
        <ele>864.87890625</ele>
      </trkpt>
      <trkpt lat="44.38904" lon="3.42313">
        <ele>863.40234375</ele>
      </trkpt>
      <trkpt lat="44.38881" lon="3.42308">
        <ele>861.65625</ele>
      </trkpt>
      <trkpt lat="44.38862" lon="3.42309">
        <ele>861.203125</ele>
      </trkpt>
      <trkpt lat="44.38842" lon="3.4231">
        <ele>860.33984375</ele>
      </trkpt>
      <trkpt lat="44.38823" lon="3.4231">
        <ele>858.7578125</ele>
      </trkpt>
      <trkpt lat="44.3881" lon="3.42317">
        <ele>859.1171875</ele>
      </trkpt>
      <trkpt lat="44.38791" lon="3.42326">
        <ele>859.6171875</ele>
      </trkpt>
      <trkpt lat="44.38775" lon="3.4234">
        <ele>861.23046875</ele>
      </trkpt>
      <trkpt lat="44.38756" lon="3.42349">
        <ele>861.21875</ele>
      </trkpt>
      <trkpt lat="44.38738" lon="3.4237">
        <ele>863.22265625</ele>
      </trkpt>
      <trkpt lat="44.38708" lon="3.42386">
        <ele>860.359375</ele>
      </trkpt>
      <trkpt lat="44.38694" lon="3.42406">
        <ele>860.65234375</ele>
      </trkpt>
      <trkpt lat="44.38679" lon="3.42436">
        <ele>862.59375</ele>
      </trkpt>
      <trkpt lat="44.38667" lon="3.42458">
        <ele>865.4375</ele>
      </trkpt>
      <trkpt lat="44.38657" lon="3.42488">
        <ele>869.64453125</ele>
      </trkpt>
      <trkpt lat="44.38654" lon="3.42507">
        <ele>872.4609375</ele>
      </trkpt>
      <trkpt lat="44.38643" lon="3.42514">
        <ele>873.8984375</ele>
      </trkpt>
      <trkpt lat="44.38631" lon="3.42507">
        <ele>872.71484375</ele>
      </trkpt>
      <trkpt lat="44.38622" lon="3.42486">
        <ele>870.51953125</ele>
      </trkpt>
      <trkpt lat="44.38611" lon="3.42462">
        <ele>868.3359375</ele>
      </trkpt>
      <trkpt lat="44.38606" lon="3.4244">
        <ele>864.69140625</ele>
      </trkpt>
      <trkpt lat="44.38601" lon="3.42425">
        <ele>862.078125</ele>
      </trkpt>
      <trkpt lat="44.38595" lon="3.42409">
        <ele>859.19140625</ele>
      </trkpt>
      <trkpt lat="44.38574" lon="3.42382">
        <ele>855.1328125</ele>
      </trkpt>
      <trkpt lat="44.3856" lon="3.42362">
        <ele>852.6953125</ele>
      </trkpt>
      <trkpt lat="44.3854" lon="3.42344">
        <ele>851.02734375</ele>
      </trkpt>
      <trkpt lat="44.38526" lon="3.42331">
        <ele>849.26953125</ele>
      </trkpt>
      <trkpt lat="44.38513" lon="3.42321">
        <ele>847.25</ele>
      </trkpt>
      <trkpt lat="44.38504" lon="3.42309">
        <ele>844.09375</ele>
      </trkpt>
      <trkpt lat="44.38486" lon="3.4229">
        <ele>838.81640625</ele>
      </trkpt>
      <trkpt lat="44.38455" lon="3.42291">
        <ele>839.8515625</ele>
      </trkpt>
      <trkpt lat="44.38434" lon="3.42297">
        <ele>842.171875</ele>
      </trkpt>
      <trkpt lat="44.38416" lon="3.42303">
        <ele>844.15625</ele>
      </trkpt>
      <trkpt lat="44.38397" lon="3.42312">
        <ele>847.16796875</ele>
      </trkpt>
      <trkpt lat="44.38369" lon="3.42317">
        <ele>847.875</ele>
      </trkpt>
      <trkpt lat="44.38346" lon="3.42331">
        <ele>852.3984375</ele>
      </trkpt>
      <trkpt lat="44.38331" lon="3.42343">
        <ele>856.20703125</ele>
      </trkpt>
      <trkpt lat="44.38314" lon="3.42351">
        <ele>858.36328125</ele>
      </trkpt>
      <trkpt lat="44.38296" lon="3.42365">
        <ele>862.81640625</ele>
      </trkpt>
      <trkpt lat="44.38275" lon="3.42373">
        <ele>864.2265625</ele>
      </trkpt>
      <trkpt lat="44.38249" lon="3.42387">
        <ele>867.75390625</ele>
      </trkpt>
      <trkpt lat="44.38225" lon="3.42399">
        <ele>870.390625</ele>
      </trkpt>
      <trkpt lat="44.38207" lon="3.42408">
        <ele>872.421875</ele>
      </trkpt>
      <trkpt lat="44.38189" lon="3.42421">
        <ele>875.5625</ele>
      </trkpt>
      <trkpt lat="44.38164" lon="3.42439">
        <ele>879.1875</ele>
      </trkpt>
      <trkpt lat="44.38146" lon="3.42456">
        <ele>883.125</ele>
      </trkpt>
      <trkpt lat="44.38126" lon="3.4247">
        <ele>884.89453125</ele>
      </trkpt>
      <trkpt lat="44.38108" lon="3.42483">
        <ele>885.5625</ele>
      </trkpt>
      <trkpt lat="44.38086" lon="3.42507">
        <ele>888.921875</ele>
      </trkpt>
      <trkpt lat="44.38067" lon="3.4252">
        <ele>888.453125</ele>
      </trkpt>
      <trkpt lat="44.38045" lon="3.42544">
        <ele>888.73828125</ele>
      </trkpt>
      <trkpt lat="44.38023" lon="3.42566">
        <ele>888.6640625</ele>
      </trkpt>
      <trkpt lat="44.38008" lon="3.42592">
        <ele>890.359375</ele>
      </trkpt>
      <trkpt lat="44.38" lon="3.4262">
        <ele>894.2734375</ele>
      </trkpt>
      <trkpt lat="44.37992" lon="3.42656">
        <ele>898.71484375</ele>
      </trkpt>
      <trkpt lat="44.37991" lon="3.42677">
        <ele>901.9453125</ele>
      </trkpt>
      <trkpt lat="44.37987" lon="3.427">
        <ele>903.9453125</ele>
      </trkpt>
      <trkpt lat="44.37983" lon="3.42718">
        <ele>905.16796875</ele>
      </trkpt>
      <trkpt lat="44.37982" lon="3.42738">
        <ele>906.9765625</ele>
      </trkpt>
      <trkpt lat="44.37981" lon="3.42749">
        <ele>907.8125</ele>
      </trkpt>
      <trkpt lat="44.37968" lon="3.42778">
        <ele>907.74609375</ele>
      </trkpt>
      <trkpt lat="44.37958" lon="3.428">
        <ele>908.5625</ele>
      </trkpt>
      <trkpt lat="44.3795" lon="3.42814">
        <ele>909.33203125</ele>
      </trkpt>
      <trkpt lat="44.37939" lon="3.42827">
        <ele>909.73828125</ele>
      </trkpt>
      <trkpt lat="44.37923" lon="3.42824">
        <ele>908.375</ele>
      </trkpt>
      <trkpt lat="44.37907" lon="3.42813">
        <ele>906.59375</ele>
      </trkpt>
      <trkpt lat="44.37894" lon="3.42799">
        <ele>907.33984375</ele>
      </trkpt>
      <trkpt lat="44.37883" lon="3.42774">
        <ele>907.515625</ele>
      </trkpt>
      <trkpt lat="44.37879" lon="3.42762">
        <ele>907.48046875</ele>
      </trkpt>
      <trkpt lat="44.37875" lon="3.42739">
        <ele>907.171875</ele>
      </trkpt>
      <trkpt lat="44.37875" lon="3.42731">
        <ele>906.66015625</ele>
      </trkpt>
      <trkpt lat="44.37883" lon="3.42709">
        <ele>903.08984375</ele>
      </trkpt>
      <trkpt lat="44.37885" lon="3.42691">
        <ele>900.97265625</ele>
      </trkpt>
      <trkpt lat="44.37886" lon="3.42669">
        <ele>898.1953125</ele>
      </trkpt>
      <trkpt lat="44.37884" lon="3.42647">
        <ele>895.6015625</ele>
      </trkpt>
      <trkpt lat="44.3788" lon="3.42622">
        <ele>892.86328125</ele>
      </trkpt>
      <trkpt lat="44.3788" lon="3.42596">
        <ele>888.171875</ele>
      </trkpt>
      <trkpt lat="44.37882" lon="3.42577">
        <ele>884.109375</ele>
      </trkpt>
      <trkpt lat="44.37874" lon="3.42544">
        <ele>880.546875</ele>
      </trkpt>
      <trkpt lat="44.37867" lon="3.42521">
        <ele>878.4765625</ele>
      </trkpt>
      <trkpt lat="44.37857" lon="3.42496">
        <ele>876.828125</ele>
      </trkpt>
      <trkpt lat="44.37852" lon="3.42479">
        <ele>874.98046875</ele>
      </trkpt>
      <trkpt lat="44.37848" lon="3.42466">
        <ele>873.73828125</ele>
      </trkpt>
      <trkpt lat="44.37854" lon="3.42461">
        <ele>870.72265625</ele>
      </trkpt>
      <trkpt lat="44.37869" lon="3.42478">
        <ele>868.79296875</ele>
      </trkpt>
      <trkpt lat="44.37884" lon="3.42495">
        <ele>867.5</ele>
      </trkpt>
      <trkpt lat="44.37895" lon="3.42514">
        <ele>867.9609375</ele>
      </trkpt>
      <trkpt lat="44.379" lon="3.4252">
        <ele>867.52734375</ele>
      </trkpt>
      <trkpt lat="44.37906" lon="3.42521">
        <ele>865.75390625</ele>
      </trkpt>
      <trkpt lat="44.37907" lon="3.42502">
        <ele>861.3203125</ele>
      </trkpt>
      <trkpt lat="44.37923" lon="3.42501">
        <ele>859.2109375</ele>
      </trkpt>
      <trkpt lat="44.37939" lon="3.42467">
        <ele>848.12890625</ele>
      </trkpt>
      <trkpt lat="44.3795" lon="3.42429">
        <ele>836.19140625</ele>
      </trkpt>
      <trkpt lat="44.37974" lon="3.4238">
        <ele>820.98046875</ele>
      </trkpt>
      <trkpt lat="44.37996" lon="3.42346">
        <ele>812.296875</ele>
      </trkpt>
      <trkpt lat="44.37998" lon="3.42337">
        <ele>808.9140625</ele>
      </trkpt>
      <trkpt lat="44.37987" lon="3.42349">
        <ele>812.47265625</ele>
      </trkpt>
      <trkpt lat="44.37979" lon="3.42355">
        <ele>813.22265625</ele>
      </trkpt>
      <trkpt lat="44.37973" lon="3.42358">
        <ele>813.51953125</ele>
      </trkpt>
      <trkpt lat="44.37977" lon="3.42353">
        <ele>812.328125</ele>
      </trkpt>
      <trkpt lat="44.3798" lon="3.42337">
        <ele>807.20703125</ele>
      </trkpt>
      <trkpt lat="44.37988" lon="3.42321">
        <ele>801.88671875</ele>
      </trkpt>
      <trkpt lat="44.37997" lon="3.42302">
        <ele>795.2890625</ele>
      </trkpt>
      <trkpt lat="44.37982" lon="3.4231">
        <ele>797.6328125</ele>
      </trkpt>
      <trkpt lat="44.37971" lon="3.42314">
        <ele>798.359375</ele>
      </trkpt>
      <trkpt lat="44.37963" lon="3.42316">
        <ele>798.2734375</ele>
      </trkpt>
      <trkpt lat="44.3797" lon="3.42301">
        <ele>793.4765625</ele>
      </trkpt>
      <trkpt lat="44.37963" lon="3.42297">
        <ele>792.01953125</ele>
      </trkpt>
      <trkpt lat="44.37952" lon="3.42302">
        <ele>797.66796875</ele>
      </trkpt>
      <trkpt lat="44.37948" lon="3.4231">
        <ele>801.59765625</ele>
      </trkpt>
      <trkpt lat="44.37943" lon="3.4231">
        <ele>803.69921875</ele>
      </trkpt>
      <trkpt lat="44.37943" lon="3.42302">
        <ele>800.9765625</ele>
      </trkpt>
      <trkpt lat="44.37941" lon="3.42297">
        <ele>799.96875</ele>
      </trkpt>
      <trkpt lat="44.37951" lon="3.42282">
        <ele>791.63671875</ele>
      </trkpt>
      <trkpt lat="44.37952" lon="3.42276">
        <ele>789.0625</ele>
      </trkpt>
      <trkpt lat="44.37956" lon="3.42272">
        <ele>786.38671875</ele>
      </trkpt>
      <trkpt lat="44.37959" lon="3.42262">
        <ele>782.046875</ele>
      </trkpt>
      <trkpt lat="44.37964" lon="3.42262">
        <ele>781.140625</ele>
      </trkpt>
      <trkpt lat="44.37962" lon="3.42254">
        <ele>778.7890625</ele>
      </trkpt>
      <trkpt lat="44.37966" lon="3.42247">
        <ele>776.6953125</ele>
      </trkpt>
      <trkpt lat="44.37973" lon="3.42249">
        <ele>777.71484375</ele>
      </trkpt>
      <trkpt lat="44.37983" lon="3.42242">
        <ele>776.27734375</ele>
      </trkpt>
      <trkpt lat="44.37999" lon="3.42247">
        <ele>778.6328125</ele>
      </trkpt>
      <trkpt lat="44.38007" lon="3.42244">
        <ele>778.4375</ele>
      </trkpt>
      <trkpt lat="44.38" lon="3.42238">
        <ele>776.125</ele>
      </trkpt>
      <trkpt lat="44.3799" lon="3.42236">
        <ele>775.08203125</ele>
      </trkpt>
      <trkpt lat="44.37987" lon="3.42232">
        <ele>774.48046875</ele>
      </trkpt>
      <trkpt lat="44.37993" lon="3.4223">
        <ele>774.890625</ele>
      </trkpt>
      <trkpt lat="44.38002" lon="3.42222">
        <ele>775.63671875</ele>
      </trkpt>
      <trkpt lat="44.3799" lon="3.42219">
        <ele>773.98046875</ele>
      </trkpt>
      <trkpt lat="44.37977" lon="3.42213">
        <ele>771.8046875</ele>
      </trkpt>
      <trkpt lat="44.37967" lon="3.42204">
        <ele>769.09765625</ele>
      </trkpt>
      <trkpt lat="44.37949" lon="3.42189">
        <ele>768.04296875</ele>
      </trkpt>
      <trkpt lat="44.37931" lon="3.42173">
        <ele>767.3984375</ele>
      </trkpt>
      <trkpt lat="44.37911" lon="3.42154">
        <ele>764.6953125</ele>
      </trkpt>
      <trkpt lat="44.37899" lon="3.4214">
        <ele>763.60546875</ele>
      </trkpt>
      <trkpt lat="44.37898" lon="3.42142">
        <ele>779</ele>
        <time>2019-11-23T08:42:49Z</time>
      </trkpt>
      <trkpt lat="44.37859" lon="3.4211">
        <ele>780</ele>
        <time>2019-11-23T08:43:00Z</time>
      </trkpt>
      <trkpt lat="44.3784" lon="3.42086">
        <ele>774</ele>
        <time>2019-11-23T08:43:06Z</time>
      </trkpt>
      <trkpt lat="44.37825" lon="3.42072">
        <ele>773</ele>
        <time>2019-11-23T08:43:10Z</time>
      </trkpt>
      <trkpt lat="44.37786" lon="3.4205">
        <ele>778</ele>
        <time>2019-11-23T08:43:20Z</time>
      </trkpt>
      <trkpt lat="44.37759" lon="3.42039">
        <ele>780</ele>
        <time>2019-11-23T08:43:27Z</time>
      </trkpt>
      <trkpt lat="44.37671" lon="3.42018">
        <ele>789</ele>
        <time>2019-11-23T08:43:47Z</time>
      </trkpt>
      <trkpt lat="44.37656" lon="3.42012">
        <ele>789</ele>
        <time>2019-11-23T08:43:51Z</time>
      </trkpt>
      <trkpt lat="44.37635" lon="3.41998">
        <ele>787</ele>
        <time>2019-11-23T08:43:56Z</time>
      </trkpt>
      <trkpt lat="44.3762" lon="3.41991">
        <ele>786</ele>
        <time>2019-11-23T08:44:00Z</time>
      </trkpt>
      <trkpt lat="44.37602" lon="3.41989">
        <ele>788</ele>
        <time>2019-11-23T08:44:04Z</time>
      </trkpt>
      <trkpt lat="44.37579" lon="3.41992">
        <ele>794</ele>
        <time>2019-11-23T08:44:10Z</time>
      </trkpt>
      <trkpt lat="44.37531" lon="3.42007">
        <ele>803</ele>
        <time>2019-11-23T08:44:21Z</time>
      </trkpt>
      <trkpt lat="44.37455" lon="3.42019">
        <ele>809</ele>
        <time>2019-11-23T08:44:39Z</time>
      </trkpt>
      <trkpt lat="44.37417" lon="3.42043">
        <ele>821</ele>
        <time>2019-11-23T08:44:49Z</time>
      </trkpt>
      <trkpt lat="44.37403" lon="3.42044">
        <ele>822</ele>
        <time>2019-11-23T08:44:52Z</time>
      </trkpt>
      <trkpt lat="44.37376" lon="3.42035">
        <ele>818</ele>
        <time>2019-11-23T08:44:59Z</time>
      </trkpt>
      <trkpt lat="44.37339" lon="3.42039">
        <ele>822</ele>
        <time>2019-11-23T08:45:07Z</time>
      </trkpt>
      <trkpt lat="44.37291" lon="3.42032">
        <ele>819</ele>
        <time>2019-11-23T08:45:19Z</time>
      </trkpt>
      <trkpt lat="44.37278" lon="3.42034">
        <ele>820</ele>
        <time>2019-11-23T08:45:22Z</time>
      </trkpt>
      <trkpt lat="44.37215" lon="3.42064">
        <ele>834</ele>
        <time>2019-11-23T08:45:37Z</time>
      </trkpt>
      <trkpt lat="44.372" lon="3.42069">
        <ele>837</ele>
        <time>2019-11-23T08:45:41Z</time>
      </trkpt>
      <trkpt lat="44.37158" lon="3.42061">
        <ele>835</ele>
        <time>2019-11-23T08:45:51Z</time>
      </trkpt>
      <trkpt lat="44.37113" lon="3.4203">
        <ele>826</ele>
        <time>2019-11-23T08:46:02Z</time>
      </trkpt>
      <trkpt lat="44.37079" lon="3.421">
        <ele>829</ele>
        <time>2019-11-23T08:46:17Z</time>
      </trkpt>
      <trkpt lat="44.37081" lon="3.42129">
        <ele>832</ele>
        <time>2019-11-23T08:46:21Z</time>
      </trkpt>
      <trkpt lat="44.37079" lon="3.42141">
        <ele>832</ele>
        <time>2019-11-23T08:46:23Z</time>
      </trkpt>
      <trkpt lat="44.3708" lon="3.42169">
        <ele>835</ele>
        <time>2019-11-23T08:46:28Z</time>
      </trkpt>
      <trkpt lat="44.37077" lon="3.42203">
        <ele>834</ele>
        <time>2019-11-23T08:46:34Z</time>
      </trkpt>
      <trkpt lat="44.37071" lon="3.42219">
        <ele>830</ele>
        <time>2019-11-23T08:46:37Z</time>
      </trkpt>
      <trkpt lat="44.37069" lon="3.42255">
        <ele>829</ele>
        <time>2019-11-23T08:46:43Z</time>
      </trkpt>
      <trkpt lat="44.37072" lon="3.42269">
        <ele>832</ele>
        <time>2019-11-23T08:46:45Z</time>
      </trkpt>
      <trkpt lat="44.3708" lon="3.42277">
        <ele>839</ele>
        <time>2019-11-23T08:46:48Z</time>
      </trkpt>
      <trkpt lat="44.37084" lon="3.42286">
        <ele>843</ele>
        <time>2019-11-23T08:46:49Z</time>
      </trkpt>
      <trkpt lat="44.37082" lon="3.4233">
        <ele>844</ele>
        <time>2019-11-23T08:46:57Z</time>
      </trkpt>
      <trkpt lat="44.37076" lon="3.42372">
        <ele>845</ele>
        <time>2019-11-23T08:47:04Z</time>
      </trkpt>
      <trkpt lat="44.37079" lon="3.42391">
        <ele>850</ele>
        <time>2019-11-23T08:47:07Z</time>
      </trkpt>
      <trkpt lat="44.37076" lon="3.42436">
        <ele>854</ele>
        <time>2019-11-23T08:47:15Z</time>
      </trkpt>
      <trkpt lat="44.37063" lon="3.42473">
        <ele>851</ele>
        <time>2019-11-23T08:47:22Z</time>
      </trkpt>
      <trkpt lat="44.37059" lon="3.42478">
        <ele>849</ele>
        <time>2019-11-23T08:47:23Z</time>
      </trkpt>
      <trkpt lat="44.37056" lon="3.42497">
        <ele>851</ele>
        <time>2019-11-23T08:47:26Z</time>
      </trkpt>
      <trkpt lat="44.37048" lon="3.42508">
        <ele>845</ele>
        <time>2019-11-23T08:47:29Z</time>
      </trkpt>
      <trkpt lat="44.37038" lon="3.42534">
        <ele>834</ele>
        <time>2019-11-23T08:47:34Z</time>
      </trkpt>
      <trkpt lat="44.37057" lon="3.42571">
        <ele>838</ele>
        <time>2019-11-23T08:47:41Z</time>
      </trkpt>
      <trkpt lat="44.3706" lon="3.42574">
        <ele>839</ele>
        <time>2019-11-23T08:47:42Z</time>
      </trkpt>
      <trkpt lat="44.37082" lon="3.42582">
        <ele>850</ele>
        <time>2019-11-23T08:47:47Z</time>
      </trkpt>
      <trkpt lat="44.37098" lon="3.42592">
        <ele>855</ele>
        <time>2019-11-23T08:47:51Z</time>
      </trkpt>
      <trkpt lat="44.37103" lon="3.42597">
        <ele>856</ele>
        <time>2019-11-23T08:47:53Z</time>
      </trkpt>
      <trkpt lat="44.37113" lon="3.42618">
        <ele>853</ele>
        <time>2019-11-23T08:47:57Z</time>
      </trkpt>
      <trkpt lat="44.37138" lon="3.42644">
        <ele>856</ele>
        <time>2019-11-23T08:48:04Z</time>
      </trkpt>
      <trkpt lat="44.37147" lon="3.42668">
        <ele>852</ele>
        <time>2019-11-23T08:48:09Z</time>
      </trkpt>
      <trkpt lat="44.37155" lon="3.42727">
        <ele>848</ele>
        <time>2019-11-23T08:48:19Z</time>
      </trkpt>
      <trkpt lat="44.37153" lon="3.42778">
        <ele>843</ele>
        <time>2019-11-23T08:48:27Z</time>
      </trkpt>
      <trkpt lat="44.37127" lon="3.42869">
        <ele>821</ele>
        <time>2019-11-23T08:48:44Z</time>
      </trkpt>
      <trkpt lat="44.37128" lon="3.42878">
        <ele>821</ele>
        <time>2019-11-23T08:48:45Z</time>
      </trkpt>
      <trkpt lat="44.37125" lon="3.42896">
        <ele>819</ele>
        <time>2019-11-23T08:48:48Z</time>
      </trkpt>
      <trkpt lat="44.3713" lon="3.42913">
        <ele>822</ele>
        <time>2019-11-23T08:48:52Z</time>
      </trkpt>
      <trkpt lat="44.3714" lon="3.42927">
        <ele>827</ele>
        <time>2019-11-23T08:48:55Z</time>
      </trkpt>
      <trkpt lat="44.37161" lon="3.42972">
        <ele>831</ele>
        <time>2019-11-23T08:49:04Z</time>
      </trkpt>
      <trkpt lat="44.37169" lon="3.42997">
        <ele>830</ele>
        <time>2019-11-23T08:49:08Z</time>
      </trkpt>
      <trkpt lat="44.37172" lon="3.42999">
        <ele>832</ele>
        <time>2019-11-23T08:49:09Z</time>
      </trkpt>
      <trkpt lat="44.37169" lon="3.42997">
        <ele>830</ele>
        <time>2019-11-23T08:49:10Z</time>
      </trkpt>
      <trkpt lat="44.37171" lon="3.43011">
        <ele>829</ele>
        <time>2019-11-23T08:49:12Z</time>
      </trkpt>
      <trkpt lat="44.37174" lon="3.43013">
        <ele>831</ele>
        <time>2019-11-23T08:49:13Z</time>
      </trkpt>
      <trkpt lat="44.37175" lon="3.43019">
        <ele>831</ele>
        <time>2019-11-23T08:49:14Z</time>
      </trkpt>
      <trkpt lat="44.37174" lon="3.43042">
        <ele>827</ele>
        <time>2019-11-23T08:49:18Z</time>
      </trkpt>
      <trkpt lat="44.37168" lon="3.43082">
        <ele>817</ele>
        <time>2019-11-23T08:49:25Z</time>
      </trkpt>
      <trkpt lat="44.37172" lon="3.43111">
        <ele>816</ele>
        <time>2019-11-23T08:49:30Z</time>
      </trkpt>
      <trkpt lat="44.37177" lon="3.43121">
        <ele>819</ele>
        <time>2019-11-23T08:49:32Z</time>
      </trkpt>
      <trkpt lat="44.37182" lon="3.43163">
        <ele>818</ele>
        <time>2019-11-23T08:49:39Z</time>
      </trkpt>
      <trkpt lat="44.37182" lon="3.43185">
        <ele>819</ele>
        <time>2019-11-23T08:49:43Z</time>
      </trkpt>
      <trkpt lat="44.3718" lon="3.4321">
        <ele>819</ele>
        <time>2019-11-23T08:49:47Z</time>
      </trkpt>
      <trkpt lat="44.37166" lon="3.43266">
        <ele>812</ele>
        <time>2019-11-23T08:49:57Z</time>
      </trkpt>
      <trkpt lat="44.37153" lon="3.43299">
        <ele>801</ele>
        <time>2019-11-23T08:50:03Z</time>
      </trkpt>
      <trkpt lat="44.37149" lon="3.43328">
        <ele>797</ele>
        <time>2019-11-23T08:50:08Z</time>
      </trkpt>
      <trkpt lat="44.37152" lon="3.43358">
        <ele>802</ele>
        <time>2019-11-23T08:50:13Z</time>
      </trkpt>
      <trkpt lat="44.37149" lon="3.43381">
        <ele>802</ele>
        <time>2019-11-23T08:50:17Z</time>
      </trkpt>
      <trkpt lat="44.37154" lon="3.43406">
        <ele>808</ele>
        <time>2019-11-23T08:50:21Z</time>
      </trkpt>
      <trkpt lat="44.37147" lon="3.43453">
        <ele>815</ele>
        <time>2019-11-23T08:50:29Z</time>
      </trkpt>
      <trkpt lat="44.37138" lon="3.43464">
        <ele>811</ele>
        <time>2019-11-23T08:50:32Z</time>
      </trkpt>
      <trkpt lat="44.37136" lon="3.43484">
        <ele>815</ele>
        <time>2019-11-23T08:50:35Z</time>
      </trkpt>
      <trkpt lat="44.37133" lon="3.43491">
        <ele>814</ele>
        <time>2019-11-23T08:50:37Z</time>
      </trkpt>
      <trkpt lat="44.37124" lon="3.435">
        <ele>809</ele>
        <time>2019-11-23T08:50:39Z</time>
      </trkpt>
      <trkpt lat="44.37114" lon="3.43519">
        <ele>804</ele>
        <time>2019-11-23T08:50:43Z</time>
      </trkpt>
      <trkpt lat="44.37105" lon="3.43579">
        <ele>808</ele>
        <time>2019-11-23T08:50:53Z</time>
      </trkpt>
      <trkpt lat="44.37112" lon="3.43651">
        <ele>821</ele>
        <time>2019-11-23T08:51:06Z</time>
      </trkpt>
      <trkpt lat="44.37109" lon="3.43672">
        <ele>821</ele>
        <time>2019-11-23T08:51:09Z</time>
      </trkpt>
      <trkpt lat="44.37112" lon="3.43719">
        <ele>828</ele>
        <time>2019-11-23T08:51:17Z</time>
      </trkpt>
      <trkpt lat="44.37122" lon="3.43742">
        <ele>833</ele>
        <time>2019-11-23T08:51:22Z</time>
      </trkpt>
      <trkpt lat="44.37126" lon="3.43758">
        <ele>835</ele>
        <time>2019-11-23T08:51:24Z</time>
      </trkpt>
      <trkpt lat="44.37124" lon="3.4376">
        <ele>835</ele>
        <time>2019-11-23T08:51:25Z</time>
      </trkpt>
      <trkpt lat="44.37125" lon="3.43765">
        <ele>836</ele>
        <time>2019-11-23T08:51:26Z</time>
      </trkpt>
      <trkpt lat="44.3712" lon="3.43774">
        <ele>837</ele>
        <time>2019-11-23T08:51:28Z</time>
      </trkpt>
      <trkpt lat="44.37098" lon="3.4379">
        <ele>837</ele>
        <time>2019-11-23T08:51:33Z</time>
      </trkpt>
      <trkpt lat="44.37069" lon="3.43791">
        <ele>838</ele>
        <time>2019-11-23T08:51:40Z</time>
      </trkpt>
      <trkpt lat="44.3705" lon="3.4378">
        <ele>836</ele>
        <time>2019-11-23T08:51:45Z</time>
      </trkpt>
      <trkpt lat="44.37023" lon="3.43775">
        <ele>836</ele>
        <time>2019-11-23T08:51:51Z</time>
      </trkpt>
      <trkpt lat="44.37013" lon="3.43767">
        <ele>834</ele>
        <time>2019-11-23T08:51:54Z</time>
      </trkpt>
      <trkpt lat="44.37" lon="3.43765">
        <ele>833</ele>
        <time>2019-11-23T08:51:57Z</time>
      </trkpt>
      <trkpt lat="44.36972" lon="3.43745">
        <ele>823</ele>
        <time>2019-11-23T08:52:04Z</time>
      </trkpt>
      <trkpt lat="44.36967" lon="3.43734">
        <ele>818</ele>
        <time>2019-11-23T08:52:07Z</time>
      </trkpt>
      <trkpt lat="44.36959" lon="3.4373">
        <ele>815</ele>
        <time>2019-11-23T08:52:09Z</time>
      </trkpt>
      <trkpt lat="44.36944" lon="3.43733">
        <ele>816</ele>
        <time>2019-11-23T08:52:12Z</time>
      </trkpt>
      <trkpt lat="44.36934" lon="3.43732">
        <ele>815</ele>
        <time>2019-11-23T08:52:15Z</time>
      </trkpt>
      <trkpt lat="44.36923" lon="3.43738">
        <ele>817</ele>
        <time>2019-11-23T08:52:17Z</time>
      </trkpt>
      <trkpt lat="44.3692" lon="3.43734">
        <ele>815</ele>
        <time>2019-11-23T08:52:18Z</time>
      </trkpt>
      <trkpt lat="44.36921" lon="3.43732">
        <ele>814</ele>
        <time>2019-11-23T08:52:19Z</time>
      </trkpt>
      <trkpt lat="44.36913" lon="3.43736">
        <ele>814</ele>
        <time>2019-11-23T08:52:21Z</time>
      </trkpt>
      <trkpt lat="44.36894" lon="3.43758">
        <ele>813</ele>
        <time>2019-11-23T08:52:26Z</time>
      </trkpt>
      <trkpt lat="44.36874" lon="3.43775">
        <ele>810</ele>
        <time>2019-11-23T08:52:32Z</time>
      </trkpt>
      <trkpt lat="44.3686" lon="3.43804">
        <ele>817</ele>
        <time>2019-11-23T08:52:38Z</time>
      </trkpt>
      <trkpt lat="44.36846" lon="3.43819">
        <ele>818</ele>
        <time>2019-11-23T08:52:42Z</time>
      </trkpt>
      <trkpt lat="44.36836" lon="3.43826">
        <ele>817</ele>
        <time>2019-11-23T08:52:44Z</time>
      </trkpt>
      <trkpt lat="44.36829" lon="3.43839">
        <ele>820</ele>
        <time>2019-11-23T08:52:47Z</time>
      </trkpt>
      <trkpt lat="44.36815" lon="3.43849">
        <ele>817</ele>
        <time>2019-11-23T08:52:51Z</time>
      </trkpt>
      <trkpt lat="44.36798" lon="3.43867">
        <ele>815</ele>
        <time>2019-11-23T08:52:56Z</time>
      </trkpt>
      <trkpt lat="44.36788" lon="3.43867">
        <ele>810</ele>
        <time>2019-11-23T08:52:58Z</time>
      </trkpt>
      <trkpt lat="44.36763" lon="3.43879">
        <ele>803</ele>
        <time>2019-11-23T08:53:04Z</time>
      </trkpt>
      <trkpt lat="44.36752" lon="3.4388">
        <ele>798</ele>
        <time>2019-11-23T08:53:07Z</time>
      </trkpt>
      <trkpt lat="44.36737" lon="3.43891">
        <ele>795</ele>
        <time>2019-11-23T08:53:11Z</time>
      </trkpt>
      <trkpt lat="44.36721" lon="3.43931">
        <ele>806</ele>
        <time>2019-11-23T08:53:19Z</time>
      </trkpt>
      <trkpt lat="44.36714" lon="3.43939">
        <ele>807</ele>
        <time>2019-11-23T08:53:21Z</time>
      </trkpt>
      <trkpt lat="44.36708" lon="3.43958">
        <ele>813</ele>
        <time>2019-11-23T08:53:24Z</time>
      </trkpt>
      <trkpt lat="44.36694" lon="3.43983">
        <ele>819</ele>
        <time>2019-11-23T08:53:29Z</time>
      </trkpt>
      <trkpt lat="44.36689" lon="3.43989">
        <ele>819</ele>
        <time>2019-11-23T08:53:31Z</time>
      </trkpt>
      <trkpt lat="44.36675" lon="3.43997">
        <ele>817</ele>
        <time>2019-11-23T08:53:34Z</time>
      </trkpt>
      <trkpt lat="44.36669" lon="3.44007">
        <ele>820</ele>
        <time>2019-11-23T08:53:37Z</time>
      </trkpt>
      <trkpt lat="44.36662" lon="3.44009">
        <ele>820</ele>
        <time>2019-11-23T08:53:38Z</time>
      </trkpt>
      <trkpt lat="44.36651" lon="3.44006">
        <ele>817</ele>
        <time>2019-11-23T08:53:41Z</time>
      </trkpt>
      <trkpt lat="44.36638" lon="3.43994">
        <ele>809</ele>
        <time>2019-11-23T08:53:45Z</time>
      </trkpt>
      <trkpt lat="44.36606" lon="3.43993">
        <ele>805</ele>
        <time>2019-11-23T08:53:52Z</time>
      </trkpt>
      <trkpt lat="44.3658" lon="3.43997">
        <ele>804</ele>
        <time>2019-11-23T08:53:58Z</time>
      </trkpt>
      <trkpt lat="44.36575" lon="3.44">
        <ele>805</ele>
        <time>2019-11-23T08:53:59Z</time>
      </trkpt>
      <trkpt lat="44.36559" lon="3.44">
        <ele>802</ele>
        <time>2019-11-23T08:54:03Z</time>
      </trkpt>
      <trkpt lat="44.36552" lon="3.44003">
        <ele>803</ele>
        <time>2019-11-23T08:54:05Z</time>
      </trkpt>
      <trkpt lat="44.36525" lon="3.44027">
        <ele>810</ele>
        <time>2019-11-23T08:54:12Z</time>
      </trkpt>
      <trkpt lat="44.36506" lon="3.44031">
        <ele>809</ele>
        <time>2019-11-23T08:54:17Z</time>
      </trkpt>
      <trkpt lat="44.36498" lon="3.44035">
        <ele>810</ele>
        <time>2019-11-23T08:54:19Z</time>
      </trkpt>
      <trkpt lat="44.3649" lon="3.44031">
        <ele>807</ele>
        <time>2019-11-23T08:54:21Z</time>
      </trkpt>
      <trkpt lat="44.36493" lon="3.4403">
        <ele>807</ele>
        <time>2019-11-23T08:54:22Z</time>
      </trkpt>
      <trkpt lat="44.36489" lon="3.44032">
        <ele>807</ele>
        <time>2019-11-23T08:54:23Z</time>
      </trkpt>
      <trkpt lat="44.36484" lon="3.44031">
        <ele>806</ele>
        <time>2019-11-23T08:54:24Z</time>
      </trkpt>
      <trkpt lat="44.36463" lon="3.44016">
        <ele>795</ele>
        <time>2019-11-23T08:54:29Z</time>
      </trkpt>
      <trkpt lat="44.36445" lon="3.44011">
        <ele>790</ele>
        <time>2019-11-23T08:54:33Z</time>
      </trkpt>
      <trkpt lat="44.36428" lon="3.4401">
        <ele>787</ele>
        <time>2019-11-23T08:54:37Z</time>
      </trkpt>
      <trkpt lat="44.36415" lon="3.44015">
        <ele>787</ele>
        <time>2019-11-23T08:54:41Z</time>
      </trkpt>
      <trkpt lat="44.36404" lon="3.44016">
        <ele>785</ele>
        <time>2019-11-23T08:54:43Z</time>
      </trkpt>
      <trkpt lat="44.36393" lon="3.44024">
        <ele>787</ele>
        <time>2019-11-23T08:54:46Z</time>
      </trkpt>
      <trkpt lat="44.36385" lon="3.44025">
        <ele>785</ele>
        <time>2019-11-23T08:54:48Z</time>
      </trkpt>
      <trkpt lat="44.36382" lon="3.44023">
        <ele>784</ele>
        <time>2019-11-23T08:54:49Z</time>
      </trkpt>
      <trkpt lat="44.36367" lon="3.44024">
        <ele>781</ele>
        <time>2019-11-23T08:54:52Z</time>
      </trkpt>
      <trkpt lat="44.36361" lon="3.44022">
        <ele>779</ele>
        <time>2019-11-23T08:54:54Z</time>
      </trkpt>
      <trkpt lat="44.36356" lon="3.44024">
        <ele>778</ele>
        <time>2019-11-23T08:54:55Z</time>
      </trkpt>
      <trkpt lat="44.36342" lon="3.44021">
        <ele>774</ele>
        <time>2019-11-23T08:54:58Z</time>
      </trkpt>
      <trkpt lat="44.36327" lon="3.44008">
        <ele>764</ele>
        <time>2019-11-23T08:55:02Z</time>
      </trkpt>
      <trkpt lat="44.36299" lon="3.44006">
        <ele>755</ele>
        <time>2019-11-23T08:55:09Z</time>
      </trkpt>
      <trkpt lat="44.36282" lon="3.44011">
        <ele>752</ele>
        <time>2019-11-23T08:55:13Z</time>
      </trkpt>
      <trkpt lat="44.36272" lon="3.4401">
        <ele>749</ele>
        <time>2019-11-23T08:55:15Z</time>
      </trkpt>
      <trkpt lat="44.36264" lon="3.44012">
        <ele>748</ele>
        <time>2019-11-23T08:55:17Z</time>
      </trkpt>
      <trkpt lat="44.36242" lon="3.44031">
        <ele>745</ele>
        <time>2019-11-23T08:55:23Z</time>
      </trkpt>
      <trkpt lat="44.36227" lon="3.44036">
        <ele>739</ele>
        <time>2019-11-23T08:55:27Z</time>
      </trkpt>
      <trkpt lat="44.36214" lon="3.44044">
        <ele>734</ele>
        <time>2019-11-23T08:55:30Z</time>
      </trkpt>
      <trkpt lat="44.36212" lon="3.44049">
        <ele>734</ele>
        <time>2019-11-23T08:55:31Z</time>
      </trkpt>
      <trkpt lat="44.36214" lon="3.44067">
        <ele>738</ele>
        <time>2019-11-23T08:55:34Z</time>
      </trkpt>
      <trkpt lat="44.36219" lon="3.4408">
        <ele>744</ele>
        <time>2019-11-23T08:55:37Z</time>
      </trkpt>
      <trkpt lat="44.36223" lon="3.44118">
        <ele>745</ele>
        <time>2019-11-23T08:55:43Z</time>
      </trkpt>
      <trkpt lat="44.36221" lon="3.44149">
        <ele>741</ele>
        <time>2019-11-23T08:55:48Z</time>
      </trkpt>
      <trkpt lat="44.36224" lon="3.44169">
        <ele>742</ele>
        <time>2019-11-23T08:55:52Z</time>
      </trkpt>
      <trkpt lat="44.36221" lon="3.44197">
        <ele>738</ele>
        <time>2019-11-23T08:55:56Z</time>
      </trkpt>
      <trkpt lat="44.36216" lon="3.44205">
        <ele>734</ele>
        <time>2019-11-23T08:55:58Z</time>
      </trkpt>
      <trkpt lat="44.36208" lon="3.44229">
        <ele>725</ele>
        <time>2019-11-23T08:56:03Z</time>
      </trkpt>
      <trkpt lat="44.36207" lon="3.4425">
        <ele>723</ele>
        <time>2019-11-23T08:56:06Z</time>
      </trkpt>
      <trkpt lat="44.36221" lon="3.44281">
        <ele>728</ele>
        <time>2019-11-23T08:56:12Z</time>
      </trkpt>
      <trkpt lat="44.36224" lon="3.44299">
        <ele>727</ele>
        <time>2019-11-23T08:56:15Z</time>
      </trkpt>
      <trkpt lat="44.36229" lon="3.44308">
        <ele>729</ele>
        <time>2019-11-23T08:56:17Z</time>
      </trkpt>
      <trkpt lat="44.36242" lon="3.44319">
        <ele>739</ele>
        <time>2019-11-23T08:56:21Z</time>
      </trkpt>
      <trkpt lat="44.36252" lon="3.4434">
        <ele>744</ele>
        <time>2019-11-23T08:56:25Z</time>
      </trkpt>
      <trkpt lat="44.36257" lon="3.44354">
        <ele>745</ele>
        <time>2019-11-23T08:56:28Z</time>
      </trkpt>
      <trkpt lat="44.36255" lon="3.44377">
        <ele>741</ele>
        <time>2019-11-23T08:56:31Z</time>
      </trkpt>
      <trkpt lat="44.3624" lon="3.44422">
        <ele>726</ele>
        <time>2019-11-23T08:56:40Z</time>
      </trkpt>
      <trkpt lat="44.36237" lon="3.44422">
        <ele>723</ele>
        <time>2019-11-23T08:56:40Z</time>
      </trkpt>
      <trkpt lat="44.36224" lon="3.44437">
        <ele>715</ele>
        <time>2019-11-23T08:56:44Z</time>
      </trkpt>
      <trkpt lat="44.3622" lon="3.44436">
        <ele>711</ele>
        <time>2019-11-23T08:56:45Z</time>
      </trkpt>
      <trkpt lat="44.36209" lon="3.44441">
        <ele>702</ele>
        <time>2019-11-23T08:56:48Z</time>
      </trkpt>
      <trkpt lat="44.36202" lon="3.4445">
        <ele>698</ele>
        <time>2019-11-23T08:56:50Z</time>
      </trkpt>
      <trkpt lat="44.36188" lon="3.44472">
        <ele>691</ele>
        <time>2019-11-23T08:56:55Z</time>
      </trkpt>
      <trkpt lat="44.36167" lon="3.44524">
        <ele>687</ele>
        <time>2019-11-23T08:57:05Z</time>
      </trkpt>
      <trkpt lat="44.36164" lon="3.44526">
        <ele>685</ele>
        <time>2019-11-23T08:57:06Z</time>
      </trkpt>
      <trkpt lat="44.36159" lon="3.4455">
        <ele>689</ele>
        <time>2019-11-23T08:57:10Z</time>
      </trkpt>
      <trkpt lat="44.3615" lon="3.4456">
        <ele>684</ele>
        <time>2019-11-23T08:57:13Z</time>
      </trkpt>
      <trkpt lat="44.36143" lon="3.44579">
        <ele>683</ele>
        <time>2019-11-23T08:57:16Z</time>
      </trkpt>
      <trkpt lat="44.36132" lon="3.44635">
        <ele>683</ele>
        <time>2019-11-23T08:57:26Z</time>
      </trkpt>
      <trkpt lat="44.36127" lon="3.44643">
        <ele>680</ele>
        <time>2019-11-23T08:57:28Z</time>
      </trkpt>
      <trkpt lat="44.36109" lon="3.44661">
        <ele>668</ele>
        <time>2019-11-23T08:57:33Z</time>
      </trkpt>
      <trkpt lat="44.36103" lon="3.44676">
        <ele>665</ele>
        <time>2019-11-23T08:57:36Z</time>
      </trkpt>
      <trkpt lat="44.36101" lon="3.44684">
        <ele>664</ele>
        <time>2019-11-23T08:57:37Z</time>
      </trkpt>
      <trkpt lat="44.36102" lon="3.44698">
        <ele>665</ele>
        <time>2019-11-23T08:57:40Z</time>
      </trkpt>
      <trkpt lat="44.36106" lon="3.44709">
        <ele>668</ele>
        <time>2019-11-23T08:57:42Z</time>
      </trkpt>
      <trkpt lat="44.36109" lon="3.44731">
        <ele>671</ele>
        <time>2019-11-23T08:57:45Z</time>
      </trkpt>
      <trkpt lat="44.36099" lon="3.44751">
        <ele>665</ele>
        <time>2019-11-23T08:57:49Z</time>
      </trkpt>
      <trkpt lat="44.36093" lon="3.44756">
        <ele>662</ele>
        <time>2019-11-23T08:57:51Z</time>
      </trkpt>
      <trkpt lat="44.36086" lon="3.44767">
        <ele>660</ele>
        <time>2019-11-23T08:57:54Z</time>
      </trkpt>
      <trkpt lat="44.36078" lon="3.44785">
        <ele>659</ele>
        <time>2019-11-23T08:57:57Z</time>
      </trkpt>
      <trkpt lat="44.36067" lon="3.44802">
        <ele>658</ele>
        <time>2019-11-23T08:58:01Z</time>
      </trkpt>
      <trkpt lat="44.36042" lon="3.44828">
        <ele>652</ele>
        <time>2019-11-23T08:58:08Z</time>
      </trkpt>
      <trkpt lat="44.36031" lon="3.44851">
        <ele>656</ele>
        <time>2019-11-23T08:58:13Z</time>
      </trkpt>
      <trkpt lat="44.36009" lon="3.44869">
        <ele>655</ele>
        <time>2019-11-23T08:58:19Z</time>
      </trkpt>
      <trkpt lat="44.35975" lon="3.44874">
        <ele>648</ele>
        <time>2019-11-23T08:58:27Z</time>
      </trkpt>
      <trkpt lat="44.35966" lon="3.4488">
        <ele>650</ele>
        <time>2019-11-23T08:58:29Z</time>
      </trkpt>
      <trkpt lat="44.35949" lon="3.44903">
        <ele>659</ele>
        <time>2019-11-23T08:58:35Z</time>
      </trkpt>
      <trkpt lat="44.35926" lon="3.44918">
        <ele>662</ele>
        <time>2019-11-23T08:58:40Z</time>
      </trkpt>
      <trkpt lat="44.3592" lon="3.4492">
        <ele>662</ele>
        <time>2019-11-23T08:58:42Z</time>
      </trkpt>
      <trkpt lat="44.35895" lon="3.44911">
        <ele>649</ele>
        <time>2019-11-23T08:58:48Z</time>
      </trkpt>
      <trkpt lat="44.35864" lon="3.4492">
        <ele>642</ele>
        <time>2019-11-23T08:58:55Z</time>
      </trkpt>
      <trkpt lat="44.35852" lon="3.44929">
        <ele>641</ele>
        <time>2019-11-23T08:58:59Z</time>
      </trkpt>
      <trkpt lat="44.3584" lon="3.4495">
        <ele>646</ele>
        <time>2019-11-23T08:59:03Z</time>
      </trkpt>
      <trkpt lat="44.3582" lon="3.44961">
        <ele>645</ele>
        <time>2019-11-23T08:59:08Z</time>
      </trkpt>
      <trkpt lat="44.35805" lon="3.44966">
        <ele>645</ele>
        <time>2019-11-23T08:59:12Z</time>
      </trkpt>
      <trkpt lat="44.3578" lon="3.44971">
        <ele>642</ele>
        <time>2019-11-23T08:59:18Z</time>
      </trkpt>
      <trkpt lat="44.35765" lon="3.44969">
        <ele>638</ele>
        <time>2019-11-23T08:59:21Z</time>
      </trkpt>
      <trkpt lat="44.35724" lon="3.44952">
        <ele>624</ele>
        <time>2019-11-23T08:59:31Z</time>
      </trkpt>
      <trkpt lat="44.35705" lon="3.44953">
        <ele>623</ele>
        <time>2019-11-23T08:59:35Z</time>
      </trkpt>
      <trkpt lat="44.35696" lon="3.44951">
        <ele>621</ele>
        <time>2019-11-23T08:59:38Z</time>
      </trkpt>
      <trkpt lat="44.35678" lon="3.44938">
        <ele>614</ele>
        <time>2019-11-23T08:59:42Z</time>
      </trkpt>
      <trkpt lat="44.35667" lon="3.44935">
        <ele>612</ele>
        <time>2019-11-23T08:59:45Z</time>
      </trkpt>
      <trkpt lat="44.35658" lon="3.44924">
        <ele>605</ele>
        <time>2019-11-23T08:59:48Z</time>
      </trkpt>
      <trkpt lat="44.35654" lon="3.44923">
        <ele>604</ele>
        <time>2019-11-23T08:59:49Z</time>
      </trkpt>
      <trkpt lat="44.35634" lon="3.44903">
        <ele>592</ele>
        <time>2019-11-23T08:59:54Z</time>
      </trkpt>
      <trkpt lat="44.35594" lon="3.44893">
        <ele>582</ele>
        <time>2019-11-23T09:00:04Z</time>
      </trkpt>
      <trkpt lat="44.35538" lon="3.449">
        <ele>570</ele>
        <time>2019-11-23T09:00:17Z</time>
      </trkpt>
      <trkpt lat="44.3553" lon="3.44904">
        <ele>569</ele>
        <time>2019-11-23T09:00:19Z</time>
      </trkpt>
      <trkpt lat="44.35515" lon="3.44924">
        <ele>568</ele>
        <time>2019-11-23T09:00:24Z</time>
      </trkpt>
      <trkpt lat="44.35495" lon="3.44935">
        <ele>561</ele>
        <time>2019-11-23T09:00:29Z</time>
      </trkpt>
      <trkpt lat="44.3548" lon="3.4495">
        <ele>552</ele>
        <time>2019-11-23T09:00:33Z</time>
      </trkpt>
      <trkpt lat="44.35478" lon="3.44955">
        <ele>551</ele>
        <time>2019-11-23T09:00:34Z</time>
      </trkpt>
      <trkpt lat="44.35479" lon="3.44965">
        <ele>551</ele>
        <time>2019-11-23T09:00:36Z</time>
      </trkpt>
      <trkpt lat="44.35484" lon="3.44976">
        <ele>554</ele>
        <time>2019-11-23T09:00:38Z</time>
      </trkpt>
      <trkpt lat="44.35491" lon="3.45026">
        <ele>557</ele>
        <time>2019-11-23T09:00:47Z</time>
      </trkpt>
      <trkpt lat="44.35501" lon="3.45056">
        <ele>563</ele>
        <time>2019-11-23T09:00:52Z</time>
      </trkpt>
      <trkpt lat="44.35505" lon="3.45102">
        <ele>569</ele>
        <time>2019-11-23T09:01:00Z</time>
      </trkpt>
      <trkpt lat="44.35501" lon="3.45119">
        <ele>568</ele>
        <time>2019-11-23T09:01:03Z</time>
      </trkpt>
      <trkpt lat="44.355" lon="3.45142">
        <ele>570</ele>
        <time>2019-11-23T09:01:07Z</time>
      </trkpt>
      <trkpt lat="44.35496" lon="3.45147">
        <ele>568</ele>
        <time>2019-11-23T09:01:08Z</time>
      </trkpt>
      <trkpt lat="44.35484" lon="3.45182">
        <ele>562</ele>
        <time>2019-11-23T09:01:14Z</time>
      </trkpt>
      <trkpt lat="44.35483" lon="3.4521">
        <ele>565</ele>
        <time>2019-11-23T09:01:19Z</time>
      </trkpt>
      <trkpt lat="44.35472" lon="3.45287">
        <ele>567</ele>
        <time>2019-11-23T09:01:32Z</time>
      </trkpt>
      <trkpt lat="44.35473" lon="3.45295">
        <ele>569</ele>
        <time>2019-11-23T09:01:34Z</time>
      </trkpt>
      <trkpt lat="44.35468" lon="3.45311">
        <ele>567</ele>
        <time>2019-11-23T09:01:36Z</time>
      </trkpt>
      <trkpt lat="44.35465" lon="3.45338">
        <ele>569</ele>
        <time>2019-11-23T09:01:41Z</time>
      </trkpt>
      <trkpt lat="44.3546" lon="3.45356">
        <ele>569</ele>
        <time>2019-11-23T09:01:44Z</time>
      </trkpt>
      <trkpt lat="44.35436" lon="3.45391">
        <ele>558</ele>
        <time>2019-11-23T09:01:52Z</time>
      </trkpt>
      <trkpt lat="44.35423" lon="3.45427">
        <ele>555</ele>
        <time>2019-11-23T09:01:59Z</time>
      </trkpt>
      <trkpt lat="44.35412" lon="3.45447">
        <ele>551</ele>
        <time>2019-11-23T09:02:03Z</time>
      </trkpt>
      <trkpt lat="44.35409" lon="3.45465">
        <ele>552</ele>
        <time>2019-11-23T09:02:06Z</time>
      </trkpt>
      <trkpt lat="44.3541" lon="3.45488">
        <ele>556</ele>
        <time>2019-11-23T09:02:10Z</time>
      </trkpt>
      <trkpt lat="44.35403" lon="3.45514">
        <ele>555</ele>
        <time>2019-11-23T09:02:15Z</time>
      </trkpt>
      <trkpt lat="44.35384" lon="3.45543">
        <ele>548</ele>
        <time>2019-11-23T09:02:21Z</time>
      </trkpt>
      <trkpt lat="44.35368" lon="3.45574">
        <ele>544</ele>
        <time>2019-11-23T09:02:28Z</time>
      </trkpt>
      <trkpt lat="44.35363" lon="3.45596">
        <ele>544</ele>
        <time>2019-11-23T09:02:32Z</time>
      </trkpt>
      <trkpt lat="44.35366" lon="3.45613">
        <ele>546</ele>
        <time>2019-11-23T09:02:35Z</time>
      </trkpt>
      <trkpt lat="44.35366" lon="3.45633">
        <ele>548</ele>
        <time>2019-11-23T09:02:38Z</time>
      </trkpt>
      <trkpt lat="44.35363" lon="3.45645">
        <ele>548</ele>
        <time>2019-11-23T09:02:40Z</time>
      </trkpt>
      <trkpt lat="44.35347" lon="3.45633">
        <ele>541</ele>
        <time>2019-11-23T09:02:44Z</time>
      </trkpt>
      <trkpt lat="44.35366" lon="3.45574">
        <ele>543</ele>
        <time>2019-11-23T09:02:55Z</time>
      </trkpt>
      <trkpt lat="44.35373" lon="3.45547">
        <ele>543</ele>
        <time>2019-11-23T09:03:00Z</time>
      </trkpt>
      <trkpt lat="44.3538" lon="3.45503">
        <ele>542</ele>
        <time>2019-11-23T09:03:07Z</time>
      </trkpt>
      <trkpt lat="44.35393" lon="3.45457">
        <ele>542</ele>
        <time>2019-11-23T09:03:16Z</time>
      </trkpt>
      <trkpt lat="44.35429" lon="3.45345">
        <ele>544</ele>
        <time>2019-11-23T09:03:36Z</time>
      </trkpt>
      <trkpt lat="44.35438" lon="3.45302">
        <ele>542</ele>
        <time>2019-11-23T09:03:44Z</time>
      </trkpt>
      <trkpt lat="44.35444" lon="3.45216">
        <ele>532</ele>
        <time>2019-11-23T09:03:58Z</time>
      </trkpt>
      <trkpt lat="44.35466" lon="3.45109">
        <ele>539</ele>
        <time>2019-11-23T09:04:17Z</time>
      </trkpt>
      <trkpt lat="44.3546" lon="3.45022">
        <ele>537</ele>
        <time>2019-11-23T09:04:31Z</time>
      </trkpt>
      <trkpt lat="44.35439" lon="3.44955">
        <ele>529</ele>
        <time>2019-11-23T09:04:43Z</time>
      </trkpt>
      <trkpt lat="44.35422" lon="3.44919">
        <ele>524</ele>
        <time>2019-11-23T09:04:51Z</time>
      </trkpt>
      <trkpt lat="44.35417" lon="3.44903">
        <ele>521</ele>
        <time>2019-11-23T09:04:54Z</time>
      </trkpt>
      <trkpt lat="44.35416" lon="3.4489">
        <ele>519</ele>
        <time>2019-11-23T09:04:56Z</time>
      </trkpt>
      <trkpt lat="44.35419" lon="3.44876">
        <ele>519</ele>
        <time>2019-11-23T09:04:58Z</time>
      </trkpt>
      <trkpt lat="44.3543" lon="3.4486">
        <ele>522</ele>
        <time>2019-11-23T09:05:02Z</time>
      </trkpt>
      <trkpt lat="44.35446" lon="3.44844">
        <ele>525</ele>
        <time>2019-11-23T09:05:07Z</time>
      </trkpt>
      <trkpt lat="44.35481" lon="3.44819">
        <ele>529</ele>
        <time>2019-11-23T09:05:16Z</time>
      </trkpt>
      <trkpt lat="44.35522" lon="3.44795">
        <ele>526</ele>
        <time>2019-11-23T09:05:26Z</time>
      </trkpt>
      <trkpt lat="44.35549" lon="3.44783">
        <ele>524</ele>
        <time>2019-11-23T09:05:33Z</time>
      </trkpt>
      <trkpt lat="44.35633" lon="3.44758">
        <ele>520</ele>
        <time>2019-11-23T09:05:53Z</time>
      </trkpt>
      <trkpt lat="44.35657" lon="3.44753">
        <ele>520</ele>
        <time>2019-11-23T09:05:58Z</time>
      </trkpt>
      <trkpt lat="44.35687" lon="3.44751">
        <ele>522</ele>
        <time>2019-11-23T09:06:05Z</time>
      </trkpt>
      <trkpt lat="44.35725" lon="3.44753">
        <ele>527</ele>
        <time>2019-11-23T09:06:14Z</time>
      </trkpt>
      <trkpt lat="44.35735" lon="3.44751">
        <ele>528</ele>
        <time>2019-11-23T09:06:17Z</time>
      </trkpt>
      <trkpt lat="44.35775" lon="3.44725">
        <ele>521</ele>
        <time>2019-11-23T09:06:27Z</time>
      </trkpt>
      <trkpt lat="44.35828" lon="3.44713">
        <ele>522</ele>
        <time>2019-11-23T09:06:40Z</time>
      </trkpt>
      <trkpt lat="44.35872" lon="3.44696">
        <ele>529</ele>
        <time>2019-11-23T09:06:50Z</time>
      </trkpt>
      <trkpt lat="44.35884" lon="3.44684">
        <ele>528</ele>
        <time>2019-11-23T09:06:54Z</time>
      </trkpt>
      <trkpt lat="44.35925" lon="3.44608">
        <ele>518</ele>
        <time>2019-11-23T09:07:10Z</time>
      </trkpt>
      <trkpt lat="44.35948" lon="3.44581">
        <ele>523</ele>
        <time>2019-11-23T09:07:17Z</time>
      </trkpt>
      <trkpt lat="44.35955" lon="3.44569">
        <ele>525</ele>
        <time>2019-11-23T09:07:19Z</time>
      </trkpt>
      <trkpt lat="44.35988" lon="3.44464">
        <ele>524</ele>
        <time>2019-11-23T09:07:38Z</time>
      </trkpt>
      <trkpt lat="44.35993" lon="3.44373">
        <ele>522</ele>
        <time>2019-11-23T09:07:53Z</time>
      </trkpt>
      <trkpt lat="44.35992" lon="3.44345">
        <ele>523</ele>
        <time>2019-11-23T09:07:58Z</time>
      </trkpt>
      <trkpt lat="44.35989" lon="3.44323">
        <ele>523</ele>
        <time>2019-11-23T09:08:02Z</time>
      </trkpt>
      <trkpt lat="44.35981" lon="3.44297">
        <ele>523</ele>
        <time>2019-11-23T09:08:07Z</time>
      </trkpt>
      <trkpt lat="44.35912" lon="3.44151">
        <ele>516</ele>
        <time>2019-11-23T09:08:36Z</time>
      </trkpt>
      <trkpt lat="44.35863" lon="3.4408">
        <ele>507</ele>
        <time>2019-11-23T09:08:52Z</time>
      </trkpt>
      <trkpt lat="44.35848" lon="3.4405">
        <ele>505</ele>
        <time>2019-11-23T09:08:58Z</time>
      </trkpt>
      <trkpt lat="44.35804" lon="3.43947">
        <ele>501</ele>
        <time>2019-11-23T09:09:18Z</time>
      </trkpt>
      <trkpt lat="44.35795" lon="3.43913">
        <ele>501</ele>
        <time>2019-11-23T09:09:25Z</time>
      </trkpt>
      <trkpt lat="44.35785" lon="3.43857">
        <ele>499</ele>
        <time>2019-11-23T09:09:34Z</time>
      </trkpt>
      <trkpt lat="44.3578" lon="3.43784">
        <ele>497</ele>
        <time>2019-11-23T09:09:46Z</time>
      </trkpt>
      <trkpt lat="44.35784" lon="3.43749">
        <ele>498</ele>
        <time>2019-11-23T09:09:52Z</time>
      </trkpt>
      <trkpt lat="44.35792" lon="3.43714">
        <ele>497</ele>
        <time>2019-11-23T09:09:58Z</time>
      </trkpt>
      <trkpt lat="44.35798" lon="3.43701">
        <ele>497</ele>
        <time>2019-11-23T09:10:01Z</time>
      </trkpt>
      <trkpt lat="44.35807" lon="3.43709">
        <ele>501</ele>
        <time>2019-11-23T09:10:04Z</time>
      </trkpt>
      <trkpt lat="44.35798" lon="3.43701">
        <ele>497</ele>
        <time>2019-11-23T09:10:06Z</time>
      </trkpt>
      <trkpt lat="44.35806" lon="3.43684">
        <ele>496</ele>
        <time>2019-11-23T09:10:09Z</time>
      </trkpt>
      <trkpt lat="44.35824" lon="3.43655">
        <ele>495</ele>
        <time>2019-11-23T09:10:16Z</time>
      </trkpt>
      <trkpt lat="44.35851" lon="3.43626">
        <ele>494</ele>
        <time>2019-11-23T09:10:24Z</time>
      </trkpt>
      <trkpt lat="44.3588" lon="3.43604">
        <ele>493</ele>
        <time>2019-11-23T09:10:32Z</time>
      </trkpt>
      <trkpt lat="44.35909" lon="3.43587">
        <ele>491</ele>
        <time>2019-11-23T09:10:39Z</time>
      </trkpt>
      <trkpt lat="44.35995" lon="3.43558">
        <ele>491</ele>
        <time>2019-11-23T09:11:00Z</time>
      </trkpt>
      <trkpt lat="44.36029" lon="3.4355">
        <ele>491</ele>
        <time>2019-11-23T09:11:08Z</time>
      </trkpt>
      <trkpt lat="44.36071" lon="3.43545">
        <ele>493</ele>
        <time>2019-11-23T09:11:17Z</time>
      </trkpt>
      <trkpt lat="44.36342" lon="3.43528">
        <ele>491</ele>
        <time>2019-11-23T09:12:21Z</time>
      </trkpt>
      <trkpt lat="44.36377" lon="3.43523">
        <ele>491</ele>
        <time>2019-11-23T09:12:29Z</time>
      </trkpt>
      <trkpt lat="44.36416" lon="3.43514">
        <ele>488</ele>
        <time>2019-11-23T09:12:38Z</time>
      </trkpt>
      <trkpt lat="44.36478" lon="3.43495">
        <ele>490</ele>
        <time>2019-11-23T09:12:53Z</time>
      </trkpt>
      <trkpt lat="44.36511" lon="3.43478">
        <ele>493</ele>
        <time>2019-11-23T09:13:01Z</time>
      </trkpt>
      <trkpt lat="44.36543" lon="3.43456">
        <ele>499</ele>
        <time>2019-11-23T09:13:10Z</time>
      </trkpt>
      <trkpt lat="44.36562" lon="3.43441">
        <ele>500</ele>
        <time>2019-11-23T09:13:15Z</time>
      </trkpt>
      <trkpt lat="44.36579" lon="3.43422">
        <ele>498</ele>
        <time>2019-11-23T09:13:20Z</time>
      </trkpt>
      <trkpt lat="44.36599" lon="3.43395">
        <ele>500</ele>
        <time>2019-11-23T09:13:26Z</time>
      </trkpt>
      <trkpt lat="44.36645" lon="3.43319">
        <ele>495</ele>
        <time>2019-11-23T09:13:43Z</time>
      </trkpt>
      <trkpt lat="44.36676" lon="3.43241">
        <ele>486</ele>
        <time>2019-11-23T09:13:58Z</time>
      </trkpt>
      <trkpt lat="44.36681" lon="3.43189">
        <ele>488</ele>
        <time>2019-11-23T09:14:07Z</time>
      </trkpt>
      <trkpt lat="44.36683" lon="3.43128">
        <ele>489</ele>
        <time>2019-11-23T09:14:17Z</time>
      </trkpt>
      <trkpt lat="44.36683" lon="3.43081">
        <ele>490</ele>
        <time>2019-11-23T09:14:25Z</time>
      </trkpt>
      <trkpt lat="44.3668" lon="3.43053">
        <ele>489</ele>
        <time>2019-11-23T09:14:29Z</time>
      </trkpt>
      <trkpt lat="44.36658" lon="3.42962">
        <ele>490</ele>
        <time>2019-11-23T09:14:45Z</time>
      </trkpt>
      <trkpt lat="44.36634" lon="3.4289">
        <ele>496</ele>
        <time>2019-11-23T09:14:59Z</time>
      </trkpt>
      <trkpt lat="44.36622" lon="3.42861">
        <ele>496</ele>
        <time>2019-11-23T09:15:04Z</time>
      </trkpt>
      <trkpt lat="44.36604" lon="3.42833">
        <ele>490</ele>
        <time>2019-11-23T09:15:10Z</time>
      </trkpt>
      <trkpt lat="44.36588" lon="3.42802">
        <ele>489</ele>
        <time>2019-11-23T09:15:17Z</time>
      </trkpt>
      <trkpt lat="44.36556" lon="3.42719">
        <ele>495</ele>
        <time>2019-11-23T09:15:33Z</time>
      </trkpt>
      <trkpt lat="44.3655" lon="3.42688">
        <ele>494</ele>
        <time>2019-11-23T09:15:38Z</time>
      </trkpt>
      <trkpt lat="44.36531" lon="3.42466">
        <ele>494</ele>
        <time>2019-11-23T09:16:15Z</time>
      </trkpt>
      <trkpt lat="44.36531" lon="3.42429">
        <ele>494</ele>
        <time>2019-11-23T09:16:21Z</time>
      </trkpt>
      <trkpt lat="44.36535" lon="3.42394">
        <ele>495</ele>
        <time>2019-11-23T09:16:27Z</time>
      </trkpt>
      <trkpt lat="44.36545" lon="3.42351">
        <ele>494</ele>
        <time>2019-11-23T09:16:35Z</time>
      </trkpt>
      <trkpt lat="44.36593" lon="3.4218">
        <ele>487</ele>
        <time>2019-11-23T09:17:06Z</time>
      </trkpt>
      <trkpt lat="44.36599" lon="3.42147">
        <ele>488</ele>
        <time>2019-11-23T09:17:11Z</time>
      </trkpt>
      <trkpt lat="44.36603" lon="3.42102">
        <ele>490</ele>
        <time>2019-11-23T09:17:19Z</time>
      </trkpt>
      <trkpt lat="44.36617" lon="3.42018">
        <ele>496</ele>
        <time>2019-11-23T09:17:33Z</time>
      </trkpt>
      <trkpt lat="44.36628" lon="3.41908">
        <ele>497</ele>
        <time>2019-11-23T09:17:52Z</time>
      </trkpt>
      <trkpt lat="44.36629" lon="3.4186">
        <ele>495</ele>
        <time>2019-11-23T09:18:00Z</time>
      </trkpt>
      <trkpt lat="44.36625" lon="3.41793">
        <ele>492</ele>
        <time>2019-11-23T09:18:11Z</time>
      </trkpt>
      <trkpt lat="44.36621" lon="3.41621">
        <ele>491</ele>
        <time>2019-11-23T09:18:40Z</time>
      </trkpt>
      <trkpt lat="44.36603" lon="3.41517">
        <ele>485</ele>
        <time>2019-11-23T09:18:58Z</time>
      </trkpt>
      <trkpt lat="44.36604" lon="3.41481">
        <ele>484</ele>
        <time>2019-11-23T09:19:04Z</time>
      </trkpt>
      <trkpt lat="44.36618" lon="3.41387">
        <ele>484</ele>
        <time>2019-11-23T09:19:20Z</time>
      </trkpt>
      <trkpt lat="44.36615" lon="3.41356">
        <ele>482</ele>
        <time>2019-11-23T09:19:25Z</time>
      </trkpt>
      <trkpt lat="44.36592" lon="3.4124">
        <ele>475</ele>
        <time>2019-11-23T09:19:45Z</time>
      </trkpt>
      <trkpt lat="44.36587" lon="3.41231">
        <ele>475</ele>
        <time>2019-11-23T09:19:47Z</time>
      </trkpt>
      <trkpt lat="44.36582" lon="3.41227">
        <ele>474</ele>
        <time>2019-11-23T09:19:48Z</time>
      </trkpt>
      <trkpt lat="44.3657" lon="3.41205">
        <ele>475</ele>
        <time>2019-11-23T09:19:53Z</time>
      </trkpt>
      <trkpt lat="44.36566" lon="3.41164">
        <ele>476</ele>
        <time>2019-11-23T09:20:00Z</time>
      </trkpt>
      <trkpt lat="44.36569" lon="3.41118">
        <ele>475</ele>
        <time>2019-11-23T09:20:07Z</time>
      </trkpt>
      <trkpt lat="44.36577" lon="3.41056">
        <ele>475</ele>
        <time>2019-11-23T09:20:18Z</time>
      </trkpt>
      <trkpt lat="44.36609" lon="3.41063">
        <ele>479</ele>
        <time>2019-11-23T09:20:26Z</time>
      </trkpt>
      <trkpt lat="44.36614" lon="3.40954">
        <ele>491</ele>
        <time>2019-11-23T09:20:44Z</time>
      </trkpt>
      <trkpt lat="44.36597" lon="3.40956">
        <ele>489</ele>
        <time>2019-11-23T09:20:48Z</time>
      </trkpt>
      <trkpt lat="44.36582" lon="3.40952">
        <ele>489</ele>
        <time>2019-11-23T09:20:51Z</time>
      </trkpt>
      <trkpt lat="44.36552" lon="3.40913">
        <ele>494</ele>
        <time>2019-11-23T09:21:01Z</time>
      </trkpt>
      <trkpt lat="44.36541" lon="3.40905">
        <ele>496</ele>
        <time>2019-11-23T09:21:04Z</time>
      </trkpt>
      <trkpt lat="44.36503" lon="3.40887">
        <ele>498</ele>
        <time>2019-11-23T09:21:13Z</time>
      </trkpt>
      <trkpt lat="44.3646" lon="3.40872">
        <ele>510</ele>
        <time>2019-11-23T09:21:24Z</time>
      </trkpt>
      <trkpt lat="44.36395" lon="3.40885">
        <ele>521</ele>
        <time>2019-11-23T09:21:39Z</time>
      </trkpt>
      <trkpt lat="44.36376" lon="3.40898">
        <ele>525</ele>
        <time>2019-11-23T09:21:44Z</time>
      </trkpt>
      <trkpt lat="44.36369" lon="3.40913">
        <ele>522</ele>
        <time>2019-11-23T09:21:47Z</time>
      </trkpt>
      <trkpt lat="44.36359" lon="3.40952">
        <ele>512</ele>
        <time>2019-11-23T09:21:54Z</time>
      </trkpt>
      <trkpt lat="44.36344" lon="3.40965">
        <ele>514</ele>
        <time>2019-11-23T09:21:58Z</time>
      </trkpt>
      <trkpt lat="44.3632" lon="3.40975">
        <ele>519</ele>
        <time>2019-11-23T09:22:04Z</time>
      </trkpt>
      <trkpt lat="44.36303" lon="3.40993">
        <ele>516</ele>
        <time>2019-11-23T09:22:09Z</time>
      </trkpt>
      <trkpt lat="44.36264" lon="3.41074">
        <ele>502</ele>
        <time>2019-11-23T09:22:25Z</time>
      </trkpt>
      <trkpt lat="44.36256" lon="3.41083">
        <ele>502</ele>
        <time>2019-11-23T09:22:27Z</time>
      </trkpt>
      <trkpt lat="44.36249" lon="3.41083">
        <ele>504</ele>
        <time>2019-11-23T09:22:29Z</time>
      </trkpt>
      <trkpt lat="44.36245" lon="3.4108">
        <ele>504</ele>
        <time>2019-11-23T09:22:30Z</time>
      </trkpt>
      <trkpt lat="44.36239" lon="3.41072">
        <ele>504</ele>
        <time>2019-11-23T09:22:32Z</time>
      </trkpt>
      <trkpt lat="44.36211" lon="3.40984">
        <ele>517</ele>
        <time>2019-11-23T09:22:48Z</time>
      </trkpt>
      <trkpt lat="44.36163" lon="3.40853">
        <ele>528</ele>
        <time>2019-11-23T09:23:13Z</time>
      </trkpt>
      <trkpt lat="44.36133" lon="3.40739">
        <ele>537</ele>
        <time>2019-11-23T09:23:33Z</time>
      </trkpt>
      <trkpt lat="44.36108" lon="3.40675">
        <ele>539</ele>
        <time>2019-11-23T09:23:45Z</time>
      </trkpt>
      <trkpt lat="44.36103" lon="3.40656">
        <ele>541</ele>
        <time>2019-11-23T09:23:48Z</time>
      </trkpt>
      <trkpt lat="44.36097" lon="3.40611">
        <ele>551</ele>
        <time>2019-11-23T09:23:56Z</time>
      </trkpt>
      <trkpt lat="44.36093" lon="3.40602">
        <ele>551</ele>
        <time>2019-11-23T09:23:58Z</time>
      </trkpt>
      <trkpt lat="44.3608" lon="3.40591">
        <ele>547</ele>
        <time>2019-11-23T09:24:01Z</time>
      </trkpt>
      <trkpt lat="44.36037" lon="3.40572">
        <ele>535</ele>
        <time>2019-11-23T09:24:12Z</time>
      </trkpt>
      <trkpt lat="44.3603" lon="3.40565">
        <ele>535</ele>
        <time>2019-11-23T09:24:14Z</time>
      </trkpt>
      <trkpt lat="44.36007" lon="3.40508">
        <ele>552</ele>
        <time>2019-11-23T09:24:25Z</time>
      </trkpt>
      <trkpt lat="44.35955" lon="3.40447">
        <ele>554</ele>
        <time>2019-11-23T09:24:41Z</time>
      </trkpt>
      <trkpt lat="44.35925" lon="3.40398">
        <ele>566</ele>
        <time>2019-11-23T09:24:52Z</time>
      </trkpt>
      <trkpt lat="44.35904" lon="3.40375">
        <ele>573</ele>
        <time>2019-11-23T09:24:58Z</time>
      </trkpt>
      <trkpt lat="44.35867" lon="3.40349">
        <ele>576</ele>
        <time>2019-11-23T09:25:07Z</time>
      </trkpt>
      <trkpt lat="44.35816" lon="3.40321">
        <ele>576</ele>
        <time>2019-11-23T09:25:20Z</time>
      </trkpt>
      <trkpt lat="44.35794" lon="3.40321">
        <ele>569</ele>
        <time>2019-11-23T09:25:25Z</time>
      </trkpt>
      <trkpt lat="44.35771" lon="3.40312">
        <ele>568</ele>
        <time>2019-11-23T09:25:31Z</time>
      </trkpt>
      <trkpt lat="44.35762" lon="3.40306">
        <ele>569</ele>
        <time>2019-11-23T09:25:33Z</time>
      </trkpt>
      <trkpt lat="44.35754" lon="3.40297">
        <ele>573</ele>
        <time>2019-11-23T09:25:36Z</time>
      </trkpt>
      <trkpt lat="44.35741" lon="3.40272">
        <ele>586</ele>
        <time>2019-11-23T09:25:41Z</time>
      </trkpt>
      <trkpt lat="44.35732" lon="3.40261">
        <ele>592</ele>
        <time>2019-11-23T09:25:44Z</time>
      </trkpt>
      <trkpt lat="44.35734" lon="3.4025">
        <ele>600</ele>
        <time>2019-11-23T09:25:46Z</time>
      </trkpt>
      <trkpt lat="44.35721" lon="3.40244">
        <ele>600</ele>
        <time>2019-11-23T09:25:49Z</time>
      </trkpt>
      <trkpt lat="44.35704" lon="3.40244">
        <ele>596</ele>
        <time>2019-11-23T09:25:53Z</time>
      </trkpt>
      <trkpt lat="44.35655" lon="3.40257">
        <ele>579</ele>
        <time>2019-11-23T09:26:04Z</time>
      </trkpt>
      <trkpt lat="44.35618" lon="3.40261">
        <ele>571</ele>
        <time>2019-11-23T09:26:13Z</time>
      </trkpt>
      <trkpt lat="44.35588" lon="3.40254">
        <ele>570</ele>
        <time>2019-11-23T09:26:20Z</time>
      </trkpt>
      <trkpt lat="44.35573" lon="3.40244">
        <ele>569</ele>
        <time>2019-11-23T09:26:24Z</time>
      </trkpt>
      <trkpt lat="44.35406" lon="3.39875">
        <ele>589</ele>
        <time>2019-11-23T09:27:37Z</time>
      </trkpt>
      <trkpt lat="44.35417" lon="3.39881">
        <ele>595</ele>
        <time>2019-11-23T09:27:40Z</time>
      </trkpt>
      <trkpt lat="44.35421" lon="3.39898">
        <ele>593</ele>
        <time>2019-11-23T09:27:43Z</time>
      </trkpt>
      <trkpt lat="44.3543" lon="3.3992">
        <ele>593</ele>
        <time>2019-11-23T09:27:47Z</time>
      </trkpt>
      <trkpt lat="44.35509" lon="3.40044">
        <ele>602</ele>
        <time>2019-11-23T09:28:15Z</time>
      </trkpt>
      <trkpt lat="44.35558" lon="3.40132">
        <ele>604</ele>
        <time>2019-11-23T09:28:33Z</time>
      </trkpt>
      <trkpt lat="44.35603" lon="3.40186">
        <ele>604</ele>
        <time>2019-11-23T09:28:47Z</time>
      </trkpt>
      <trkpt lat="44.35608" lon="3.40186">
        <ele>605</ele>
        <time>2019-11-23T09:28:48Z</time>
      </trkpt>
      <trkpt lat="44.35612" lon="3.40181">
        <ele>608</ele>
        <time>2019-11-23T09:28:49Z</time>
      </trkpt>
      <trkpt lat="44.35608" lon="3.40164">
        <ele>615</ele>
        <time>2019-11-23T09:28:52Z</time>
      </trkpt>
      <trkpt lat="44.35593" lon="3.40154">
        <ele>614</ele>
        <time>2019-11-23T09:28:56Z</time>
      </trkpt>
      <trkpt lat="44.35571" lon="3.40121">
        <ele>614</ele>
        <time>2019-11-23T09:29:04Z</time>
      </trkpt>
      <trkpt lat="44.35539" lon="3.40029">
        <ele>626</ele>
        <time>2019-11-23T09:29:21Z</time>
      </trkpt>
      <trkpt lat="44.355" lon="3.39982">
        <ele>619</ele>
        <time>2019-11-23T09:29:33Z</time>
      </trkpt>
      <trkpt lat="44.35485" lon="3.3993">
        <ele>628</ele>
        <time>2019-11-23T09:29:42Z</time>
      </trkpt>
      <trkpt lat="44.35462" lon="3.39864">
        <ele>632</ele>
        <time>2019-11-23T09:29:55Z</time>
      </trkpt>
      <trkpt lat="44.35451" lon="3.39842">
        <ele>630</ele>
        <time>2019-11-23T09:29:59Z</time>
      </trkpt>
      <trkpt lat="44.3544" lon="3.39791">
        <ele>627</ele>
        <time>2019-11-23T09:30:08Z</time>
      </trkpt>
      <trkpt lat="44.3544" lon="3.39769">
        <ele>628</ele>
        <time>2019-11-23T09:30:12Z</time>
      </trkpt>
      <trkpt lat="44.35505" lon="3.39555">
        <ele>638</ele>
        <time>2019-11-23T09:30:51Z</time>
      </trkpt>
      <trkpt lat="44.3552" lon="3.39516">
        <ele>638</ele>
        <time>2019-11-23T09:30:58Z</time>
      </trkpt>
      <trkpt lat="44.35537" lon="3.39484">
        <ele>640</ele>
        <time>2019-11-23T09:31:05Z</time>
      </trkpt>
      <trkpt lat="44.35554" lon="3.3946">
        <ele>642</ele>
        <time>2019-11-23T09:31:10Z</time>
      </trkpt>
      <trkpt lat="44.35629" lon="3.39385">
        <ele>651</ele>
        <time>2019-11-23T09:31:32Z</time>
      </trkpt>
      <trkpt lat="44.35651" lon="3.3937">
        <ele>654</ele>
        <time>2019-11-23T09:31:37Z</time>
      </trkpt>
      <trkpt lat="44.35691" lon="3.39351">
        <ele>661</ele>
        <time>2019-11-23T09:31:47Z</time>
      </trkpt>
      <trkpt lat="44.35713" lon="3.39334">
        <ele>662</ele>
        <time>2019-11-23T09:31:53Z</time>
      </trkpt>
      <trkpt lat="44.35734" lon="3.39315">
        <ele>664</ele>
        <time>2019-11-23T09:31:59Z</time>
      </trkpt>
      <trkpt lat="44.35792" lon="3.39248">
        <ele>660</ele>
        <time>2019-11-23T09:32:17Z</time>
      </trkpt>
      <trkpt lat="44.35807" lon="3.39237">
        <ele>664</ele>
        <time>2019-11-23T09:32:21Z</time>
      </trkpt>
      <trkpt lat="44.35829" lon="3.39227">
        <ele>668</ele>
        <time>2019-11-23T09:32:26Z</time>
      </trkpt>
      <trkpt lat="44.35866" lon="3.39237">
        <ele>680</ele>
        <time>2019-11-23T09:32:35Z</time>
      </trkpt>
      <trkpt lat="44.35913" lon="3.39243">
        <ele>697</ele>
        <time>2019-11-23T09:32:46Z</time>
      </trkpt>
      <trkpt lat="44.35954" lon="3.39217">
        <ele>698</ele>
        <time>2019-11-23T09:32:56Z</time>
      </trkpt>
      <trkpt lat="44.36021" lon="3.39217">
        <ele>709</ele>
        <time>2019-11-23T09:33:12Z</time>
      </trkpt>
      <trkpt lat="44.36068" lon="3.39209">
        <ele>716</ele>
        <time>2019-11-23T09:33:23Z</time>
      </trkpt>
      <trkpt lat="44.36145" lon="3.39232">
        <ele>734</ele>
        <time>2019-11-23T09:33:41Z</time>
      </trkpt>
      <trkpt lat="44.36188" lon="3.39133">
        <ele>740</ele>
        <time>2019-11-23T09:34:01Z</time>
      </trkpt>
      <trkpt lat="44.36269" lon="3.39087">
        <ele>752</ele>
        <time>2019-11-23T09:34:21Z</time>
      </trkpt>
      <trkpt lat="44.36327" lon="3.39059">
        <ele>763</ele>
        <time>2019-11-23T09:34:35Z</time>
      </trkpt>
      <trkpt lat="44.36337" lon="3.39025">
        <ele>763</ele>
        <time>2019-11-23T09:34:42Z</time>
      </trkpt>
      <trkpt lat="44.3629" lon="3.39032">
        <ele>761</ele>
        <time>2019-11-23T09:34:53Z</time>
      </trkpt>
      <trkpt lat="44.36219" lon="3.39016">
        <ele>765</ele>
        <time>2019-11-23T09:35:09Z</time>
      </trkpt>
      <trkpt lat="44.36156" lon="3.3902">
        <ele>767</ele>
        <time>2019-11-23T09:35:24Z</time>
      </trkpt>
      <trkpt lat="44.36315" lon="3.38899">
        <ele>788</ele>
        <time>2019-11-23T09:36:06Z</time>
      </trkpt>
      <trkpt lat="44.36228" lon="3.38936">
        <ele>788</ele>
        <time>2019-11-23T09:36:28Z</time>
      </trkpt>
      <trkpt lat="44.36307" lon="3.38853">
        <ele>798</ele>
        <time>2019-11-23T09:36:51Z</time>
      </trkpt>
      <trkpt lat="44.36334" lon="3.38819">
        <ele>805</ele>
        <time>2019-11-23T09:36:59Z</time>
      </trkpt>
      <trkpt lat="44.36318" lon="3.38798">
        <ele>806</ele>
        <time>2019-11-23T09:37:04Z</time>
      </trkpt>
      <trkpt lat="44.3629" lon="3.38788">
        <ele>804</ele>
        <time>2019-11-23T09:37:11Z</time>
      </trkpt>
      <trkpt lat="44.36226" lon="3.38715">
        <ele>803</ele>
        <time>2019-11-23T09:37:30Z</time>
      </trkpt>
      <trkpt lat="44.36209" lon="3.38703">
        <ele>804</ele>
        <time>2019-11-23T09:37:35Z</time>
      </trkpt>
      <trkpt lat="44.36184" lon="3.38699">
        <ele>806</ele>
        <time>2019-11-23T09:37:41Z</time>
      </trkpt>
      <trkpt lat="44.36161" lon="3.38683">
        <ele>807</ele>
        <time>2019-11-23T09:37:47Z</time>
      </trkpt>
      <trkpt lat="44.36138" lon="3.38663">
        <ele>811</ele>
        <time>2019-11-23T09:37:53Z</time>
      </trkpt>
      <trkpt lat="44.36065" lon="3.38586">
        <ele>816</ele>
        <time>2019-11-23T09:38:14Z</time>
      </trkpt>
      <trkpt lat="44.36051" lon="3.38567">
        <ele>816</ele>
        <time>2019-11-23T09:38:19Z</time>
      </trkpt>
      <trkpt lat="44.35997" lon="3.38528">
        <ele>816</ele>
        <time>2019-11-23T09:38:33Z</time>
      </trkpt>
      <trkpt lat="44.35973" lon="3.38525">
        <ele>818</ele>
        <time>2019-11-23T09:38:39Z</time>
      </trkpt>
      <trkpt lat="44.35934" lon="3.38514">
        <ele>820</ele>
        <time>2019-11-23T09:38:48Z</time>
      </trkpt>
      <trkpt lat="44.35904" lon="3.38495">
        <ele>823</ele>
        <time>2019-11-23T09:38:56Z</time>
      </trkpt>
      <trkpt lat="44.3587" lon="3.38488">
        <ele>829</ele>
        <time>2019-11-23T09:39:04Z</time>
      </trkpt>
      <trkpt lat="44.35863" lon="3.38482">
        <ele>829</ele>
        <time>2019-11-23T09:39:06Z</time>
      </trkpt>
      <trkpt lat="44.35857" lon="3.38473">
        <ele>830</ele>
        <time>2019-11-23T09:39:08Z</time>
      </trkpt>
      <trkpt lat="44.35852" lon="3.38458">
        <ele>829</ele>
        <time>2019-11-23T09:39:10Z</time>
      </trkpt>
      <trkpt lat="44.35857" lon="3.38415">
        <ele>824</ele>
        <time>2019-11-23T09:39:18Z</time>
      </trkpt>
      <trkpt lat="44.35863" lon="3.3839">
        <ele>820</ele>
        <time>2019-11-23T09:39:22Z</time>
      </trkpt>
      <trkpt lat="44.35863" lon="3.38375">
        <ele>819</ele>
        <time>2019-11-23T09:39:25Z</time>
      </trkpt>
      <trkpt lat="44.35852" lon="3.38347">
        <ele>818</ele>
        <time>2019-11-23T09:39:30Z</time>
      </trkpt>
      <trkpt lat="44.35842" lon="3.38332">
        <ele>818</ele>
        <time>2019-11-23T09:39:33Z</time>
      </trkpt>
      <trkpt lat="44.35809" lon="3.3831">
        <ele>819</ele>
        <time>2019-11-23T09:39:42Z</time>
      </trkpt>
      <trkpt lat="44.35799" lon="3.38297">
        <ele>820</ele>
        <time>2019-11-23T09:39:45Z</time>
      </trkpt>
      <trkpt lat="44.35788" lon="3.38263">
        <ele>819</ele>
        <time>2019-11-23T09:39:51Z</time>
      </trkpt>
      <trkpt lat="44.35779" lon="3.38252">
        <ele>820</ele>
        <time>2019-11-23T09:39:54Z</time>
      </trkpt>
      <trkpt lat="44.35771" lon="3.38244">
        <ele>820</ele>
        <time>2019-11-23T09:39:56Z</time>
      </trkpt>
      <trkpt lat="44.35743" lon="3.38229">
        <ele>823</ele>
        <time>2019-11-23T09:40:03Z</time>
      </trkpt>
      <trkpt lat="44.35726" lon="3.38216">
        <ele>824</ele>
        <time>2019-11-23T09:40:08Z</time>
      </trkpt>
      <trkpt lat="44.35706" lon="3.38192">
        <ele>827</ele>
        <time>2019-11-23T09:40:14Z</time>
      </trkpt>
      <trkpt lat="44.35657" lon="3.38156">
        <ele>836</ele>
        <time>2019-11-23T09:40:27Z</time>
      </trkpt>
      <trkpt lat="44.35588" lon="3.38079">
        <ele>850</ele>
        <time>2019-11-23T09:40:48Z</time>
      </trkpt>
      <trkpt lat="44.3558" lon="3.38066">
        <ele>851</ele>
        <time>2019-11-23T09:40:51Z</time>
      </trkpt>
      <trkpt lat="44.35569" lon="3.38027">
        <ele>853</ele>
        <time>2019-11-23T09:40:58Z</time>
      </trkpt>
      <trkpt lat="44.35561" lon="3.37986">
        <ele>855</ele>
        <time>2019-11-23T09:41:05Z</time>
      </trkpt>
      <trkpt lat="44.35558" lon="3.37958">
        <ele>857</ele>
        <time>2019-11-23T09:41:09Z</time>
      </trkpt>
      <trkpt lat="44.35558" lon="3.37905">
        <ele>859</ele>
        <time>2019-11-23T09:41:18Z</time>
      </trkpt>
      <trkpt lat="44.35543" lon="3.37864">
        <ele>861</ele>
        <time>2019-11-23T09:41:26Z</time>
      </trkpt>
      <trkpt lat="44.35541" lon="3.3784">
        <ele>861</ele>
        <time>2019-11-23T09:41:30Z</time>
      </trkpt>
      <trkpt lat="44.35543" lon="3.37825">
        <ele>860</ele>
        <time>2019-11-23T09:41:33Z</time>
      </trkpt>
      <trkpt lat="44.35571" lon="3.37759">
        <ele>855</ele>
        <time>2019-11-23T09:41:45Z</time>
      </trkpt>
      <trkpt lat="44.3558" lon="3.37729">
        <ele>853</ele>
        <time>2019-11-23T09:41:51Z</time>
      </trkpt>
      <trkpt lat="44.35586" lon="3.37671">
        <ele>848</ele>
        <time>2019-11-23T09:42:01Z</time>
      </trkpt>
      <trkpt lat="44.35612" lon="3.37596">
        <ele>845</ele>
        <time>2019-11-23T09:42:14Z</time>
      </trkpt>
      <trkpt lat="44.35614" lon="3.37551">
        <ele>843</ele>
        <time>2019-11-23T09:42:22Z</time>
      </trkpt>
      <trkpt lat="44.35623" lon="3.37458">
        <ele>840</ele>
        <time>2019-11-23T09:42:38Z</time>
      </trkpt>
      <trkpt lat="44.35621" lon="3.37448">
        <ele>840</ele>
        <time>2019-11-23T09:42:39Z</time>
      </trkpt>
      <trkpt lat="44.35614" lon="3.37435">
        <ele>840</ele>
        <time>2019-11-23T09:42:42Z</time>
      </trkpt>
      <trkpt lat="44.3561" lon="3.37405">
        <ele>840</ele>
        <time>2019-11-23T09:42:47Z</time>
      </trkpt>
      <trkpt lat="44.3561" lon="3.37381">
        <ele>841</ele>
        <time>2019-11-23T09:42:51Z</time>
      </trkpt>
      <trkpt lat="44.35601" lon="3.37338">
        <ele>842</ele>
        <time>2019-11-23T09:42:59Z</time>
      </trkpt>
      <trkpt lat="44.35623" lon="3.37319">
        <ele>843</ele>
        <time>2019-11-23T09:43:05Z</time>
      </trkpt>
      <trkpt lat="44.35625" lon="3.37304">
        <ele>845</ele>
        <time>2019-11-23T09:43:07Z</time>
      </trkpt>
      <trkpt lat="44.35616" lon="3.37285">
        <ele>845</ele>
        <time>2019-11-23T09:43:11Z</time>
      </trkpt>
      <trkpt lat="44.35563" lon="3.37132">
        <ele>852</ele>
        <time>2019-11-23T09:43:39Z</time>
      </trkpt>
      <trkpt lat="44.35552" lon="3.37107">
        <ele>852</ele>
        <time>2019-11-23T09:43:44Z</time>
      </trkpt>
      <trkpt lat="44.35528" lon="3.37023">
        <ele>855</ele>
        <time>2019-11-23T09:43:59Z</time>
      </trkpt>
      <trkpt lat="44.35524" lon="3.37001">
        <ele>856</ele>
        <time>2019-11-23T09:44:03Z</time>
      </trkpt>
      <trkpt lat="44.35522" lon="3.36973">
        <ele>856</ele>
        <time>2019-11-23T09:44:08Z</time>
      </trkpt>
      <trkpt lat="44.35524" lon="3.3695">
        <ele>857</ele>
        <time>2019-11-23T09:44:12Z</time>
      </trkpt>
      <trkpt lat="44.35533" lon="3.36907">
        <ele>860</ele>
        <time>2019-11-23T09:44:19Z</time>
      </trkpt>
      <trkpt lat="44.35548" lon="3.36873">
        <ele>866</ele>
        <time>2019-11-23T09:44:26Z</time>
      </trkpt>
      <trkpt lat="44.3555" lon="3.36862">
        <ele>867</ele>
        <time>2019-11-23T09:44:28Z</time>
      </trkpt>
      <trkpt lat="44.35528" lon="3.36813">
        <ele>862</ele>
        <time>2019-11-23T09:44:38Z</time>
      </trkpt>
      <trkpt lat="44.35524" lon="3.3675">
        <ele>863</ele>
        <time>2019-11-23T09:44:48Z</time>
      </trkpt>
      <trkpt lat="44.35524" lon="3.36714">
        <ele>862</ele>
        <time>2019-11-23T09:44:54Z</time>
      </trkpt>
      <trkpt lat="44.35541" lon="3.36645">
        <ele>866</ele>
        <time>2019-11-23T09:45:06Z</time>
      </trkpt>
      <trkpt lat="44.35539" lon="3.36624">
        <ele>866</ele>
        <time>2019-11-23T09:45:10Z</time>
      </trkpt>
      <trkpt lat="44.35515" lon="3.36574">
        <ele>860</ele>
        <time>2019-11-23T09:45:20Z</time>
      </trkpt>
      <trkpt lat="44.355" lon="3.36553">
        <ele>857</ele>
        <time>2019-11-23T09:45:25Z</time>
      </trkpt>
      <trkpt lat="44.35488" lon="3.36525">
        <ele>859</ele>
        <time>2019-11-23T09:45:30Z</time>
      </trkpt>
      <trkpt lat="44.35477" lon="3.3651">
        <ele>859</ele>
        <time>2019-11-23T09:45:34Z</time>
      </trkpt>
      <trkpt lat="44.3543" lon="3.36467">
        <ele>858</ele>
        <time>2019-11-23T09:45:47Z</time>
      </trkpt>
      <trkpt lat="44.35421" lon="3.36465">
        <ele>857</ele>
        <time>2019-11-23T09:45:49Z</time>
      </trkpt>
      <trkpt lat="44.35397" lon="3.36467">
        <ele>857</ele>
        <time>2019-11-23T09:45:55Z</time>
      </trkpt>
      <trkpt lat="44.35378" lon="3.36454">
        <ele>857</ele>
        <time>2019-11-23T09:46:00Z</time>
      </trkpt>
      <trkpt lat="44.35365" lon="3.36439">
        <ele>856</ele>
        <time>2019-11-23T09:46:04Z</time>
      </trkpt>
      <trkpt lat="44.35324" lon="3.36377">
        <ele>849</ele>
        <time>2019-11-23T09:46:18Z</time>
      </trkpt>
      <trkpt lat="44.35322" lon="3.36364">
        <ele>848</ele>
        <time>2019-11-23T09:46:20Z</time>
      </trkpt>
      <trkpt lat="44.35327" lon="3.36345">
        <ele>847</ele>
        <time>2019-11-23T09:46:23Z</time>
      </trkpt>
      <trkpt lat="44.35324" lon="3.36338">
        <ele>846</ele>
        <time>2019-11-23T09:46:25Z</time>
      </trkpt>
      <trkpt lat="44.35324" lon="3.36291">
        <ele>844</ele>
        <time>2019-11-23T09:46:33Z</time>
      </trkpt>
      <trkpt lat="44.35329" lon="3.36265">
        <ele>843</ele>
        <time>2019-11-23T09:46:37Z</time>
      </trkpt>
      <trkpt lat="44.35329" lon="3.36145">
        <ele>843</ele>
        <time>2019-11-23T09:46:57Z</time>
      </trkpt>
      <trkpt lat="44.35335" lon="3.36107">
        <ele>846</ele>
        <time>2019-11-23T09:47:04Z</time>
      </trkpt>
      <trkpt lat="44.35333" lon="3.36094">
        <ele>846</ele>
        <time>2019-11-23T09:47:06Z</time>
      </trkpt>
      <trkpt lat="44.35322" lon="3.36074">
        <ele>845</ele>
        <time>2019-11-23T09:47:10Z</time>
      </trkpt>
      <trkpt lat="44.35297" lon="3.36016">
        <ele>844</ele>
        <time>2019-11-23T09:47:21Z</time>
      </trkpt>
      <trkpt lat="44.35275" lon="3.35982">
        <ele>843</ele>
        <time>2019-11-23T09:47:29Z</time>
      </trkpt>
      <trkpt lat="44.35249" lon="3.35963">
        <ele>840</ele>
        <time>2019-11-23T09:47:36Z</time>
      </trkpt>
      <trkpt lat="44.35191" lon="3.35944">
        <ele>832</ele>
        <time>2019-11-23T09:47:50Z</time>
      </trkpt>
      <trkpt lat="44.35176" lon="3.35933">
        <ele>830</ele>
        <time>2019-11-23T09:47:54Z</time>
      </trkpt>
      <trkpt lat="44.35161" lon="3.35909">
        <ele>829</ele>
        <time>2019-11-23T09:47:59Z</time>
      </trkpt>
      <trkpt lat="44.35157" lon="3.35892">
        <ele>828</ele>
        <time>2019-11-23T09:48:02Z</time>
      </trkpt>
      <trkpt lat="44.35155" lon="3.35916">
        <ele>828</ele>
        <time>2019-11-23T09:48:06Z</time>
      </trkpt>
      <trkpt lat="44.35142" lon="3.35944">
        <ele>824</ele>
        <time>2019-11-23T09:48:12Z</time>
      </trkpt>
      <trkpt lat="44.35112" lon="3.35959">
        <ele>820</ele>
        <time>2019-11-23T09:48:19Z</time>
      </trkpt>
      <trkpt lat="44.35065" lon="3.35999">
        <ele>815</ele>
        <time>2019-11-23T09:48:32Z</time>
      </trkpt>
      <trkpt lat="44.35088" lon="3.35956">
        <ele>817</ele>
        <time>2019-11-23T09:48:41Z</time>
      </trkpt>
      <trkpt lat="44.35067" lon="3.35944">
        <ele>817</ele>
        <time>2019-11-23T09:48:46Z</time>
      </trkpt>
      <trkpt lat="44.35028" lon="3.35933">
        <ele>819</ele>
        <time>2019-11-23T09:48:55Z</time>
      </trkpt>
      <trkpt lat="44.35013" lon="3.35926">
        <ele>820</ele>
        <time>2019-11-23T09:48:59Z</time>
      </trkpt>
      <trkpt lat="44.3493" lon="3.35819">
        <ele>820</ele>
        <time>2019-11-23T09:49:26Z</time>
      </trkpt>
      <trkpt lat="44.34908" lon="3.35802">
        <ele>818</ele>
        <time>2019-11-23T09:49:31Z</time>
      </trkpt>
      <trkpt lat="44.34887" lon="3.35802">
        <ele>817</ele>
        <time>2019-11-23T09:49:36Z</time>
      </trkpt>
      <trkpt lat="44.34878" lon="3.35806">
        <ele>816</ele>
        <time>2019-11-23T09:49:38Z</time>
      </trkpt>
      <trkpt lat="44.34846" lon="3.35832">
        <ele>815</ele>
        <time>2019-11-23T09:49:47Z</time>
      </trkpt>
      <trkpt lat="44.3482" lon="3.35847">
        <ele>811</ele>
        <time>2019-11-23T09:49:54Z</time>
      </trkpt>
      <trkpt lat="44.34786" lon="3.35853">
        <ele>807</ele>
        <time>2019-11-23T09:50:02Z</time>
      </trkpt>
      <trkpt lat="44.34767" lon="3.35845">
        <ele>806</ele>
        <time>2019-11-23T09:50:06Z</time>
      </trkpt>
      <trkpt lat="44.34704" lon="3.35804">
        <ele>800</ele>
        <time>2019-11-23T09:50:23Z</time>
      </trkpt>
      <trkpt lat="44.34657" lon="3.35783">
        <ele>795</ele>
        <time>2019-11-23T09:50:34Z</time>
      </trkpt>
      <trkpt lat="44.34649" lon="3.35776">
        <ele>794</ele>
        <time>2019-11-23T09:50:36Z</time>
      </trkpt>
      <trkpt lat="44.34638" lon="3.35755">
        <ele>794</ele>
        <time>2019-11-23T09:50:41Z</time>
      </trkpt>
      <trkpt lat="44.34636" lon="3.35742">
        <ele>794</ele>
        <time>2019-11-23T09:50:43Z</time>
      </trkpt>
      <trkpt lat="44.34642" lon="3.35718">
        <ele>795</ele>
        <time>2019-11-23T09:50:47Z</time>
      </trkpt>
      <trkpt lat="44.34644" lon="3.35699">
        <ele>796</ele>
        <time>2019-11-23T09:50:50Z</time>
      </trkpt>
      <trkpt lat="44.3464" lon="3.3569">
        <ele>796</ele>
        <time>2019-11-23T09:50:52Z</time>
      </trkpt>
      <trkpt lat="44.34625" lon="3.35675">
        <ele>795</ele>
        <time>2019-11-23T09:50:56Z</time>
      </trkpt>
      <trkpt lat="44.34623" lon="3.3566">
        <ele>795</ele>
        <time>2019-11-23T09:50:59Z</time>
      </trkpt>
      <trkpt lat="44.34631" lon="3.35613">
        <ele>791</ele>
        <time>2019-11-23T09:51:07Z</time>
      </trkpt>
      <trkpt lat="44.34646" lon="3.35572">
        <ele>789</ele>
        <time>2019-11-23T09:51:15Z</time>
      </trkpt>
      <trkpt lat="44.34659" lon="3.35551">
        <ele>789</ele>
        <time>2019-11-23T09:51:19Z</time>
      </trkpt>
      <trkpt lat="44.34664" lon="3.35536">
        <ele>788</ele>
        <time>2019-11-23T09:51:22Z</time>
      </trkpt>
      <trkpt lat="44.34661" lon="3.35469">
        <ele>788</ele>
        <time>2019-11-23T09:51:33Z</time>
      </trkpt>
      <trkpt lat="44.34655" lon="3.35469">
        <ele>787</ele>
        <time>2019-11-23T09:51:35Z</time>
      </trkpt>
      <trkpt lat="44.34621" lon="3.35493">
        <ele>778</ele>
        <time>2019-11-23T09:51:44Z</time>
      </trkpt>
      <trkpt lat="44.34612" lon="3.35491">
        <ele>777</ele>
        <time>2019-11-23T09:51:46Z</time>
      </trkpt>
      <trkpt lat="44.34593" lon="3.35517">
        <ele>774</ele>
        <time>2019-11-23T09:51:52Z</time>
      </trkpt>
      <trkpt lat="44.34591" lon="3.35523">
        <ele>775</ele>
        <time>2019-11-23T09:51:53Z</time>
      </trkpt>
      <trkpt lat="44.34573" lon="3.3554">
        <ele>774</ele>
        <time>2019-11-23T09:51:58Z</time>
      </trkpt>
      <trkpt lat="44.34556" lon="3.35551">
        <ele>772</ele>
        <time>2019-11-23T09:52:03Z</time>
      </trkpt>
      <trkpt lat="44.34546" lon="3.35555">
        <ele>770</ele>
        <time>2019-11-23T09:52:05Z</time>
      </trkpt>
      <trkpt lat="44.34533" lon="3.35553">
        <ele>766</ele>
        <time>2019-11-23T09:52:08Z</time>
      </trkpt>
      <trkpt lat="44.34507" lon="3.35559">
        <ele>761</ele>
        <time>2019-11-23T09:52:14Z</time>
      </trkpt>
      <trkpt lat="44.3444" lon="3.35589">
        <ele>747</ele>
        <time>2019-11-23T09:52:31Z</time>
      </trkpt>
      <trkpt lat="44.34406" lon="3.35615">
        <ele>744</ele>
        <time>2019-11-23T09:52:40Z</time>
      </trkpt>
      <trkpt lat="44.34307" lon="3.35667">
        <ele>716</ele>
        <time>2019-11-23T09:53:04Z</time>
      </trkpt>
      <trkpt lat="44.3431" lon="3.35654">
        <ele>717</ele>
        <time>2019-11-23T09:53:07Z</time>
      </trkpt>
      <trkpt lat="44.34305" lon="3.35652">
        <ele>714</ele>
        <time>2019-11-23T09:53:08Z</time>
      </trkpt>
      <trkpt lat="44.34297" lon="3.3566">
        <ele>711</ele>
        <time>2019-11-23T09:53:10Z</time>
      </trkpt>
      <trkpt lat="44.34279" lon="3.35688">
        <ele>706</ele>
        <time>2019-11-23T09:53:16Z</time>
      </trkpt>
      <trkpt lat="44.34282" lon="3.35662">
        <ele>705</ele>
        <time>2019-11-23T09:53:21Z</time>
      </trkpt>
      <trkpt lat="44.34282" lon="3.35622">
        <ele>706</ele>
        <time>2019-11-23T09:53:27Z</time>
      </trkpt>
      <trkpt lat="44.34295" lon="3.35598">
        <ele>709</ele>
        <time>2019-11-23T09:53:33Z</time>
      </trkpt>
      <trkpt lat="44.34292" lon="3.35589">
        <ele>709</ele>
        <time>2019-11-23T09:53:34Z</time>
      </trkpt>
      <trkpt lat="44.34273" lon="3.35579">
        <ele>707</ele>
        <time>2019-11-23T09:53:39Z</time>
      </trkpt>
      <trkpt lat="44.34239" lon="3.35585">
        <ele>702</ele>
        <time>2019-11-23T09:53:47Z</time>
      </trkpt>
      <trkpt lat="44.34219" lon="3.35594">
        <ele>703</ele>
        <time>2019-11-23T09:53:52Z</time>
      </trkpt>
      <trkpt lat="44.3417" lon="3.35626">
        <ele>694</ele>
        <time>2019-11-23T09:54:04Z</time>
      </trkpt>
      <trkpt lat="44.34155" lon="3.35632">
        <ele>695</ele>
        <time>2019-11-23T09:54:08Z</time>
      </trkpt>
      <trkpt lat="44.34131" lon="3.35652">
        <ele>695</ele>
        <time>2019-11-23T09:54:15Z</time>
      </trkpt>
      <trkpt lat="44.34114" lon="3.35658">
        <ele>698</ele>
        <time>2019-11-23T09:54:19Z</time>
      </trkpt>
      <trkpt lat="44.34106" lon="3.35667">
        <ele>698</ele>
        <time>2019-11-23T09:54:21Z</time>
      </trkpt>
      <trkpt lat="44.34097" lon="3.35701">
        <ele>688</ele>
        <time>2019-11-23T09:54:27Z</time>
      </trkpt>
      <trkpt lat="44.34067" lon="3.3575">
        <ele>679</ele>
        <time>2019-11-23T09:54:38Z</time>
      </trkpt>
      <trkpt lat="44.33973" lon="3.35847">
        <ele>658</ele>
        <time>2019-11-23T09:55:05Z</time>
      </trkpt>
      <trkpt lat="44.33951" lon="3.35866">
        <ele>648</ele>
        <time>2019-11-23T09:55:11Z</time>
      </trkpt>
      <trkpt lat="44.33928" lon="3.35875">
        <ele>645</ele>
        <time>2019-11-23T09:55:17Z</time>
      </trkpt>
      <trkpt lat="44.33913" lon="3.35875">
        <ele>646</ele>
        <time>2019-11-23T09:55:20Z</time>
      </trkpt>
      <trkpt lat="44.33904" lon="3.35871">
        <ele>647</ele>
        <time>2019-11-23T09:55:23Z</time>
      </trkpt>
      <trkpt lat="44.33876" lon="3.35871">
        <ele>642</ele>
        <time>2019-11-23T09:55:29Z</time>
      </trkpt>
      <trkpt lat="44.33857" lon="3.35875">
        <ele>637</ele>
        <time>2019-11-23T09:55:34Z</time>
      </trkpt>
      <trkpt lat="44.33827" lon="3.35886">
        <ele>627</ele>
        <time>2019-11-23T09:55:41Z</time>
      </trkpt>
      <trkpt lat="44.33812" lon="3.35883">
        <ele>623</ele>
        <time>2019-11-23T09:55:44Z</time>
      </trkpt>
      <trkpt lat="44.33801" lon="3.35886">
        <ele>618</ele>
        <time>2019-11-23T09:55:47Z</time>
      </trkpt>
      <trkpt lat="44.33797" lon="3.3589">
        <ele>615</ele>
        <time>2019-11-23T09:55:48Z</time>
      </trkpt>
      <trkpt lat="44.33797" lon="3.35896">
        <ele>613</ele>
        <time>2019-11-23T09:55:49Z</time>
      </trkpt>
      <trkpt lat="44.3381" lon="3.35894">
        <ele>618</ele>
        <time>2019-11-23T09:55:52Z</time>
      </trkpt>
      <trkpt lat="44.33807" lon="3.35898">
        <ele>616</ele>
        <time>2019-11-23T09:55:53Z</time>
      </trkpt>
      <trkpt lat="44.33788" lon="3.35905">
        <ele>608</ele>
        <time>2019-11-23T09:55:58Z</time>
      </trkpt>
      <trkpt lat="44.3378" lon="3.35905">
        <ele>606</ele>
        <time>2019-11-23T09:56:00Z</time>
      </trkpt>
      <trkpt lat="44.33773" lon="3.35911">
        <ele>602</ele>
        <time>2019-11-23T09:56:02Z</time>
      </trkpt>
      <trkpt lat="44.33771" lon="3.35903">
        <ele>603</ele>
        <time>2019-11-23T09:56:03Z</time>
      </trkpt>
      <trkpt lat="44.33769" lon="3.35918">
        <ele>599</ele>
        <time>2019-11-23T09:56:05Z</time>
      </trkpt>
      <trkpt lat="44.3378" lon="3.35924">
        <ele>600</ele>
        <time>2019-11-23T09:56:08Z</time>
      </trkpt>
      <trkpt lat="44.33767" lon="3.35937">
        <ele>594</ele>
        <time>2019-11-23T09:56:12Z</time>
      </trkpt>
      <trkpt lat="44.33765" lon="3.35946">
        <ele>591</ele>
        <time>2019-11-23T09:56:14Z</time>
      </trkpt>
      <trkpt lat="44.33754" lon="3.3595">
        <ele>589</ele>
        <time>2019-11-23T09:56:16Z</time>
      </trkpt>
      <trkpt lat="44.33749" lon="3.35946">
        <ele>589</ele>
        <time>2019-11-23T09:56:18Z</time>
      </trkpt>
      <trkpt lat="44.33741" lon="3.35924">
        <ele>589</ele>
        <time>2019-11-23T09:56:22Z</time>
      </trkpt>
      <trkpt lat="44.33726" lon="3.35909">
        <ele>583</ele>
        <time>2019-11-23T09:56:26Z</time>
      </trkpt>
      <trkpt lat="44.33724" lon="3.35898">
        <ele>583</ele>
        <time>2019-11-23T09:56:28Z</time>
      </trkpt>
      <trkpt lat="44.33734" lon="3.35856">
        <ele>594</ele>
        <time>2019-11-23T09:56:35Z</time>
      </trkpt>
      <trkpt lat="44.33734" lon="3.35828">
        <ele>598</ele>
        <time>2019-11-23T09:56:40Z</time>
      </trkpt>
      <trkpt lat="44.33724" lon="3.35808">
        <ele>595</ele>
        <time>2019-11-23T09:56:44Z</time>
      </trkpt>
      <trkpt lat="44.33719" lon="3.35817">
        <ele>589</ele>
        <time>2019-11-23T09:56:46Z</time>
      </trkpt>
      <trkpt lat="44.33722" lon="3.3583">
        <ele>588</ele>
        <time>2019-11-23T09:56:48Z</time>
      </trkpt>
      <trkpt lat="44.33715" lon="3.35819">
        <ele>586</ele>
        <time>2019-11-23T09:56:51Z</time>
      </trkpt>
      <trkpt lat="44.33711" lon="3.35823">
        <ele>581</ele>
        <time>2019-11-23T09:56:52Z</time>
      </trkpt>
      <trkpt lat="44.33713" lon="3.3583">
        <ele>581</ele>
        <time>2019-11-23T09:56:53Z</time>
      </trkpt>
      <trkpt lat="44.33711" lon="3.35841">
        <ele>578</ele>
        <time>2019-11-23T09:56:55Z</time>
      </trkpt>
      <trkpt lat="44.33704" lon="3.35832">
        <ele>573</ele>
        <time>2019-11-23T09:56:57Z</time>
      </trkpt>
      <trkpt lat="44.33694" lon="3.35825">
        <ele>568</ele>
        <time>2019-11-23T09:57:00Z</time>
      </trkpt>
      <trkpt lat="44.33696" lon="3.35841">
        <ele>566</ele>
        <time>2019-11-23T09:57:03Z</time>
      </trkpt>
      <trkpt lat="44.33694" lon="3.35862">
        <ele>565</ele>
        <time>2019-11-23T09:57:06Z</time>
      </trkpt>
      <trkpt lat="44.33689" lon="3.35866">
        <ele>561</ele>
        <time>2019-11-23T09:57:07Z</time>
      </trkpt>
      <trkpt lat="44.33681" lon="3.35832">
        <ele>555</ele>
        <time>2019-11-23T09:57:13Z</time>
      </trkpt>
      <trkpt lat="44.33674" lon="3.35847">
        <ele>550</ele>
        <time>2019-11-23T09:57:16Z</time>
      </trkpt>
      <trkpt lat="44.33672" lon="3.35858">
        <ele>549</ele>
        <time>2019-11-23T09:57:18Z</time>
      </trkpt>
      <trkpt lat="44.33657" lon="3.35875">
        <ele>540</ele>
        <time>2019-11-23T09:57:23Z</time>
      </trkpt>
      <trkpt lat="44.33644" lon="3.35896">
        <ele>532</ele>
        <time>2019-11-23T09:57:27Z</time>
      </trkpt>
      <trkpt lat="44.3364" lon="3.35896">
        <ele>529</ele>
        <time>2019-11-23T09:57:28Z</time>
      </trkpt>
      <trkpt lat="44.33642" lon="3.35871">
        <ele>529</ele>
        <time>2019-11-23T09:57:33Z</time>
      </trkpt>
      <trkpt lat="44.33636" lon="3.35845">
        <ele>523</ele>
        <time>2019-11-23T09:57:37Z</time>
      </trkpt>
      <trkpt lat="44.33638" lon="3.35823">
        <ele>528</ele>
        <time>2019-11-23T09:57:41Z</time>
      </trkpt>
      <trkpt lat="44.33634" lon="3.35834">
        <ele>521</ele>
        <time>2019-11-23T09:57:43Z</time>
      </trkpt>
      <trkpt lat="44.33629" lon="3.35821">
        <ele>523</ele>
        <time>2019-11-23T09:57:45Z</time>
      </trkpt>
      <trkpt lat="44.33629" lon="3.35808">
        <ele>528</ele>
        <time>2019-11-23T09:57:48Z</time>
      </trkpt>
      <trkpt lat="44.33625" lon="3.35802">
        <ele>527</ele>
        <time>2019-11-23T09:57:49Z</time>
      </trkpt>
      <trkpt lat="44.33621" lon="3.358">
        <ele>525</ele>
        <time>2019-11-23T09:57:50Z</time>
      </trkpt>
      <trkpt lat="44.33625" lon="3.35832">
        <ele>516</ele>
        <time>2019-11-23T09:57:55Z</time>
      </trkpt>
      <trkpt lat="44.33616" lon="3.3581">
        <ele>518</ele>
        <time>2019-11-23T09:58:00Z</time>
      </trkpt>
      <trkpt lat="44.33612" lon="3.35806">
        <ele>517</ele>
        <time>2019-11-23T09:58:01Z</time>
      </trkpt>
      <trkpt lat="44.33601" lon="3.35804">
        <ele>510</ele>
        <time>2019-11-23T09:58:03Z</time>
      </trkpt>
      <trkpt lat="44.33606" lon="3.35821">
        <ele>507</ele>
        <time>2019-11-23T09:58:06Z</time>
      </trkpt>
      <trkpt lat="44.33601" lon="3.35821">
        <ele>504</ele>
        <time>2019-11-23T09:58:08Z</time>
      </trkpt>
      <trkpt lat="44.33586" lon="3.3581">
        <ele>497</ele>
        <time>2019-11-23T09:58:11Z</time>
      </trkpt>
      <trkpt lat="44.33591" lon="3.35825">
        <ele>496</ele>
        <time>2019-11-23T09:58:14Z</time>
      </trkpt>
      <trkpt lat="44.33584" lon="3.35823">
        <ele>492</ele>
        <time>2019-11-23T09:58:16Z</time>
      </trkpt>
      <trkpt lat="44.33565" lon="3.35808">
        <ele>489</ele>
        <time>2019-11-23T09:58:21Z</time>
      </trkpt>
      <trkpt lat="44.33589" lon="3.35836">
        <ele>492</ele>
        <time>2019-11-23T09:58:28Z</time>
      </trkpt>
      <trkpt lat="44.33595" lon="3.35851">
        <ele>496</ele>
        <time>2019-11-23T09:58:31Z</time>
      </trkpt>
      <trkpt lat="44.33597" lon="3.35866">
        <ele>497</ele>
        <time>2019-11-23T09:58:34Z</time>
      </trkpt>
      <trkpt lat="44.33593" lon="3.35892">
        <ele>494</ele>
        <time>2019-11-23T09:58:38Z</time>
      </trkpt>
      <trkpt lat="44.33586" lon="3.35903">
        <ele>489</ele>
        <time>2019-11-23T09:58:41Z</time>
      </trkpt>
      <trkpt lat="44.33584" lon="3.35916">
        <ele>488</ele>
        <time>2019-11-23T09:58:43Z</time>
      </trkpt>
      <trkpt lat="44.33586" lon="3.35928">
        <ele>489</ele>
        <time>2019-11-23T09:58:45Z</time>
      </trkpt>
      <trkpt lat="44.33589" lon="3.36059">
        <ele>492</ele>
        <time>2019-11-23T09:59:07Z</time>
      </trkpt>
      <trkpt lat="44.33584" lon="3.36199">
        <ele>485</ele>
        <time>2019-11-23T09:59:30Z</time>
      </trkpt>
      <trkpt lat="44.33586" lon="3.36227">
        <ele>482</ele>
        <time>2019-11-23T09:59:35Z</time>
      </trkpt>
      <trkpt lat="44.33604" lon="3.3624">
        <ele>480</ele>
        <time>2019-11-23T09:59:40Z</time>
      </trkpt>
      <trkpt lat="44.33642" lon="3.36235">
        <ele>484</ele>
        <time>2019-11-23T09:59:49Z</time>
      </trkpt>
      <trkpt lat="44.33653" lon="3.36231">
        <ele>487</ele>
        <time>2019-11-23T09:59:51Z</time>
      </trkpt>
      <trkpt lat="44.33698" lon="3.36195">
        <ele>498</ele>
        <time>2019-11-23T10:00:03Z</time>
      </trkpt>
      <trkpt lat="44.33734" lon="3.36184">
        <ele>495</ele>
        <time>2019-11-23T10:00:12Z</time>
      </trkpt>
      <trkpt lat="44.33754" lon="3.36171">
        <ele>494</ele>
        <time>2019-11-23T10:00:17Z</time>
      </trkpt>
      <trkpt lat="44.3379" lon="3.36117">
        <ele>513</ele>
        <time>2019-11-23T10:00:29Z</time>
      </trkpt>
      <trkpt lat="44.33803" lon="3.36109">
        <ele>513</ele>
        <time>2019-11-23T10:00:33Z</time>
      </trkpt>
      <trkpt lat="44.3387" lon="3.3613">
        <ele>497</ele>
        <time>2019-11-23T10:00:49Z</time>
      </trkpt>
      <trkpt lat="44.33885" lon="3.36139">
        <ele>495</ele>
        <time>2019-11-23T10:00:53Z</time>
      </trkpt>
      <trkpt lat="44.33917" lon="3.36175">
        <ele>487</ele>
        <time>2019-11-23T10:01:02Z</time>
      </trkpt>
      <trkpt lat="44.33932" lon="3.3622">
        <ele>480</ele>
        <time>2019-11-23T10:01:10Z</time>
      </trkpt>
      <trkpt lat="44.33938" lon="3.36268">
        <ele>473</ele>
        <time>2019-11-23T10:01:19Z</time>
      </trkpt>
      <trkpt lat="44.33949" lon="3.36295">
        <ele>472</ele>
        <time>2019-11-23T10:01:24Z</time>
      </trkpt>
      <trkpt lat="44.33955" lon="3.36302">
        <ele>473</ele>
        <time>2019-11-23T10:01:26Z</time>
      </trkpt>
      <trkpt lat="44.33981" lon="3.36315">
        <ele>476</ele>
        <time>2019-11-23T10:01:32Z</time>
      </trkpt>
      <trkpt lat="44.33988" lon="3.36321">
        <ele>476</ele>
        <time>2019-11-23T10:01:34Z</time>
      </trkpt>
      <trkpt lat="44.34001" lon="3.3634">
        <ele>474</ele>
        <time>2019-11-23T10:01:38Z</time>
      </trkpt>
      <trkpt lat="44.34022" lon="3.3639">
        <ele>474</ele>
        <time>2019-11-23T10:01:48Z</time>
      </trkpt>
      <trkpt lat="44.34095" lon="3.36497">
        <ele>473</ele>
        <time>2019-11-23T10:02:13Z</time>
      </trkpt>
      <trkpt lat="44.34131" lon="3.3654">
        <ele>480</ele>
        <time>2019-11-23T10:02:24Z</time>
      </trkpt>
      <trkpt lat="44.34159" lon="3.36585">
        <ele>475</ele>
        <time>2019-11-23T10:02:34Z</time>
      </trkpt>
      <trkpt lat="44.34187" lon="3.36611">
        <ele>484</ele>
        <time>2019-11-23T10:02:42Z</time>
      </trkpt>
      <trkpt lat="44.34207" lon="3.36637">
        <ele>488</ele>
        <time>2019-11-23T10:02:48Z</time>
      </trkpt>
      <trkpt lat="44.34245" lon="3.36705">
        <ele>486</ele>
        <time>2019-11-23T10:03:02Z</time>
      </trkpt>
      <trkpt lat="44.34284" lon="3.36798">
        <ele>482</ele>
        <time>2019-11-23T10:03:20Z</time>
      </trkpt>
      <trkpt lat="44.34312" lon="3.3692">
        <ele>480</ele>
        <time>2019-11-23T10:03:42Z</time>
      </trkpt>
      <trkpt lat="44.34316" lon="3.3704">
        <ele>480</ele>
        <time>2019-11-23T10:04:02Z</time>
      </trkpt>
      <trkpt lat="44.34314" lon="3.37072">
        <ele>481</ele>
        <time>2019-11-23T10:04:07Z</time>
      </trkpt>
      <trkpt lat="44.34305" lon="3.37122">
        <ele>484</ele>
        <time>2019-11-23T10:04:16Z</time>
      </trkpt>
      <trkpt lat="44.34303" lon="3.37162">
        <ele>488</ele>
        <time>2019-11-23T10:04:23Z</time>
      </trkpt>
      <trkpt lat="44.34295" lon="3.37212">
        <ele>490</ele>
        <time>2019-11-23T10:04:31Z</time>
      </trkpt>
      <trkpt lat="44.34279" lon="3.3725">
        <ele>485</ele>
        <time>2019-11-23T10:04:38Z</time>
      </trkpt>
      <trkpt lat="44.34273" lon="3.37261">
        <ele>484</ele>
        <time>2019-11-23T10:04:41Z</time>
      </trkpt>
      <trkpt lat="44.34254" lon="3.37285">
        <ele>476</ele>
        <time>2019-11-23T10:04:47Z</time>
      </trkpt>
      <trkpt lat="44.34239" lon="3.37321">
        <ele>478</ele>
        <time>2019-11-23T10:04:54Z</time>
      </trkpt>
      <trkpt lat="44.34222" lon="3.37351">
        <ele>482</ele>
        <time>2019-11-23T10:05:00Z</time>
      </trkpt>
      <trkpt lat="44.34198" lon="3.37381">
        <ele>482</ele>
        <time>2019-11-23T10:05:08Z</time>
      </trkpt>
      <trkpt lat="44.34144" lon="3.37461">
        <ele>488</ele>
        <time>2019-11-23T10:05:26Z</time>
      </trkpt>
      <trkpt lat="44.34108" lon="3.3748">
        <ele>482</ele>
        <time>2019-11-23T10:05:35Z</time>
      </trkpt>
      <trkpt lat="44.34043" lon="3.37542">
        <ele>479</ele>
        <time>2019-11-23T10:05:53Z</time>
      </trkpt>
      <trkpt lat="44.33955" lon="3.37703">
        <ele>485</ele>
        <time>2019-11-23T10:06:27Z</time>
      </trkpt>
      <trkpt lat="44.33908" lon="3.37808">
        <ele>491</ele>
        <time>2019-11-23T10:06:48Z</time>
      </trkpt>
      <trkpt lat="44.33902" lon="3.37817">
        <ele>491</ele>
        <time>2019-11-23T10:06:50Z</time>
      </trkpt>
      <trkpt lat="44.33795" lon="3.37948">
        <ele>500</ele>
        <time>2019-11-23T10:07:23Z</time>
      </trkpt>
      <trkpt lat="44.33782" lon="3.37961">
        <ele>500</ele>
        <time>2019-11-23T10:07:27Z</time>
      </trkpt>
      <trkpt lat="44.33767" lon="3.37971">
        <ele>495</ele>
        <time>2019-11-23T10:07:31Z</time>
      </trkpt>
      <trkpt lat="44.33728" lon="3.38021">
        <ele>499</ele>
        <time>2019-11-23T10:07:43Z</time>
      </trkpt>
      <trkpt lat="44.33694" lon="3.38051">
        <ele>502</ele>
        <time>2019-11-23T10:07:53Z</time>
      </trkpt>
      <trkpt lat="44.33683" lon="3.38064">
        <ele>505</ele>
        <time>2019-11-23T10:07:56Z</time>
      </trkpt>
      <trkpt lat="44.33625" lon="3.38102">
        <ele>492</ele>
        <time>2019-11-23T10:08:11Z</time>
      </trkpt>
      <trkpt lat="44.33574" lon="3.38149">
        <ele>485</ele>
        <time>2019-11-23T10:08:25Z</time>
      </trkpt>
      <trkpt lat="44.33567" lon="3.38162">
        <ele>486</ele>
        <time>2019-11-23T10:08:28Z</time>
      </trkpt>
      <trkpt lat="44.33556" lon="3.38203">
        <ele>481</ele>
        <time>2019-11-23T10:08:35Z</time>
      </trkpt>
      <trkpt lat="44.33556" lon="3.38224">
        <ele>480</ele>
        <time>2019-11-23T10:08:39Z</time>
      </trkpt>
      <trkpt lat="44.33563" lon="3.38255">
        <ele>480</ele>
        <time>2019-11-23T10:08:44Z</time>
      </trkpt>
      <trkpt lat="44.33569" lon="3.3827">
        <ele>479</ele>
        <time>2019-11-23T10:08:47Z</time>
      </trkpt>
      <trkpt lat="44.33574" lon="3.38278">
        <ele>479</ele>
        <time>2019-11-23T10:08:49Z</time>
      </trkpt>
      <trkpt lat="44.33591" lon="3.38285">
        <ele>478</ele>
        <time>2019-11-23T10:08:53Z</time>
      </trkpt>
      <trkpt lat="44.33606" lon="3.3828">
        <ele>479</ele>
        <time>2019-11-23T10:08:56Z</time>
      </trkpt>
      <trkpt lat="44.33612" lon="3.38272">
        <ele>480</ele>
        <time>2019-11-23T10:08:58Z</time>
      </trkpt>
      <trkpt lat="44.33631" lon="3.38222">
        <ele>494</ele>
        <time>2019-11-23T10:09:08Z</time>
      </trkpt>
      <trkpt lat="44.3364" lon="3.38207">
        <ele>501</ele>
        <time>2019-11-23T10:09:11Z</time>
      </trkpt>
      <trkpt lat="44.33687" lon="3.38175">
        <ele>522</ele>
        <time>2019-11-23T10:09:23Z</time>
      </trkpt>
      <trkpt lat="44.33696" lon="3.38171">
        <ele>524</ele>
        <time>2019-11-23T10:09:26Z</time>
      </trkpt>
      <trkpt lat="44.33687" lon="3.38175">
        <ele>522</ele>
        <time>2019-11-23T10:09:28Z</time>
      </trkpt>
      <trkpt lat="44.3364" lon="3.38207">
        <ele>501</ele>
        <time>2019-11-23T10:09:40Z</time>
      </trkpt>
      <trkpt lat="44.33631" lon="3.38222">
        <ele>494</ele>
        <time>2019-11-23T10:09:43Z</time>
      </trkpt>
      <trkpt lat="44.33638" lon="3.38222">
        <ele>495</ele>
        <time>2019-11-23T10:09:45Z</time>
      </trkpt>
      <trkpt lat="44.33649" lon="3.38212">
        <ele>501</ele>
        <time>2019-11-23T10:09:48Z</time>
      </trkpt>
      <trkpt lat="44.33644" lon="3.38224">
        <ele>495</ele>
        <time>2019-11-23T10:09:50Z</time>
      </trkpt>
      <trkpt lat="44.33651" lon="3.38216">
        <ele>499</ele>
        <time>2019-11-23T10:09:52Z</time>
      </trkpt>
      <trkpt lat="44.33651" lon="3.3822">
        <ele>497</ele>
        <time>2019-11-23T10:09:53Z</time>
      </trkpt>
      <trkpt lat="44.33646" lon="3.38231">
        <ele>492</ele>
        <time>2019-11-23T10:09:55Z</time>
      </trkpt>
      <trkpt lat="44.33655" lon="3.38227">
        <ele>494</ele>
        <time>2019-11-23T10:09:57Z</time>
      </trkpt>
      <trkpt lat="44.33636" lon="3.3825">
        <ele>483</ele>
        <time>2019-11-23T10:10:03Z</time>
      </trkpt>
      <trkpt lat="44.33627" lon="3.3827">
        <ele>480</ele>
        <time>2019-11-23T10:10:07Z</time>
      </trkpt>
      <trkpt lat="44.33627" lon="3.38297">
        <ele>474</ele>
        <time>2019-11-23T10:10:12Z</time>
      </trkpt>
      <trkpt lat="44.3364" lon="3.38353">
        <ele>467</ele>
        <time>2019-11-23T10:10:22Z</time>
      </trkpt>
      <trkpt lat="44.3364" lon="3.38366">
        <ele>468</ele>
        <time>2019-11-23T10:10:24Z</time>
      </trkpt>
      <trkpt lat="44.33606" lon="3.38439">
        <ele>477</ele>
        <time>2019-11-23T10:10:38Z</time>
      </trkpt>
      <trkpt lat="44.33584" lon="3.38506">
        <ele>494</ele>
        <time>2019-11-23T10:10:51Z</time>
      </trkpt>
      <trkpt lat="44.33589" lon="3.38501">
        <ele>492</ele>
        <time>2019-11-23T10:10:52Z</time>
      </trkpt>
      <trkpt lat="44.33597" lon="3.38499">
        <ele>492</ele>
        <time>2019-11-23T10:10:54Z</time>
      </trkpt>
      <trkpt lat="44.33591" lon="3.38518">
        <ele>501</ele>
        <time>2019-11-23T10:10:57Z</time>
      </trkpt>
      <trkpt lat="44.33588" lon="3.38489">
        <ele>489</ele>
        <time>2019-11-23T10:11:02Z</time>
      </trkpt>
      <trkpt lat="44.33578" lon="3.38514">
        <ele>500</ele>
        <time>2019-11-23T10:11:07Z</time>
      </trkpt>
      <trkpt lat="44.33555" lon="3.38525">
        <ele>515</ele>
        <time>2019-11-23T10:11:13Z</time>
      </trkpt>
      <trkpt lat="44.33542" lon="3.38522">
        <ele>519</ele>
        <time>2019-11-23T10:11:16Z</time>
      </trkpt>
      <trkpt lat="44.33538" lon="3.38508">
        <ele>513</ele>
        <time>2019-11-23T10:11:18Z</time>
      </trkpt>
      <trkpt lat="44.33539" lon="3.38471">
        <ele>500</ele>
        <time>2019-11-23T10:11:25Z</time>
      </trkpt>
      <trkpt lat="44.33536" lon="3.3846">
        <ele>497</ele>
        <time>2019-11-23T10:11:26Z</time>
      </trkpt>
      <trkpt lat="44.33522" lon="3.38434">
        <ele>493</ele>
        <time>2019-11-23T10:11:32Z</time>
      </trkpt>
      <trkpt lat="44.33514" lon="3.38427">
        <ele>493</ele>
        <time>2019-11-23T10:11:34Z</time>
      </trkpt>
      <trkpt lat="44.33487" lon="3.38419">
        <ele>501</ele>
        <time>2019-11-23T10:11:41Z</time>
      </trkpt>
      <trkpt lat="44.33469" lon="3.38379">
        <ele>499</ele>
        <time>2019-11-23T10:11:48Z</time>
      </trkpt>
      <trkpt lat="44.33434" lon="3.38352">
        <ele>507</ele>
        <time>2019-11-23T10:11:58Z</time>
      </trkpt>
      <trkpt lat="44.33431" lon="3.38355">
        <ele>510</ele>
        <time>2019-11-23T10:11:59Z</time>
      </trkpt>
      <trkpt lat="44.33445" lon="3.38373">
        <ele>509</ele>
        <time>2019-11-23T10:12:03Z</time>
      </trkpt>
      <trkpt lat="44.33473" lon="3.38422">
        <ele>510</ele>
        <time>2019-11-23T10:12:14Z</time>
      </trkpt>
      <trkpt lat="44.33488" lon="3.38471">
        <ele>520</ele>
        <time>2019-11-23T10:12:22Z</time>
      </trkpt>
      <trkpt lat="44.33506" lon="3.38499">
        <ele>521</ele>
        <time>2019-11-23T10:12:29Z</time>
      </trkpt>
      <trkpt lat="44.33505" lon="3.38506">
        <ele>525</ele>
        <time>2019-11-23T10:12:30Z</time>
      </trkpt>
      <trkpt lat="44.33502" lon="3.38507">
        <ele>527</ele>
        <time>2019-11-23T10:12:31Z</time>
      </trkpt>
      <trkpt lat="44.33494" lon="3.38494">
        <ele>525</ele>
        <time>2019-11-23T10:12:34Z</time>
      </trkpt>
      <trkpt lat="44.33475" lon="3.38477">
        <ele>530</ele>
        <time>2019-11-23T10:12:39Z</time>
      </trkpt>
      <trkpt lat="44.33462" lon="3.38461">
        <ele>531</ele>
        <time>2019-11-23T10:12:43Z</time>
      </trkpt>
      <trkpt lat="44.33394" lon="3.38391">
        <ele>535</ele>
        <time>2019-11-23T10:13:03Z</time>
      </trkpt>
      <trkpt lat="44.33381" lon="3.38379">
        <ele>534</ele>
        <time>2019-11-23T10:13:06Z</time>
      </trkpt>
      <trkpt lat="44.33364" lon="3.38371">
        <ele>534</ele>
        <time>2019-11-23T10:13:10Z</time>
      </trkpt>
      <trkpt lat="44.33358" lon="3.38371">
        <ele>535</ele>
        <time>2019-11-23T10:13:12Z</time>
      </trkpt>
      <trkpt lat="44.33327" lon="3.38384">
        <ele>547</ele>
        <time>2019-11-23T10:13:19Z</time>
      </trkpt>
      <trkpt lat="44.33259" lon="3.38436">
        <ele>567</ele>
        <time>2019-11-23T10:13:37Z</time>
      </trkpt>
      <trkpt lat="44.33252" lon="3.38438">
        <ele>568</ele>
        <time>2019-11-23T10:13:39Z</time>
      </trkpt>
      <trkpt lat="44.3324" lon="3.38433">
        <ele>571</ele>
        <time>2019-11-23T10:13:42Z</time>
      </trkpt>
      <trkpt lat="44.33221" lon="3.38403">
        <ele>573</ele>
        <time>2019-11-23T10:13:49Z</time>
      </trkpt>
      <trkpt lat="44.33204" lon="3.38364">
        <ele>578</ele>
        <time>2019-11-23T10:13:56Z</time>
      </trkpt>
      <trkpt lat="44.332" lon="3.38342">
        <ele>577</ele>
        <time>2019-11-23T10:14:00Z</time>
      </trkpt>
      <trkpt lat="44.33199" lon="3.38313">
        <ele>573</ele>
        <time>2019-11-23T10:14:05Z</time>
      </trkpt>
      <trkpt lat="44.33186" lon="3.38276">
        <ele>578</ele>
        <time>2019-11-23T10:14:12Z</time>
      </trkpt>
      <trkpt lat="44.33163" lon="3.38238">
        <ele>587</ele>
        <time>2019-11-23T10:14:20Z</time>
      </trkpt>
      <trkpt lat="44.33148" lon="3.38223">
        <ele>593</ele>
        <time>2019-11-23T10:14:25Z</time>
      </trkpt>
      <trkpt lat="44.3312" lon="3.38173">
        <ele>593</ele>
        <time>2019-11-23T10:14:35Z</time>
      </trkpt>
      <trkpt lat="44.33098" lon="3.38144">
        <ele>606</ele>
        <time>2019-11-23T10:14:42Z</time>
      </trkpt>
      <trkpt lat="44.33097" lon="3.38138">
        <ele>607</ele>
        <time>2019-11-23T10:14:43Z</time>
      </trkpt>
      <trkpt lat="44.33113" lon="3.38111">
        <ele>605</ele>
        <time>2019-11-23T10:14:49Z</time>
      </trkpt>
      <trkpt lat="44.33138" lon="3.38079">
        <ele>602</ele>
        <time>2019-11-23T10:14:57Z</time>
      </trkpt>
      <trkpt lat="44.33172" lon="3.38047">
        <ele>604</ele>
        <time>2019-11-23T10:15:07Z</time>
      </trkpt>
      <trkpt lat="44.33209" lon="3.3802">
        <ele>601</ele>
        <time>2019-11-23T10:15:16Z</time>
      </trkpt>
      <trkpt lat="44.33238" lon="3.37963">
        <ele>616</ele>
        <time>2019-11-23T10:15:28Z</time>
      </trkpt>
      <trkpt lat="44.33284" lon="3.37948">
        <ele>605</ele>
        <time>2019-11-23T10:15:39Z</time>
      </trkpt>
      <trkpt lat="44.33292" lon="3.37942">
        <ele>605</ele>
        <time>2019-11-23T10:15:41Z</time>
      </trkpt>
      <trkpt lat="44.333" lon="3.37929">
        <ele>609</ele>
        <time>2019-11-23T10:15:44Z</time>
      </trkpt>
      <trkpt lat="44.3331" lon="3.37896">
        <ele>621</ele>
        <time>2019-11-23T10:15:50Z</time>
      </trkpt>
      <trkpt lat="44.33316" lon="3.3789">
        <ele>622</ele>
        <time>2019-11-23T10:15:52Z</time>
      </trkpt>
      <trkpt lat="44.33332" lon="3.37884">
        <ele>618</ele>
        <time>2019-11-23T10:15:56Z</time>
      </trkpt>
      <trkpt lat="44.33352" lon="3.37883">
        <ele>609</ele>
        <time>2019-11-23T10:16:00Z</time>
      </trkpt>
      <trkpt lat="44.33358" lon="3.3788">
        <ele>607</ele>
        <time>2019-11-23T10:16:02Z</time>
      </trkpt>
      <trkpt lat="44.3343" lon="3.37775">
        <ele>632</ele>
        <time>2019-11-23T10:16:26Z</time>
      </trkpt>
      <trkpt lat="44.33451" lon="3.37751">
        <ele>636</ele>
        <time>2019-11-23T10:16:32Z</time>
      </trkpt>
      <trkpt lat="44.33495" lon="3.37707">
        <ele>641</ele>
        <time>2019-11-23T10:16:45Z</time>
      </trkpt>
      <trkpt lat="44.3354" lon="3.37675">
        <ele>642</ele>
        <time>2019-11-23T10:16:57Z</time>
      </trkpt>
      <trkpt lat="44.33565" lon="3.3765">
        <ele>644</ele>
        <time>2019-11-23T10:17:04Z</time>
      </trkpt>
      <trkpt lat="44.33584" lon="3.37627">
        <ele>646</ele>
        <time>2019-11-23T10:17:10Z</time>
      </trkpt>
      <trkpt lat="44.33602" lon="3.37601">
        <ele>649</ele>
        <time>2019-11-23T10:17:16Z</time>
      </trkpt>
      <trkpt lat="44.33663" lon="3.37489">
        <ele>660</ele>
        <time>2019-11-23T10:17:39Z</time>
      </trkpt>
      <trkpt lat="44.33683" lon="3.37447">
        <ele>660</ele>
        <time>2019-11-23T10:17:48Z</time>
      </trkpt>
      <trkpt lat="44.33687" lon="3.37436">
        <ele>661</ele>
        <time>2019-11-23T10:17:50Z</time>
      </trkpt>
      <trkpt lat="44.33684" lon="3.3738">
        <ele>679</ele>
        <time>2019-11-23T10:17:59Z</time>
      </trkpt>
      <trkpt lat="44.33687" lon="3.37365">
        <ele>681</ele>
        <time>2019-11-23T10:18:02Z</time>
      </trkpt>
      <trkpt lat="44.33716" lon="3.37295">
        <ele>683</ele>
        <time>2019-11-23T10:18:15Z</time>
      </trkpt>
      <trkpt lat="44.33726" lon="3.37275">
        <ele>684</ele>
        <time>2019-11-23T10:18:19Z</time>
      </trkpt>
      <trkpt lat="44.33748" lon="3.37249">
        <ele>681</ele>
        <time>2019-11-23T10:18:26Z</time>
      </trkpt>
      <trkpt lat="44.33748" lon="3.37243">
        <ele>684</ele>
        <time>2019-11-23T10:18:27Z</time>
      </trkpt>
      <trkpt lat="44.33741" lon="3.37246">
        <ele>687</ele>
        <time>2019-11-23T10:18:29Z</time>
      </trkpt>
      <trkpt lat="44.33731" lon="3.37255">
        <ele>689</ele>
        <time>2019-11-23T10:18:32Z</time>
      </trkpt>
      <trkpt lat="44.33716" lon="3.37272">
        <ele>692</ele>
        <time>2019-11-23T10:18:36Z</time>
      </trkpt>
      <trkpt lat="44.33699" lon="3.37294">
        <ele>695</ele>
        <time>2019-11-23T10:18:42Z</time>
      </trkpt>
      <trkpt lat="44.3366" lon="3.37356">
        <ele>702</ele>
        <time>2019-11-23T10:18:55Z</time>
      </trkpt>
      <trkpt lat="44.33654" lon="3.37377">
        <ele>700</ele>
        <time>2019-11-23T10:18:59Z</time>
      </trkpt>
      <trkpt lat="44.33651" lon="3.37404">
        <ele>694</ele>
        <time>2019-11-23T10:19:04Z</time>
      </trkpt>
      <trkpt lat="44.33647" lon="3.37414">
        <ele>694</ele>
        <time>2019-11-23T10:19:06Z</time>
      </trkpt>
      <trkpt lat="44.33625" lon="3.37441">
        <ele>698</ele>
        <time>2019-11-23T10:19:13Z</time>
      </trkpt>
      <trkpt lat="44.33556" lon="3.37506">
        <ele>711</ele>
        <time>2019-11-23T10:19:32Z</time>
      </trkpt>
      <trkpt lat="44.33459" lon="3.37586">
        <ele>723</ele>
        <time>2019-11-23T10:19:58Z</time>
      </trkpt>
      <trkpt lat="44.33444" lon="3.37601">
        <ele>721</ele>
        <time>2019-11-23T10:20:03Z</time>
      </trkpt>
      <trkpt lat="44.33429" lon="3.37611">
        <ele>722</ele>
        <time>2019-11-23T10:20:06Z</time>
      </trkpt>
      <trkpt lat="44.33407" lon="3.37616">
        <ele>729</ele>
        <time>2019-11-23T10:20:12Z</time>
      </trkpt>
      <trkpt lat="44.33396" lon="3.37615">
        <ele>734</ele>
        <time>2019-11-23T10:20:14Z</time>
      </trkpt>
      <trkpt lat="44.3338" lon="3.37618">
        <ele>740</ele>
        <time>2019-11-23T10:20:18Z</time>
      </trkpt>
      <trkpt lat="44.3337" lon="3.37626">
        <ele>741</ele>
        <time>2019-11-23T10:20:21Z</time>
      </trkpt>
      <trkpt lat="44.33325" lon="3.37676">
        <ele>737</ele>
        <time>2019-11-23T10:20:34Z</time>
      </trkpt>
      <trkpt lat="44.33312" lon="3.37687">
        <ele>735</ele>
        <time>2019-11-23T10:20:38Z</time>
      </trkpt>
      <trkpt lat="44.33296" lon="3.37692">
        <ele>736</ele>
        <time>2019-11-23T10:20:41Z</time>
      </trkpt>
      <trkpt lat="44.33263" lon="3.37683">
        <ele>750</ele>
        <time>2019-11-23T10:20:49Z</time>
      </trkpt>
      <trkpt lat="44.33243" lon="3.37684">
        <ele>756</ele>
        <time>2019-11-23T10:20:54Z</time>
      </trkpt>
      <trkpt lat="44.33224" lon="3.37686">
        <ele>762</ele>
        <time>2019-11-23T10:20:58Z</time>
      </trkpt>
      <trkpt lat="44.33188" lon="3.37699">
        <ele>771</ele>
        <time>2019-11-23T10:21:07Z</time>
      </trkpt>
      <trkpt lat="44.33175" lon="3.37714">
        <ele>770</ele>
        <time>2019-11-23T10:21:11Z</time>
      </trkpt>
      <trkpt lat="44.33166" lon="3.37737">
        <ele>765</ele>
        <time>2019-11-23T10:21:15Z</time>
      </trkpt>
      <trkpt lat="44.33158" lon="3.3775">
        <ele>765</ele>
        <time>2019-11-23T10:21:18Z</time>
      </trkpt>
      <trkpt lat="44.33098" lon="3.37795">
        <ele>773</ele>
        <time>2019-11-23T10:21:34Z</time>
      </trkpt>
      <trkpt lat="44.33051" lon="3.37815">
        <ele>782</ele>
        <time>2019-11-23T10:21:46Z</time>
      </trkpt>
      <trkpt lat="44.32986" lon="3.37831">
        <ele>798</ele>
        <time>2019-11-23T10:22:01Z</time>
      </trkpt>
      <trkpt lat="44.32965" lon="3.37845">
        <ele>800</ele>
        <time>2019-11-23T10:22:07Z</time>
      </trkpt>
      <trkpt lat="44.32931" lon="3.37861">
        <ele>809</ele>
        <time>2019-11-23T10:22:15Z</time>
      </trkpt>
      <trkpt lat="44.32916" lon="3.37875">
        <ele>809</ele>
        <time>2019-11-23T10:22:19Z</time>
      </trkpt>
      <trkpt lat="44.32902" lon="3.37904">
        <ele>803</ele>
        <time>2019-11-23T10:22:25Z</time>
      </trkpt>
      <trkpt lat="44.32868" lon="3.37957">
        <ele>801</ele>
        <time>2019-11-23T10:22:37Z</time>
      </trkpt>
      <trkpt lat="44.3285" lon="3.37971">
        <ele>806</ele>
        <time>2019-11-23T10:22:42Z</time>
      </trkpt>
      <trkpt lat="44.32806" lon="3.37989">
        <ele>818</ele>
        <time>2019-11-23T10:22:52Z</time>
      </trkpt>
      <trkpt lat="44.32798" lon="3.37999">
        <ele>818</ele>
        <time>2019-11-23T10:22:55Z</time>
      </trkpt>
      <trkpt lat="44.32796" lon="3.38016">
        <ele>814</ele>
        <time>2019-11-23T10:22:58Z</time>
      </trkpt>
      <trkpt lat="44.32801" lon="3.38032">
        <ele>808</ele>
        <time>2019-11-23T10:23:01Z</time>
      </trkpt>
      <trkpt lat="44.32798" lon="3.38042">
        <ele>807</ele>
        <time>2019-11-23T10:23:02Z</time>
      </trkpt>
      <trkpt lat="44.3278" lon="3.38052">
        <ele>812</ele>
        <time>2019-11-23T10:23:07Z</time>
      </trkpt>
      <trkpt lat="44.32746" lon="3.38061">
        <ele>826</ele>
        <time>2019-11-23T10:23:15Z</time>
      </trkpt>
      <trkpt lat="44.3271" lon="3.38061">
        <ele>836</ele>
        <time>2019-11-23T10:23:23Z</time>
      </trkpt>
      <trkpt lat="44.32708" lon="3.38071">
        <ele>835</ele>
        <time>2019-11-23T10:23:25Z</time>
      </trkpt>
      <trkpt lat="44.32716" lon="3.38103">
        <ele>830</ele>
        <time>2019-11-23T10:23:31Z</time>
      </trkpt>
      <trkpt lat="44.32717" lon="3.38132">
        <ele>828</ele>
        <time>2019-11-23T10:23:36Z</time>
      </trkpt>
      <trkpt lat="44.3271" lon="3.38152">
        <ele>829</ele>
        <time>2019-11-23T10:23:39Z</time>
      </trkpt>
      <trkpt lat="44.32689" lon="3.38175">
        <ele>834</ele>
        <time>2019-11-23T10:23:46Z</time>
      </trkpt>
      <trkpt lat="44.32676" lon="3.38185">
        <ele>836</ele>
        <time>2019-11-23T10:23:49Z</time>
      </trkpt>
      <trkpt lat="44.32659" lon="3.38193">
        <ele>838</ele>
        <time>2019-11-23T10:23:53Z</time>
      </trkpt>
      <trkpt lat="44.32643" lon="3.38197">
        <ele>839</ele>
        <time>2019-11-23T10:23:57Z</time>
      </trkpt>
      <trkpt lat="44.32575" lon="3.38193">
        <ele>848</ele>
        <time>2019-11-23T10:24:13Z</time>
      </trkpt>
      <trkpt lat="44.32546" lon="3.38186">
        <ele>850</ele>
        <time>2019-11-23T10:24:20Z</time>
      </trkpt>
      <trkpt lat="44.32494" lon="3.38162">
        <ele>856</ele>
        <time>2019-11-23T10:24:33Z</time>
      </trkpt>
      <trkpt lat="44.32423" lon="3.38117">
        <ele>868</ele>
        <time>2019-11-23T10:24:51Z</time>
      </trkpt>
      <trkpt lat="44.32411" lon="3.38112">
        <ele>870</ele>
        <time>2019-11-23T10:24:54Z</time>
      </trkpt>
      <trkpt lat="44.32346" lon="3.38107">
        <ele>878</ele>
        <time>2019-11-23T10:25:09Z</time>
      </trkpt>
      <trkpt lat="44.32252" lon="3.38118">
        <ele>886</ele>
        <time>2019-11-23T10:25:31Z</time>
      </trkpt>
      <trkpt lat="44.32236" lon="3.38118">
        <ele>888</ele>
        <time>2019-11-23T10:25:35Z</time>
      </trkpt>
      <trkpt lat="44.32118" lon="3.38096">
        <ele>898</ele>
        <time>2019-11-23T10:26:03Z</time>
      </trkpt>
      <trkpt lat="44.32083" lon="3.38099">
        <ele>900</ele>
        <time>2019-11-23T10:26:11Z</time>
      </trkpt>
      <trkpt lat="44.32075" lon="3.38106">
        <ele>901</ele>
        <time>2019-11-23T10:26:13Z</time>
      </trkpt>
      <trkpt lat="44.32071" lon="3.38091">
        <ele>900</ele>
        <time>2019-11-23T10:26:16Z</time>
      </trkpt>
      <trkpt lat="44.32067" lon="3.381">
        <ele>900</ele>
        <time>2019-11-23T10:26:17Z</time>
      </trkpt>
      <trkpt lat="44.32056" lon="3.38109">
        <ele>901</ele>
        <time>2019-11-23T10:26:20Z</time>
      </trkpt>
      <trkpt lat="44.32039" lon="3.38113">
        <ele>901</ele>
        <time>2019-11-23T10:26:24Z</time>
      </trkpt>
      <trkpt lat="44.31971" lon="3.38147">
        <ele>903</ele>
        <time>2019-11-23T10:26:41Z</time>
      </trkpt>
      <trkpt lat="44.3196" lon="3.38145">
        <ele>902</ele>
        <time>2019-11-23T10:26:44Z</time>
      </trkpt>
      <trkpt lat="44.31932" lon="3.38147">
        <ele>902</ele>
        <time>2019-11-23T10:26:50Z</time>
      </trkpt>
      <trkpt lat="44.31915" lon="3.38145">
        <ele>901</ele>
        <time>2019-11-23T10:26:54Z</time>
      </trkpt>
      <trkpt lat="44.31902" lon="3.38136">
        <ele>899</ele>
        <time>2019-11-23T10:26:58Z</time>
      </trkpt>
      <trkpt lat="44.31848" lon="3.38121">
        <ele>895</ele>
        <time>2019-11-23T10:27:11Z</time>
      </trkpt>
      <trkpt lat="44.31835" lon="3.38121">
        <ele>894</ele>
        <time>2019-11-23T10:27:14Z</time>
      </trkpt>
      <trkpt lat="44.31823" lon="3.38126">
        <ele>895</ele>
        <time>2019-11-23T10:27:17Z</time>
      </trkpt>
      <trkpt lat="44.31812" lon="3.38126">
        <ele>895</ele>
        <time>2019-11-23T10:27:19Z</time>
      </trkpt>
      <trkpt lat="44.3178" lon="3.38115">
        <ele>894</ele>
        <time>2019-11-23T10:27:27Z</time>
      </trkpt>
      <trkpt lat="44.3175" lon="3.38111">
        <ele>893</ele>
        <time>2019-11-23T10:27:34Z</time>
      </trkpt>
      <trkpt lat="44.31702" lon="3.38094">
        <ele>892</ele>
        <time>2019-11-23T10:27:45Z</time>
      </trkpt>
      <trkpt lat="44.31662" lon="3.38085">
        <ele>891</ele>
        <time>2019-11-23T10:27:55Z</time>
      </trkpt>
      <trkpt lat="44.3164" lon="3.38074">
        <ele>889</ele>
        <time>2019-11-23T10:28:00Z</time>
      </trkpt>
      <trkpt lat="44.31589" lon="3.38064">
        <ele>886</ele>
        <time>2019-11-23T10:28:12Z</time>
      </trkpt>
      <trkpt lat="44.31557" lon="3.38061">
        <ele>885</ele>
        <time>2019-11-23T10:28:20Z</time>
      </trkpt>
      <trkpt lat="44.31544" lon="3.38055">
        <ele>884</ele>
        <time>2019-11-23T10:28:23Z</time>
      </trkpt>
      <trkpt lat="44.31505" lon="3.38021">
        <ele>879</ele>
        <time>2019-11-23T10:28:34Z</time>
      </trkpt>
      <trkpt lat="44.31486" lon="3.38016">
        <ele>878</ele>
        <time>2019-11-23T10:28:38Z</time>
      </trkpt>
      <trkpt lat="44.31471" lon="3.38008">
        <ele>876</ele>
        <time>2019-11-23T10:28:42Z</time>
      </trkpt>
      <trkpt lat="44.31441" lon="3.38003">
        <ele>873</ele>
        <time>2019-11-23T10:28:49Z</time>
      </trkpt>
      <trkpt lat="44.31434" lon="3.38006">
        <ele>873</ele>
        <time>2019-11-23T10:28:51Z</time>
      </trkpt>
      <trkpt lat="44.31393" lon="3.38012">
        <ele>873</ele>
        <time>2019-11-23T10:29:01Z</time>
      </trkpt>
      <trkpt lat="44.31381" lon="3.38016">
        <ele>874</ele>
        <time>2019-11-23T10:29:03Z</time>
      </trkpt>
      <trkpt lat="44.31368" lon="3.38025">
        <ele>875</ele>
        <time>2019-11-23T10:29:07Z</time>
      </trkpt>
      <trkpt lat="44.31353" lon="3.38029">
        <ele>875</ele>
        <time>2019-11-23T10:29:10Z</time>
      </trkpt>
      <trkpt lat="44.31346" lon="3.38027">
        <ele>875</ele>
        <time>2019-11-23T10:29:12Z</time>
      </trkpt>
      <trkpt lat="44.3134" lon="3.38021">
        <ele>874</ele>
        <time>2019-11-23T10:29:14Z</time>
      </trkpt>
      <trkpt lat="44.31335" lon="3.38008">
        <ele>873</ele>
        <time>2019-11-23T10:29:16Z</time>
      </trkpt>
      <trkpt lat="44.31333" lon="3.37993">
        <ele>873</ele>
        <time>2019-11-23T10:29:19Z</time>
      </trkpt>
      <trkpt lat="44.31335" lon="3.3798">
        <ele>872</ele>
        <time>2019-11-23T10:29:21Z</time>
      </trkpt>
      <trkpt lat="44.3132" lon="3.37928">
        <ele>870</ele>
        <time>2019-11-23T10:29:30Z</time>
      </trkpt>
      <trkpt lat="44.31308" lon="3.37905">
        <ele>869</ele>
        <time>2019-11-23T10:29:35Z</time>
      </trkpt>
      <trkpt lat="44.31299" lon="3.37898">
        <ele>869</ele>
        <time>2019-11-23T10:29:38Z</time>
      </trkpt>
      <trkpt lat="44.31263" lon="3.3789">
        <ele>871</ele>
        <time>2019-11-23T10:29:46Z</time>
      </trkpt>
      <trkpt lat="44.31228" lon="3.37879">
        <ele>870</ele>
        <time>2019-11-23T10:29:54Z</time>
      </trkpt>
      <trkpt lat="44.312" lon="3.37875">
        <ele>870</ele>
        <time>2019-11-23T10:30:01Z</time>
      </trkpt>
      <trkpt lat="44.31162" lon="3.37862">
        <ele>867</ele>
        <time>2019-11-23T10:30:10Z</time>
      </trkpt>
      <trkpt lat="44.3114" lon="3.37864">
        <ele>870</ele>
        <time>2019-11-23T10:30:15Z</time>
      </trkpt>
      <trkpt lat="44.3113" lon="3.3786">
        <ele>870</ele>
        <time>2019-11-23T10:30:18Z</time>
      </trkpt>
      <trkpt lat="44.31114" lon="3.37847">
        <ele>869</ele>
        <time>2019-11-23T10:30:22Z</time>
      </trkpt>
      <trkpt lat="44.31082" lon="3.37808">
        <ele>864</ele>
        <time>2019-11-23T10:30:32Z</time>
      </trkpt>
      <trkpt lat="44.31044" lon="3.3777">
        <ele>862</ele>
        <time>2019-11-23T10:30:43Z</time>
      </trkpt>
      <trkpt lat="44.31027" lon="3.37742">
        <ele>858</ele>
        <time>2019-11-23T10:30:49Z</time>
      </trkpt>
      <trkpt lat="44.31003" lon="3.37714">
        <ele>854</ele>
        <time>2019-11-23T10:30:56Z</time>
      </trkpt>
      <trkpt lat="44.31003" lon="3.37709">
        <ele>853</ele>
        <time>2019-11-23T10:30:57Z</time>
      </trkpt>
      <trkpt lat="44.30973" lon="3.37697">
        <ele>855</ele>
        <time>2019-11-23T10:31:04Z</time>
      </trkpt>
      <trkpt lat="44.30962" lon="3.3769">
        <ele>854</ele>
        <time>2019-11-23T10:31:07Z</time>
      </trkpt>
      <trkpt lat="44.30928" lon="3.37656">
        <ele>851</ele>
        <time>2019-11-23T10:31:17Z</time>
      </trkpt>
      <trkpt lat="44.30915" lon="3.37652">
        <ele>852</ele>
        <time>2019-11-23T10:31:20Z</time>
      </trkpt>
      <trkpt lat="44.30902" lon="3.37634">
        <ele>850</ele>
        <time>2019-11-23T10:31:24Z</time>
      </trkpt>
      <trkpt lat="44.30885" lon="3.37598">
        <ele>847</ele>
        <time>2019-11-23T10:31:32Z</time>
      </trkpt>
      <trkpt lat="44.30855" lon="3.37561">
        <ele>847</ele>
        <time>2019-11-23T10:31:41Z</time>
      </trkpt>
      <trkpt lat="44.30848" lon="3.3754">
        <ele>846</ele>
        <time>2019-11-23T10:31:45Z</time>
      </trkpt>
      <trkpt lat="44.30844" lon="3.37506">
        <ele>845</ele>
        <time>2019-11-23T10:31:51Z</time>
      </trkpt>
      <trkpt lat="44.30838" lon="3.37491">
        <ele>844</ele>
        <time>2019-11-23T10:31:53Z</time>
      </trkpt>
      <trkpt lat="44.30829" lon="3.3745">
        <ele>842</ele>
        <time>2019-11-23T10:32:01Z</time>
      </trkpt>
      <trkpt lat="44.30829" lon="3.37428">
        <ele>841</ele>
        <time>2019-11-23T10:32:04Z</time>
      </trkpt>
      <trkpt lat="44.30833" lon="3.37396">
        <ele>839</ele>
        <time>2019-11-23T10:32:10Z</time>
      </trkpt>
      <trkpt lat="44.30851" lon="3.37308">
        <ele>834</ele>
        <time>2019-11-23T10:32:25Z</time>
      </trkpt>
      <trkpt lat="44.30874" lon="3.37237">
        <ele>833</ele>
        <time>2019-11-23T10:32:38Z</time>
      </trkpt>
      <trkpt lat="44.30883" lon="3.37192">
        <ele>831</ele>
        <time>2019-11-23T10:32:46Z</time>
      </trkpt>
      <trkpt lat="44.30881" lon="3.37179">
        <ele>831</ele>
        <time>2019-11-23T10:32:48Z</time>
      </trkpt>
      <trkpt lat="44.30833" lon="3.37074">
        <ele>830</ele>
        <time>2019-11-23T10:33:09Z</time>
      </trkpt>
      <trkpt lat="44.30827" lon="3.37044">
        <ele>829</ele>
        <time>2019-11-23T10:33:14Z</time>
      </trkpt>
      <trkpt lat="44.30788" lon="3.36978">
        <ele>828</ele>
        <time>2019-11-23T10:33:28Z</time>
      </trkpt>
      <trkpt lat="44.30775" lon="3.36935">
        <ele>828</ele>
        <time>2019-11-23T10:33:36Z</time>
      </trkpt>
      <trkpt lat="44.30778" lon="3.36879">
        <ele>828</ele>
        <time>2019-11-23T10:33:46Z</time>
      </trkpt>
      <trkpt lat="44.30775" lon="3.36849">
        <ele>828</ele>
        <time>2019-11-23T10:33:51Z</time>
      </trkpt>
      <trkpt lat="44.30758" lon="3.36757">
        <ele>832</ele>
        <time>2019-11-23T10:34:06Z</time>
      </trkpt>
      <trkpt lat="44.30748" lon="3.36688">
        <ele>838</ele>
        <time>2019-11-23T10:34:18Z</time>
      </trkpt>
      <trkpt lat="44.30741" lon="3.36667">
        <ele>839</ele>
        <time>2019-11-23T10:34:22Z</time>
      </trkpt>
      <trkpt lat="44.30745" lon="3.36654">
        <ele>841</ele>
        <time>2019-11-23T10:34:24Z</time>
      </trkpt>
      <trkpt lat="44.30754" lon="3.36645">
        <ele>842</ele>
        <time>2019-11-23T10:34:27Z</time>
      </trkpt>
      <trkpt lat="44.30765" lon="3.36577">
        <ele>846</ele>
        <time>2019-11-23T10:34:39Z</time>
      </trkpt>
      <trkpt lat="44.30771" lon="3.36564">
        <ele>847</ele>
        <time>2019-11-23T10:34:41Z</time>
      </trkpt>
      <trkpt lat="44.30765" lon="3.3651">
        <ele>849</ele>
        <time>2019-11-23T10:34:50Z</time>
      </trkpt>
      <trkpt lat="44.30754" lon="3.36491">
        <ele>850</ele>
        <time>2019-11-23T10:34:55Z</time>
      </trkpt>
      <trkpt lat="44.30727" lon="3.36418">
        <ele>850</ele>
        <time>2019-11-23T10:35:08Z</time>
      </trkpt>
      <trkpt lat="44.30712" lon="3.36351">
        <ele>852</ele>
        <time>2019-11-23T10:35:20Z</time>
      </trkpt>
      <trkpt lat="44.30705" lon="3.36346">
        <ele>852</ele>
        <time>2019-11-23T10:35:22Z</time>
      </trkpt>
      <trkpt lat="44.30669" lon="3.36283">
        <ele>854</ele>
        <time>2019-11-23T10:35:35Z</time>
      </trkpt>
      <trkpt lat="44.30628" lon="3.36277">
        <ele>852</ele>
        <time>2019-11-23T10:35:45Z</time>
      </trkpt>
      <trkpt lat="44.30582" lon="3.36227">
        <ele>852</ele>
        <time>2019-11-23T10:35:59Z</time>
      </trkpt>
      <trkpt lat="44.30576" lon="3.36213">
        <ele>853</ele>
        <time>2019-11-23T10:36:01Z</time>
      </trkpt>
      <trkpt lat="44.30533" lon="3.36174">
        <ele>855</ele>
        <time>2019-11-23T10:36:13Z</time>
      </trkpt>
      <trkpt lat="44.30498" lon="3.36094">
        <ele>858</ele>
        <time>2019-11-23T10:36:29Z</time>
      </trkpt>
      <trkpt lat="44.30494" lon="3.36055">
        <ele>860</ele>
        <time>2019-11-23T10:36:35Z</time>
      </trkpt>
      <trkpt lat="44.3044" lon="3.35996">
        <ele>862</ele>
        <time>2019-11-23T10:36:52Z</time>
      </trkpt>
      <trkpt lat="44.30429" lon="3.3595">
        <ele>865</ele>
        <time>2019-11-23T10:37:00Z</time>
      </trkpt>
      <trkpt lat="44.30413" lon="3.35942">
        <ele>866</ele>
        <time>2019-11-23T10:37:04Z</time>
      </trkpt>
      <trkpt lat="44.30366" lon="3.3587">
        <ele>870</ele>
        <time>2019-11-23T10:37:20Z</time>
      </trkpt>
      <trkpt lat="44.30351" lon="3.35807">
        <ele>871</ele>
        <time>2019-11-23T10:37:31Z</time>
      </trkpt>
      <trkpt lat="44.30326" lon="3.35751">
        <ele>871</ele>
        <time>2019-11-23T10:37:42Z</time>
      </trkpt>
      <trkpt lat="44.30326" lon="3.35727">
        <ele>869</ele>
        <time>2019-11-23T10:37:46Z</time>
      </trkpt>
      <trkpt lat="44.30306" lon="3.35634">
        <ele>857</ele>
        <time>2019-11-23T10:38:02Z</time>
      </trkpt>
      <trkpt lat="44.30318" lon="3.35577">
        <ele>850</ele>
        <time>2019-11-23T10:38:12Z</time>
      </trkpt>
      <trkpt lat="44.30316" lon="3.35554">
        <ele>847</ele>
        <time>2019-11-23T10:38:16Z</time>
      </trkpt>
      <trkpt lat="44.3031" lon="3.35523">
        <ele>842</ele>
        <time>2019-11-23T10:38:21Z</time>
      </trkpt>
      <trkpt lat="44.30287" lon="3.35445">
        <ele>830</ele>
        <time>2019-11-23T10:38:36Z</time>
      </trkpt>
      <trkpt lat="44.30289" lon="3.35413">
        <ele>828</ele>
        <time>2019-11-23T10:38:41Z</time>
      </trkpt>
      <trkpt lat="44.30262" lon="3.35335">
        <ele>822</ele>
        <time>2019-11-23T10:38:55Z</time>
      </trkpt>
      <trkpt lat="44.302" lon="3.35249">
        <ele>819</ele>
        <time>2019-11-23T10:39:16Z</time>
      </trkpt>
      <trkpt lat="44.30167" lon="3.3523">
        <ele>819</ele>
        <time>2019-11-23T10:39:24Z</time>
      </trkpt>
      <trkpt lat="44.30101" lon="3.35214">
        <ele>817</ele>
        <time>2019-11-23T10:39:40Z</time>
      </trkpt>
      <trkpt lat="44.30063" lon="3.35173">
        <ele>819</ele>
        <time>2019-11-23T10:39:51Z</time>
      </trkpt>
      <trkpt lat="44.29998" lon="3.35128">
        <ele>816</ele>
        <time>2019-11-23T10:40:08Z</time>
      </trkpt>
      <trkpt lat="44.2999" lon="3.35113">
        <ele>816</ele>
        <time>2019-11-23T10:40:11Z</time>
      </trkpt>
      <trkpt lat="44.29925" lon="3.35066">
        <ele>816</ele>
        <time>2019-11-23T10:40:28Z</time>
      </trkpt>
      <trkpt lat="44.29912" lon="3.35042">
        <ele>816</ele>
        <time>2019-11-23T10:40:33Z</time>
      </trkpt>
      <trkpt lat="44.29883" lon="3.35033">
        <ele>815</ele>
        <time>2019-11-23T10:40:40Z</time>
      </trkpt>
      <trkpt lat="44.29858" lon="3.34994">
        <ele>817</ele>
        <time>2019-11-23T10:40:49Z</time>
      </trkpt>
      <trkpt lat="44.29827" lon="3.3498">
        <ele>816</ele>
        <time>2019-11-23T10:40:56Z</time>
      </trkpt>
      <trkpt lat="44.29781" lon="3.34939">
        <ele>816</ele>
        <time>2019-11-23T10:41:09Z</time>
      </trkpt>
      <trkpt lat="44.29745" lon="3.34923">
        <ele>815</ele>
        <time>2019-11-23T10:41:18Z</time>
      </trkpt>
      <trkpt lat="44.29731" lon="3.34904">
        <ele>816</ele>
        <time>2019-11-23T10:41:23Z</time>
      </trkpt>
      <trkpt lat="44.29716" lon="3.34892">
        <ele>817</ele>
        <time>2019-11-23T10:41:27Z</time>
      </trkpt>
      <trkpt lat="44.29688" lon="3.34886">
        <ele>815</ele>
        <time>2019-11-23T10:41:33Z</time>
      </trkpt>
      <trkpt lat="44.2968" lon="3.34867">
        <ele>817</ele>
        <time>2019-11-23T10:41:37Z</time>
      </trkpt>
      <trkpt lat="44.29657" lon="3.34826">
        <ele>819</ele>
        <time>2019-11-23T10:41:46Z</time>
      </trkpt>
      <trkpt lat="44.29621" lon="3.348">
        <ele>817</ele>
        <time>2019-11-23T10:41:55Z</time>
      </trkpt>
      <trkpt lat="44.29553" lon="3.34761">
        <ele>812</ele>
        <time>2019-11-23T10:42:12Z</time>
      </trkpt>
      <trkpt lat="44.29512" lon="3.34728">
        <ele>810</ele>
        <time>2019-11-23T10:42:23Z</time>
      </trkpt>
      <trkpt lat="44.29464" lon="3.34654">
        <ele>810</ele>
        <time>2019-11-23T10:42:40Z</time>
      </trkpt>
      <trkpt lat="44.29443" lon="3.34605">
        <ele>811</ele>
        <time>2019-11-23T10:42:50Z</time>
      </trkpt>
      <trkpt lat="44.29431" lon="3.34561">
        <ele>812</ele>
        <time>2019-11-23T10:42:57Z</time>
      </trkpt>
      <trkpt lat="44.29423" lon="3.34541">
        <ele>811</ele>
        <time>2019-11-23T10:43:01Z</time>
      </trkpt>
      <trkpt lat="44.29398" lon="3.34496">
        <ele>811</ele>
        <time>2019-11-23T10:43:11Z</time>
      </trkpt>
      <trkpt lat="44.29359" lon="3.34311">
        <ele>810</ele>
        <time>2019-11-23T10:43:43Z</time>
      </trkpt>
      <trkpt lat="44.29365" lon="3.34262">
        <ele>810</ele>
        <time>2019-11-23T10:43:51Z</time>
      </trkpt>
      <trkpt lat="44.29382" lon="3.34206">
        <ele>811</ele>
        <time>2019-11-23T10:44:01Z</time>
      </trkpt>
      <trkpt lat="44.29388" lon="3.34163">
        <ele>810</ele>
        <time>2019-11-23T10:44:09Z</time>
      </trkpt>
      <trkpt lat="44.29382" lon="3.34139">
        <ele>811</ele>
        <time>2019-11-23T10:44:13Z</time>
      </trkpt>
      <trkpt lat="44.29385" lon="3.34061">
        <ele>813</ele>
        <time>2019-11-23T10:44:26Z</time>
      </trkpt>
      <trkpt lat="44.29392" lon="3.34018">
        <ele>814</ele>
        <time>2019-11-23T10:44:33Z</time>
      </trkpt>
      <trkpt lat="44.29384" lon="3.33927">
        <ele>819</ele>
        <time>2019-11-23T10:44:49Z</time>
      </trkpt>
      <trkpt lat="44.29402" lon="3.33847">
        <ele>816</ele>
        <time>2019-11-23T10:45:03Z</time>
      </trkpt>
      <trkpt lat="44.29419" lon="3.33726">
        <ele>812</ele>
        <time>2019-11-23T10:45:23Z</time>
      </trkpt>
      <trkpt lat="44.29386" lon="3.33611">
        <ele>811</ele>
        <time>2019-11-23T10:45:44Z</time>
      </trkpt>
      <trkpt lat="44.29377" lon="3.33541">
        <ele>811</ele>
        <time>2019-11-23T10:45:56Z</time>
      </trkpt>
      <trkpt lat="44.29371" lon="3.33519">
        <ele>812</ele>
        <time>2019-11-23T10:46:00Z</time>
      </trkpt>
      <trkpt lat="44.29371" lon="3.33461">
        <ele>814</ele>
        <time>2019-11-23T10:46:10Z</time>
      </trkpt>
      <trkpt lat="44.29377" lon="3.33441">
        <ele>815</ele>
        <time>2019-11-23T10:46:13Z</time>
      </trkpt>
      <trkpt lat="44.29392" lon="3.33424">
        <ele>816</ele>
        <time>2019-11-23T10:46:18Z</time>
      </trkpt>
      <trkpt lat="44.29351" lon="3.3339">
        <ele>817</ele>
        <time>2019-11-23T10:46:29Z</time>
      </trkpt>
      <trkpt lat="44.2934" lon="3.33375">
        <ele>817</ele>
        <time>2019-11-23T10:46:32Z</time>
      </trkpt>
      <trkpt lat="44.29312" lon="3.33324">
        <ele>819</ele>
        <time>2019-11-23T10:46:43Z</time>
      </trkpt>
      <trkpt lat="44.29306" lon="3.33309">
        <ele>819</ele>
        <time>2019-11-23T10:46:46Z</time>
      </trkpt>
      <trkpt lat="44.29284" lon="3.33229">
        <ele>824</ele>
        <time>2019-11-23T10:47:00Z</time>
      </trkpt>
      <trkpt lat="44.29241" lon="3.33163">
        <ele>826</ele>
        <time>2019-11-23T10:47:15Z</time>
      </trkpt>
      <trkpt lat="44.29222" lon="3.33122">
        <ele>831</ele>
        <time>2019-11-23T10:47:24Z</time>
      </trkpt>
      <trkpt lat="44.29203" lon="3.33107">
        <ele>831</ele>
        <time>2019-11-23T10:47:29Z</time>
      </trkpt>
      <trkpt lat="44.29188" lon="3.331">
        <ele>831</ele>
        <time>2019-11-23T10:47:32Z</time>
      </trkpt>
      <trkpt lat="44.29158" lon="3.33094">
        <ele>830</ele>
        <time>2019-11-23T10:47:39Z</time>
      </trkpt>
      <trkpt lat="44.29149" lon="3.3309">
        <ele>830</ele>
        <time>2019-11-23T10:47:42Z</time>
      </trkpt>
      <trkpt lat="44.2914" lon="3.33079">
        <ele>831</ele>
        <time>2019-11-23T10:47:44Z</time>
      </trkpt>
      <trkpt lat="44.29117" lon="3.33">
        <ele>838</ele>
        <time>2019-11-23T10:47:59Z</time>
      </trkpt>
      <trkpt lat="44.29121" lon="3.32991">
        <ele>839</ele>
        <time>2019-11-23T10:48:00Z</time>
      </trkpt>
      <trkpt lat="44.2913" lon="3.32984">
        <ele>839</ele>
        <time>2019-11-23T10:48:03Z</time>
      </trkpt>
      <trkpt lat="44.29151" lon="3.32976">
        <ele>841</ele>
        <time>2019-11-23T10:48:08Z</time>
      </trkpt>
      <trkpt lat="44.29155" lon="3.32987">
        <ele>841</ele>
        <time>2019-11-23T10:48:10Z</time>
      </trkpt>
      <trkpt lat="44.29162" lon="3.3298">
        <ele>842</ele>
        <time>2019-11-23T10:48:12Z</time>
      </trkpt>
      <trkpt lat="44.29162" lon="3.32969">
        <ele>842</ele>
        <time>2019-11-23T10:48:14Z</time>
      </trkpt>
      <trkpt lat="44.29183" lon="3.32954">
        <ele>845</ele>
        <time>2019-11-23T10:48:19Z</time>
      </trkpt>
      <trkpt lat="44.29215" lon="3.32901">
        <ele>852</ele>
        <time>2019-11-23T10:48:31Z</time>
      </trkpt>
      <trkpt lat="44.29226" lon="3.32858">
        <ele>854</ele>
        <time>2019-11-23T10:48:39Z</time>
      </trkpt>
      <trkpt lat="44.2925" lon="3.32798">
        <ele>857</ele>
        <time>2019-11-23T10:48:50Z</time>
      </trkpt>
      <trkpt lat="44.29269" lon="3.32763">
        <ele>860</ele>
        <time>2019-11-23T10:48:57Z</time>
      </trkpt>
      <trkpt lat="44.29303" lon="3.32723">
        <ele>868</ele>
        <time>2019-11-23T10:49:08Z</time>
      </trkpt>
      <trkpt lat="44.29338" lon="3.32656">
        <ele>877</ele>
        <time>2019-11-23T10:49:22Z</time>
      </trkpt>
      <trkpt lat="44.29374" lon="3.32562">
        <ele>886</ele>
        <time>2019-11-23T10:49:39Z</time>
      </trkpt>
      <trkpt lat="44.29379" lon="3.32542">
        <ele>887</ele>
        <time>2019-11-23T10:49:43Z</time>
      </trkpt>
      <trkpt lat="44.29391" lon="3.32521">
        <ele>888</ele>
        <time>2019-11-23T10:49:47Z</time>
      </trkpt>
      <trkpt lat="44.29402" lon="3.32515">
        <ele>888</ele>
        <time>2019-11-23T10:49:50Z</time>
      </trkpt>
      <trkpt lat="44.29409" lon="3.325">
        <ele>888</ele>
        <time>2019-11-23T10:49:53Z</time>
      </trkpt>
      <trkpt lat="44.29368" lon="3.32442">
        <ele>896</ele>
        <time>2019-11-23T10:50:07Z</time>
      </trkpt>
      <trkpt lat="44.29357" lon="3.32405">
        <ele>902</ele>
        <time>2019-11-23T10:50:14Z</time>
      </trkpt>
      <trkpt lat="44.29342" lon="3.32379">
        <ele>908</ele>
        <time>2019-11-23T10:50:19Z</time>
      </trkpt>
      <trkpt lat="44.29316" lon="3.32315">
        <ele>918</ele>
        <time>2019-11-23T10:50:31Z</time>
      </trkpt>
      <trkpt lat="44.29321" lon="3.32287">
        <ele>921</ele>
        <time>2019-11-23T10:50:36Z</time>
      </trkpt>
      <trkpt lat="44.29278" lon="3.32218">
        <ele>930</ele>
        <time>2019-11-23T10:50:52Z</time>
      </trkpt>
      <trkpt lat="44.29265" lon="3.32191">
        <ele>934</ele>
        <time>2019-11-23T10:50:57Z</time>
      </trkpt>
      <trkpt lat="44.29248" lon="3.32169">
        <ele>938</ele>
        <time>2019-11-23T10:51:02Z</time>
      </trkpt>
      <trkpt lat="44.29243" lon="3.32154">
        <ele>938</ele>
        <time>2019-11-23T10:51:05Z</time>
      </trkpt>
      <trkpt lat="44.29239" lon="3.32107">
        <ele>940</ele>
        <time>2019-11-23T10:51:13Z</time>
      </trkpt>
      <trkpt lat="44.29226" lon="3.32036">
        <ele>942</ele>
        <time>2019-11-23T10:51:25Z</time>
      </trkpt>
      <trkpt lat="44.29226" lon="3.3198">
        <ele>941</ele>
        <time>2019-11-23T10:51:35Z</time>
      </trkpt>
      <trkpt lat="44.29213" lon="3.31924">
        <ele>938</ele>
        <time>2019-11-23T10:51:45Z</time>
      </trkpt>
      <trkpt lat="44.29207" lon="3.31912">
        <ele>938</ele>
        <time>2019-11-23T10:51:47Z</time>
      </trkpt>
      <trkpt lat="44.29198" lon="3.31903">
        <ele>939</ele>
        <time>2019-11-23T10:51:50Z</time>
      </trkpt>
      <trkpt lat="44.29183" lon="3.31899">
        <ele>943</ele>
        <time>2019-11-23T10:51:53Z</time>
      </trkpt>
      <trkpt lat="44.29153" lon="3.31901">
        <ele>947</ele>
        <time>2019-11-23T10:52:00Z</time>
      </trkpt>
      <trkpt lat="44.29125" lon="3.31894">
        <ele>947</ele>
        <time>2019-11-23T10:52:07Z</time>
      </trkpt>
      <trkpt lat="44.2911" lon="3.31894">
        <ele>947</ele>
        <time>2019-11-23T10:52:10Z</time>
      </trkpt>
      <trkpt lat="44.29076" lon="3.31907">
        <ele>948</ele>
        <time>2019-11-23T10:52:19Z</time>
      </trkpt>
      <trkpt lat="44.29046" lon="3.31929">
        <ele>948</ele>
        <time>2019-11-23T10:52:26Z</time>
      </trkpt>
      <trkpt lat="44.29029" lon="3.31937">
        <ele>948</ele>
        <time>2019-11-23T10:52:31Z</time>
      </trkpt>
      <trkpt lat="44.29007" lon="3.31937">
        <ele>947</ele>
        <time>2019-11-23T10:52:36Z</time>
      </trkpt>
      <trkpt lat="44.2899" lon="3.31929">
        <ele>947</ele>
        <time>2019-11-23T10:52:40Z</time>
      </trkpt>
      <trkpt lat="44.28975" lon="3.31916">
        <ele>948</ele>
        <time>2019-11-23T10:52:44Z</time>
      </trkpt>
      <trkpt lat="44.28962" lon="3.31899">
        <ele>947</ele>
        <time>2019-11-23T10:52:48Z</time>
      </trkpt>
      <trkpt lat="44.28816" lon="3.31768">
        <ele>952</ele>
        <time>2019-11-23T10:53:29Z</time>
      </trkpt>
      <trkpt lat="44.28765" lon="3.3174">
        <ele>953</ele>
        <time>2019-11-23T10:53:42Z</time>
      </trkpt>
      <trkpt lat="44.2875" lon="3.31736">
        <ele>954</ele>
        <time>2019-11-23T10:53:45Z</time>
      </trkpt>
      <trkpt lat="44.28716" lon="3.3174">
        <ele>954</ele>
        <time>2019-11-23T10:53:53Z</time>
      </trkpt>
      <trkpt lat="44.28698" lon="3.31746">
        <ele>954</ele>
        <time>2019-11-23T10:53:57Z</time>
      </trkpt>
      <trkpt lat="44.28668" lon="3.31749">
        <ele>953</ele>
        <time>2019-11-23T10:54:04Z</time>
      </trkpt>
      <trkpt lat="44.28621" lon="3.31761">
        <ele>949</ele>
        <time>2019-11-23T10:54:16Z</time>
      </trkpt>
      <trkpt lat="44.2857" lon="3.31744">
        <ele>947</ele>
        <time>2019-11-23T10:54:28Z</time>
      </trkpt>
      <trkpt lat="44.28548" lon="3.31734">
        <ele>946</ele>
        <time>2019-11-23T10:54:33Z</time>
      </trkpt>
      <trkpt lat="44.28533" lon="3.31721">
        <ele>945</ele>
        <time>2019-11-23T10:54:37Z</time>
      </trkpt>
      <trkpt lat="44.28484" lon="3.31703">
        <ele>945</ele>
        <time>2019-11-23T10:54:49Z</time>
      </trkpt>
      <trkpt lat="44.28482" lon="3.31684">
        <ele>946</ele>
        <time>2019-11-23T10:54:52Z</time>
      </trkpt>
      <trkpt lat="44.28475" lon="3.31663">
        <ele>946</ele>
        <time>2019-11-23T10:54:56Z</time>
      </trkpt>
      <trkpt lat="44.28464" lon="3.31643">
        <ele>946</ele>
        <time>2019-11-23T10:55:00Z</time>
      </trkpt>
      <trkpt lat="44.28441" lon="3.31615">
        <ele>945</ele>
        <time>2019-11-23T10:55:08Z</time>
      </trkpt>
      <trkpt lat="44.28413" lon="3.31588">
        <ele>945</ele>
        <time>2019-11-23T10:55:16Z</time>
      </trkpt>
      <trkpt lat="44.28383" lon="3.31536">
        <ele>945</ele>
        <time>2019-11-23T10:55:27Z</time>
      </trkpt>
      <trkpt lat="44.28357" lon="3.31476">
        <ele>943</ele>
        <time>2019-11-23T10:55:38Z</time>
      </trkpt>
      <trkpt lat="44.28354" lon="3.31457">
        <ele>942</ele>
        <time>2019-11-23T10:55:42Z</time>
      </trkpt>
      <trkpt lat="44.28357" lon="3.31455">
        <ele>942</ele>
        <time>2019-11-23T10:55:42Z</time>
      </trkpt>
      <trkpt lat="44.28354" lon="3.31457">
        <ele>942</ele>
        <time>2019-11-23T10:55:43Z</time>
      </trkpt>
      <trkpt lat="44.28357" lon="3.31476">
        <ele>943</ele>
        <time>2019-11-23T10:55:47Z</time>
      </trkpt>
      <trkpt lat="44.28349" lon="3.31429">
        <ele>941</ele>
        <time>2019-11-23T10:55:55Z</time>
      </trkpt>
      <trkpt lat="44.28314" lon="3.31298">
        <ele>937</ele>
        <time>2019-11-23T10:56:18Z</time>
      </trkpt>
      <trkpt lat="44.28314" lon="3.31276">
        <ele>936</ele>
        <time>2019-11-23T10:56:22Z</time>
      </trkpt>
      <trkpt lat="44.28338" lon="3.31193">
        <ele>931</ele>
        <time>2019-11-23T10:56:37Z</time>
      </trkpt>
      <trkpt lat="44.28355" lon="3.31148">
        <ele>929</ele>
        <time>2019-11-23T10:56:45Z</time>
      </trkpt>
      <trkpt lat="44.28366" lon="3.31126">
        <ele>929</ele>
        <time>2019-11-23T10:56:50Z</time>
      </trkpt>
      <trkpt lat="44.28394" lon="3.31025">
        <ele>932</ele>
        <time>2019-11-23T10:57:08Z</time>
      </trkpt>
      <trkpt lat="44.28411" lon="3.30998">
        <ele>930</ele>
        <time>2019-11-23T10:57:14Z</time>
      </trkpt>
      <trkpt lat="44.28411" lon="3.30972">
        <ele>930</ele>
        <time>2019-11-23T10:57:18Z</time>
      </trkpt>
      <trkpt lat="44.28404" lon="3.30944">
        <ele>932</ele>
        <time>2019-11-23T10:57:23Z</time>
      </trkpt>
      <trkpt lat="44.28415" lon="3.30903">
        <ele>930</ele>
        <time>2019-11-23T10:57:30Z</time>
      </trkpt>
      <trkpt lat="44.28419" lon="3.30759">
        <ele>918</ele>
        <time>2019-11-23T10:57:54Z</time>
      </trkpt>
      <trkpt lat="44.28413" lon="3.30734">
        <ele>917</ele>
        <time>2019-11-23T10:57:59Z</time>
      </trkpt>
      <trkpt lat="44.28379" lon="3.30656">
        <ele>917</ele>
        <time>2019-11-23T10:58:14Z</time>
      </trkpt>
      <trkpt lat="44.28379" lon="3.30631">
        <ele>914</ele>
        <time>2019-11-23T10:58:18Z</time>
      </trkpt>
      <trkpt lat="44.2837" lon="3.30605">
        <ele>912</ele>
        <time>2019-11-23T10:58:23Z</time>
      </trkpt>
      <trkpt lat="44.28357" lon="3.3059">
        <ele>913</ele>
        <time>2019-11-23T10:58:27Z</time>
      </trkpt>
      <trkpt lat="44.28353" lon="3.30571">
        <ele>913</ele>
        <time>2019-11-23T10:58:30Z</time>
      </trkpt>
      <trkpt lat="44.28338" lon="3.3054">
        <ele>914</ele>
        <time>2019-11-23T10:58:37Z</time>
      </trkpt>
      <trkpt lat="44.28338" lon="3.30495">
        <ele>913</ele>
        <time>2019-11-23T10:58:44Z</time>
      </trkpt>
      <trkpt lat="44.28346" lon="3.30442">
        <ele>913</ele>
        <time>2019-11-23T10:58:53Z</time>
      </trkpt>
      <trkpt lat="44.2837" lon="3.30382">
        <ele>913</ele>
        <time>2019-11-23T10:59:05Z</time>
      </trkpt>
      <trkpt lat="44.28383" lon="3.3036">
        <ele>913</ele>
        <time>2019-11-23T10:59:09Z</time>
      </trkpt>
      <trkpt lat="44.28409" lon="3.30341">
        <ele>911</ele>
        <time>2019-11-23T10:59:16Z</time>
      </trkpt>
      <trkpt lat="44.28434" lon="3.30311">
        <ele>911</ele>
        <time>2019-11-23T10:59:24Z</time>
      </trkpt>
      <trkpt lat="44.28452" lon="3.30294">
        <ele>910</ele>
        <time>2019-11-23T10:59:29Z</time>
      </trkpt>
      <trkpt lat="44.28486" lon="3.30249">
        <ele>910</ele>
        <time>2019-11-23T10:59:40Z</time>
      </trkpt>
      <trkpt lat="44.28486" lon="3.3024">
        <ele>910</ele>
        <time>2019-11-23T10:59:42Z</time>
      </trkpt>
      <trkpt lat="44.28492" lon="3.30229">
        <ele>910</ele>
        <time>2019-11-23T10:59:44Z</time>
      </trkpt>
      <trkpt lat="44.28516" lon="3.30133">
        <ele>910</ele>
        <time>2019-11-23T11:00:01Z</time>
      </trkpt>
      <trkpt lat="44.28512" lon="3.30124">
        <ele>911</ele>
        <time>2019-11-23T11:00:03Z</time>
      </trkpt>
      <trkpt lat="44.28522" lon="3.30126">
        <ele>910</ele>
        <time>2019-11-23T11:00:05Z</time>
      </trkpt>
      <trkpt lat="44.28531" lon="3.3012">
        <ele>909</ele>
        <time>2019-11-23T11:00:07Z</time>
      </trkpt>
      <trkpt lat="44.28552" lon="3.30096">
        <ele>908</ele>
        <time>2019-11-23T11:00:14Z</time>
      </trkpt>
      <trkpt lat="44.28563" lon="3.30071">
        <ele>908</ele>
        <time>2019-11-23T11:00:19Z</time>
      </trkpt>
      <trkpt lat="44.28598" lon="3.30036">
        <ele>907</ele>
        <time>2019-11-23T11:00:29Z</time>
      </trkpt>
      <trkpt lat="44.28638" lon="3.30019">
        <ele>908</ele>
        <time>2019-11-23T11:00:38Z</time>
      </trkpt>
      <trkpt lat="44.28683" lon="3.30013">
        <ele>909</ele>
        <time>2019-11-23T11:00:49Z</time>
      </trkpt>
      <trkpt lat="44.28716" lon="3.3">
        <ele>911</ele>
        <time>2019-11-23T11:00:57Z</time>
      </trkpt>
      <trkpt lat="44.28711" lon="3.29989">
        <ele>912</ele>
        <time>2019-11-23T11:00:59Z</time>
      </trkpt>
      <trkpt lat="44.28683" lon="3.30013">
        <ele>909</ele>
        <time>2019-11-23T11:01:07Z</time>
      </trkpt>
      <trkpt lat="44.28714" lon="3.30063">
        <ele>909</ele>
        <time>2019-11-23T11:01:18Z</time>
      </trkpt>
      <trkpt lat="44.28724" lon="3.30073">
        <ele>910</ele>
        <time>2019-11-23T11:01:21Z</time>
      </trkpt>
      <trkpt lat="44.28735" lon="3.30107">
        <ele>909</ele>
        <time>2019-11-23T11:01:27Z</time>
      </trkpt>
      <trkpt lat="44.28736" lon="3.30115">
        <ele>909</ele>
        <time>2019-11-23T11:01:28Z</time>
      </trkpt>
      <trkpt lat="44.28731" lon="3.3015">
        <ele>906</ele>
        <time>2019-11-23T11:01:34Z</time>
      </trkpt>
      <trkpt lat="44.2873" lon="3.30176">
        <ele>905</ele>
        <time>2019-11-23T11:01:39Z</time>
      </trkpt>
      <trkpt lat="44.28734" lon="3.30221">
        <ele>900</ele>
        <time>2019-11-23T11:01:46Z</time>
      </trkpt>
      <trkpt lat="44.28741" lon="3.30243">
        <ele>899</ele>
        <time>2019-11-23T11:01:50Z</time>
      </trkpt>
      <trkpt lat="44.28742" lon="3.30259">
        <ele>897</ele>
        <time>2019-11-23T11:01:53Z</time>
      </trkpt>
      <trkpt lat="44.2874" lon="3.30271">
        <ele>895</ele>
        <time>2019-11-23T11:01:55Z</time>
      </trkpt>
      <trkpt lat="44.28751" lon="3.30302">
        <ele>893</ele>
        <time>2019-11-23T11:02:01Z</time>
      </trkpt>
      <trkpt lat="44.28775" lon="3.30345">
        <ele>891</ele>
        <time>2019-11-23T11:02:10Z</time>
      </trkpt>
      <trkpt lat="44.28808" lon="3.30413">
        <ele>885</ele>
        <time>2019-11-23T11:02:24Z</time>
      </trkpt>
      <trkpt lat="44.28836" lon="3.30462">
        <ele>882</ele>
        <time>2019-11-23T11:02:34Z</time>
      </trkpt>
      <trkpt lat="44.28858" lon="3.30518">
        <ele>877</ele>
        <time>2019-11-23T11:02:45Z</time>
      </trkpt>
      <trkpt lat="44.28888" lon="3.30569">
        <ele>873</ele>
        <time>2019-11-23T11:02:56Z</time>
      </trkpt>
      <trkpt lat="44.28902" lon="3.30584">
        <ele>873</ele>
        <time>2019-11-23T11:03:00Z</time>
      </trkpt>
      <trkpt lat="44.2892" lon="3.30598">
        <ele>873</ele>
        <time>2019-11-23T11:03:05Z</time>
      </trkpt>
      <trkpt lat="44.28925" lon="3.30608">
        <ele>871</ele>
        <time>2019-11-23T11:03:07Z</time>
      </trkpt>
      <trkpt lat="44.2895" lon="3.30699">
        <ele>858</ele>
        <time>2019-11-23T11:03:23Z</time>
      </trkpt>
      <trkpt lat="44.28995" lon="3.30794">
        <ele>848</ele>
        <time>2019-11-23T11:03:42Z</time>
      </trkpt>
      <trkpt lat="44.29008" lon="3.3081">
        <ele>846</ele>
        <time>2019-11-23T11:03:46Z</time>
      </trkpt>
      <trkpt lat="44.29021" lon="3.3085">
        <ele>838</ele>
        <time>2019-11-23T11:03:53Z</time>
      </trkpt>
      <trkpt lat="44.2902" lon="3.30854">
        <ele>837</ele>
        <time>2019-11-23T11:03:54Z</time>
      </trkpt>
      <trkpt lat="44.29009" lon="3.30854">
        <ele>837</ele>
        <time>2019-11-23T11:03:57Z</time>
      </trkpt>
      <trkpt lat="44.28997" lon="3.30858">
        <ele>836</ele>
        <time>2019-11-23T11:04:00Z</time>
      </trkpt>
      <trkpt lat="44.28997" lon="3.30865">
        <ele>834</ele>
        <time>2019-11-23T11:04:01Z</time>
      </trkpt>
      <trkpt lat="44.29004" lon="3.30873">
        <ele>832</ele>
        <time>2019-11-23T11:04:03Z</time>
      </trkpt>
      <trkpt lat="44.29005" lon="3.30879">
        <ele>831</ele>
        <time>2019-11-23T11:04:04Z</time>
      </trkpt>
      <trkpt lat="44.29002" lon="3.3088">
        <ele>831</ele>
        <time>2019-11-23T11:04:05Z</time>
      </trkpt>
      <trkpt lat="44.28979" lon="3.30873">
        <ele>830</ele>
        <time>2019-11-23T11:04:10Z</time>
      </trkpt>
      <trkpt lat="44.28978" lon="3.30876">
        <ele>829</ele>
        <time>2019-11-23T11:04:11Z</time>
      </trkpt>
      <trkpt lat="44.28988" lon="3.30903">
        <ele>824</ele>
        <time>2019-11-23T11:04:16Z</time>
      </trkpt>
      <trkpt lat="44.28986" lon="3.30915">
        <ele>821</ele>
        <time>2019-11-23T11:04:18Z</time>
      </trkpt>
      <trkpt lat="44.29" lon="3.30929">
        <ele>818</ele>
        <time>2019-11-23T11:04:22Z</time>
      </trkpt>
      <trkpt lat="44.29012" lon="3.30935">
        <ele>814</ele>
        <time>2019-11-23T11:04:25Z</time>
      </trkpt>
      <trkpt lat="44.29017" lon="3.30937">
        <ele>813</ele>
        <time>2019-11-23T11:04:26Z</time>
      </trkpt>
      <trkpt lat="44.29038" lon="3.30936">
        <ele>811</ele>
        <time>2019-11-23T11:04:31Z</time>
      </trkpt>
      <trkpt lat="44.2904" lon="3.30938">
        <ele>810</ele>
        <time>2019-11-23T11:04:32Z</time>
      </trkpt>
      <trkpt lat="44.29027" lon="3.30947">
        <ele>808</ele>
        <time>2019-11-23T11:04:35Z</time>
      </trkpt>
      <trkpt lat="44.29019" lon="3.30961">
        <ele>804</ele>
        <time>2019-11-23T11:04:38Z</time>
      </trkpt>
      <trkpt lat="44.29028" lon="3.30964">
        <ele>801</ele>
        <time>2019-11-23T11:04:40Z</time>
      </trkpt>
      <trkpt lat="44.29034" lon="3.30963">
        <ele>801</ele>
        <time>2019-11-23T11:04:42Z</time>
      </trkpt>
      <trkpt lat="44.29038" lon="3.30956">
        <ele>803</ele>
        <time>2019-11-23T11:04:43Z</time>
      </trkpt>
      <trkpt lat="44.29049" lon="3.30953">
        <ele>802</ele>
        <time>2019-11-23T11:04:46Z</time>
      </trkpt>
      <trkpt lat="44.29065" lon="3.30952">
        <ele>800</ele>
        <time>2019-11-23T11:04:49Z</time>
      </trkpt>
      <trkpt lat="44.29075" lon="3.30957">
        <ele>796</ele>
        <time>2019-11-23T11:04:52Z</time>
      </trkpt>
      <trkpt lat="44.29118" lon="3.3094">
        <ele>794</ele>
        <time>2019-11-23T11:05:02Z</time>
      </trkpt>
      <trkpt lat="44.29171" lon="3.30934">
        <ele>784</ele>
        <time>2019-11-23T11:05:15Z</time>
      </trkpt>
      <trkpt lat="44.29228" lon="3.30932">
        <ele>774</ele>
        <time>2019-11-23T11:05:28Z</time>
      </trkpt>
      <trkpt lat="44.29248" lon="3.30935">
        <ele>768</ele>
        <time>2019-11-23T11:05:33Z</time>
      </trkpt>
      <trkpt lat="44.29254" lon="3.30939">
        <ele>765</ele>
        <time>2019-11-23T11:05:34Z</time>
      </trkpt>
      <trkpt lat="44.29255" lon="3.30942">
        <ele>763</ele>
        <time>2019-11-23T11:05:35Z</time>
      </trkpt>
      <trkpt lat="44.29236" lon="3.30948">
        <ele>764</ele>
        <time>2019-11-23T11:05:39Z</time>
      </trkpt>
      <trkpt lat="44.29214" lon="3.30962">
        <ele>761</ele>
        <time>2019-11-23T11:05:45Z</time>
      </trkpt>
      <trkpt lat="44.29169" lon="3.3101">
        <ele>752</ele>
        <time>2019-11-23T11:05:58Z</time>
      </trkpt>
      <trkpt lat="44.29179" lon="3.31014">
        <ele>748</ele>
        <time>2019-11-23T11:06:01Z</time>
      </trkpt>
      <trkpt lat="44.2918" lon="3.31018">
        <ele>747</ele>
        <time>2019-11-23T11:06:01Z</time>
      </trkpt>
      <trkpt lat="44.29169" lon="3.31033">
        <ele>747</ele>
        <time>2019-11-23T11:06:05Z</time>
      </trkpt>
      <trkpt lat="44.29156" lon="3.31058">
        <ele>746</ele>
        <time>2019-11-23T11:06:10Z</time>
      </trkpt>
      <trkpt lat="44.29161" lon="3.31067">
        <ele>743</ele>
        <time>2019-11-23T11:06:12Z</time>
      </trkpt>
      <trkpt lat="44.29174" lon="3.31065">
        <ele>739</ele>
        <time>2019-11-23T11:06:15Z</time>
      </trkpt>
      <trkpt lat="44.29211" lon="3.31086">
        <ele>720</ele>
        <time>2019-11-23T11:06:24Z</time>
      </trkpt>
      <trkpt lat="44.29238" lon="3.31082">
        <ele>709</ele>
        <time>2019-11-23T11:06:31Z</time>
      </trkpt>
      <trkpt lat="44.29242" lon="3.3111">
        <ele>709</ele>
        <time>2019-11-23T11:06:36Z</time>
      </trkpt>
      <trkpt lat="44.29238" lon="3.31142">
        <ele>714</ele>
        <time>2019-11-23T11:06:41Z</time>
      </trkpt>
      <trkpt lat="44.29241" lon="3.31167">
        <ele>714</ele>
        <time>2019-11-23T11:06:45Z</time>
      </trkpt>
      <trkpt lat="44.29247" lon="3.3119">
        <ele>717</ele>
        <time>2019-11-23T11:06:49Z</time>
      </trkpt>
      <trkpt lat="44.29257" lon="3.3121">
        <ele>716</ele>
        <time>2019-11-23T11:06:53Z</time>
      </trkpt>
      <trkpt lat="44.29272" lon="3.31227">
        <ele>712</ele>
        <time>2019-11-23T11:06:58Z</time>
      </trkpt>
      <trkpt lat="44.29288" lon="3.31235">
        <ele>704</ele>
        <time>2019-11-23T11:07:02Z</time>
      </trkpt>
      <trkpt lat="44.29323" lon="3.31231">
        <ele>684</ele>
        <time>2019-11-23T11:07:10Z</time>
      </trkpt>
      <trkpt lat="44.2935" lon="3.31239">
        <ele>666</ele>
        <time>2019-11-23T11:07:16Z</time>
      </trkpt>
      <trkpt lat="44.29353" lon="3.31251">
        <ele>666</ele>
        <time>2019-11-23T11:07:19Z</time>
      </trkpt>
      <trkpt lat="44.29345" lon="3.3126">
        <ele>674</ele>
        <time>2019-11-23T11:07:21Z</time>
      </trkpt>
      <trkpt lat="44.2934" lon="3.31271">
        <ele>679</ele>
        <time>2019-11-23T11:07:23Z</time>
      </trkpt>
      <trkpt lat="44.29339" lon="3.31291">
        <ele>683</ele>
        <time>2019-11-23T11:07:27Z</time>
      </trkpt>
      <trkpt lat="44.29347" lon="3.31324">
        <ele>682</ele>
        <time>2019-11-23T11:07:32Z</time>
      </trkpt>
      <trkpt lat="44.2935" lon="3.31332">
        <ele>681</ele>
        <time>2019-11-23T11:07:34Z</time>
      </trkpt>
      <trkpt lat="44.29356" lon="3.31338">
        <ele>679</ele>
        <time>2019-11-23T11:07:36Z</time>
      </trkpt>
      <trkpt lat="44.29384" lon="3.31354">
        <ele>666</ele>
        <time>2019-11-23T11:07:43Z</time>
      </trkpt>
      <trkpt lat="44.29406" lon="3.31379">
        <ele>661</ele>
        <time>2019-11-23T11:07:49Z</time>
      </trkpt>
      <trkpt lat="44.29417" lon="3.31386">
        <ele>657</ele>
        <time>2019-11-23T11:07:52Z</time>
      </trkpt>
      <trkpt lat="44.2943" lon="3.31389">
        <ele>652</ele>
        <time>2019-11-23T11:07:55Z</time>
      </trkpt>
      <trkpt lat="44.29451" lon="3.31408">
        <ele>650</ele>
        <time>2019-11-23T11:08:01Z</time>
      </trkpt>
      <trkpt lat="44.29462" lon="3.3141">
        <ele>646</ele>
        <time>2019-11-23T11:08:04Z</time>
      </trkpt>
      <trkpt lat="44.29494" lon="3.31407">
        <ele>629</ele>
        <time>2019-11-23T11:08:11Z</time>
      </trkpt>
      <trkpt lat="44.29531" lon="3.31418">
        <ele>617</ele>
        <time>2019-11-23T11:08:20Z</time>
      </trkpt>
      <trkpt lat="44.29558" lon="3.31448">
        <ele>615</ele>
        <time>2019-11-23T11:08:28Z</time>
      </trkpt>
      <trkpt lat="44.29576" lon="3.31459">
        <ele>610</ele>
        <time>2019-11-23T11:08:33Z</time>
      </trkpt>
      <trkpt lat="44.29582" lon="3.31474">
        <ele>612</ele>
        <time>2019-11-23T11:08:35Z</time>
      </trkpt>
      <trkpt lat="44.29582" lon="3.3148">
        <ele>614</ele>
        <time>2019-11-23T11:08:36Z</time>
      </trkpt>
      <trkpt lat="44.29588" lon="3.31491">
        <ele>614</ele>
        <time>2019-11-23T11:08:39Z</time>
      </trkpt>
      <trkpt lat="44.29618" lon="3.31516">
        <ele>606</ele>
        <time>2019-11-23T11:08:47Z</time>
      </trkpt>
      <trkpt lat="44.29624" lon="3.31525">
        <ele>606</ele>
        <time>2019-11-23T11:08:49Z</time>
      </trkpt>
      <trkpt lat="44.29626" lon="3.31536">
        <ele>608</ele>
        <time>2019-11-23T11:08:51Z</time>
      </trkpt>
      <trkpt lat="44.29632" lon="3.31549">
        <ele>610</ele>
        <time>2019-11-23T11:08:53Z</time>
      </trkpt>
      <trkpt lat="44.29642" lon="3.31554">
        <ele>608</ele>
        <time>2019-11-23T11:08:56Z</time>
      </trkpt>
      <trkpt lat="44.29652" lon="3.31554">
        <ele>603</ele>
        <time>2019-11-23T11:08:58Z</time>
      </trkpt>
      <trkpt lat="44.29662" lon="3.3155">
        <ele>598</ele>
        <time>2019-11-23T11:09:01Z</time>
      </trkpt>
      <trkpt lat="44.29668" lon="3.31551">
        <ele>595</ele>
        <time>2019-11-23T11:09:02Z</time>
      </trkpt>
      <trkpt lat="44.29696" lon="3.31563">
        <ele>588</ele>
        <time>2019-11-23T11:09:09Z</time>
      </trkpt>
      <trkpt lat="44.29739" lon="3.31592">
        <ele>583</ele>
        <time>2019-11-23T11:09:20Z</time>
      </trkpt>
      <trkpt lat="44.29745" lon="3.31598">
        <ele>582</ele>
        <time>2019-11-23T11:09:22Z</time>
      </trkpt>
      <trkpt lat="44.29759" lon="3.31632">
        <ele>588</ele>
        <time>2019-11-23T11:09:28Z</time>
      </trkpt>
      <trkpt lat="44.29777" lon="3.31664">
        <ele>589</ele>
        <time>2019-11-23T11:09:35Z</time>
      </trkpt>
      <trkpt lat="44.29791" lon="3.31669">
        <ele>582</ele>
        <time>2019-11-23T11:09:39Z</time>
      </trkpt>
      <trkpt lat="44.29798" lon="3.31674">
        <ele>580</ele>
        <time>2019-11-23T11:09:40Z</time>
      </trkpt>
      <trkpt lat="44.2981" lon="3.31692">
        <ele>578</ele>
        <time>2019-11-23T11:09:45Z</time>
      </trkpt>
      <trkpt lat="44.29818" lon="3.31696">
        <ele>575</ele>
        <time>2019-11-23T11:09:47Z</time>
      </trkpt>
      <trkpt lat="44.29823" lon="3.31687">
        <ele>569</ele>
        <time>2019-11-23T11:09:48Z</time>
      </trkpt>
      <trkpt lat="44.2982" lon="3.31686">
        <ele>570</ele>
        <time>2019-11-23T11:09:49Z</time>
      </trkpt>
      <trkpt lat="44.29817" lon="3.31679">
        <ele>570</ele>
        <time>2019-11-23T11:09:50Z</time>
      </trkpt>
      <trkpt lat="44.29825" lon="3.31682">
        <ele>566</ele>
        <time>2019-11-23T11:09:52Z</time>
      </trkpt>
      <trkpt lat="44.29807" lon="3.31655">
        <ele>569</ele>
        <time>2019-11-23T11:09:59Z</time>
      </trkpt>
      <trkpt lat="44.29795" lon="3.31631">
        <ele>568</ele>
        <time>2019-11-23T11:10:03Z</time>
      </trkpt>
      <trkpt lat="44.29782" lon="3.31591">
        <ele>561</ele>
        <time>2019-11-23T11:10:11Z</time>
      </trkpt>
      <trkpt lat="44.2977" lon="3.31561">
        <ele>554</ele>
        <time>2019-11-23T11:10:17Z</time>
      </trkpt>
      <trkpt lat="44.29759" lon="3.31541">
        <ele>549</ele>
        <time>2019-11-23T11:10:21Z</time>
      </trkpt>
      <trkpt lat="44.29759" lon="3.31537">
        <ele>547</ele>
        <time>2019-11-23T11:10:21Z</time>
      </trkpt>
      <trkpt lat="44.29788" lon="3.31555">
        <ele>543</ele>
        <time>2019-11-23T11:10:29Z</time>
      </trkpt>
      <trkpt lat="44.2983" lon="3.31594">
        <ele>538</ele>
        <time>2019-11-23T11:10:41Z</time>
      </trkpt>
      <trkpt lat="44.29848" lon="3.31605">
        <ele>531</ele>
        <time>2019-11-23T11:10:45Z</time>
      </trkpt>
      <trkpt lat="44.2989" lon="3.31643">
        <ele>515</ele>
        <time>2019-11-23T11:10:57Z</time>
      </trkpt>
      <trkpt lat="44.29892" lon="3.31639">
        <ele>513</ele>
        <time>2019-11-23T11:10:58Z</time>
      </trkpt>
      <trkpt lat="44.29889" lon="3.31627">
        <ele>513</ele>
        <time>2019-11-23T11:11:00Z</time>
      </trkpt>
      <trkpt lat="44.29894" lon="3.31627">
        <ele>510</ele>
        <time>2019-11-23T11:11:01Z</time>
      </trkpt>
      <trkpt lat="44.29905" lon="3.3164">
        <ele>506</ele>
        <time>2019-11-23T11:11:04Z</time>
      </trkpt>
      <trkpt lat="44.29912" lon="3.31641">
        <ele>501</ele>
        <time>2019-11-23T11:11:06Z</time>
      </trkpt>
      <trkpt lat="44.29911" lon="3.31615">
        <ele>498</ele>
        <time>2019-11-23T11:11:10Z</time>
      </trkpt>
      <trkpt lat="44.29921" lon="3.31613">
        <ele>493</ele>
        <time>2019-11-23T11:11:13Z</time>
      </trkpt>
      <trkpt lat="44.29931" lon="3.31623">
        <ele>489</ele>
        <time>2019-11-23T11:11:16Z</time>
      </trkpt>
      <trkpt lat="44.29935" lon="3.31633">
        <ele>489</ele>
        <time>2019-11-23T11:11:18Z</time>
      </trkpt>
      <trkpt lat="44.29938" lon="3.31651">
        <ele>489</ele>
        <time>2019-11-23T11:11:21Z</time>
      </trkpt>
      <trkpt lat="44.29934" lon="3.31685">
        <ele>495</ele>
        <time>2019-11-23T11:11:26Z</time>
      </trkpt>
      <trkpt lat="44.29935" lon="3.31692">
        <ele>496</ele>
        <time>2019-11-23T11:11:28Z</time>
      </trkpt>
      <trkpt lat="44.29954" lon="3.31746">
        <ele>488</ele>
        <time>2019-11-23T11:11:38Z</time>
      </trkpt>
      <trkpt lat="44.29973" lon="3.31859">
        <ele>481</ele>
        <time>2019-11-23T11:11:57Z</time>
      </trkpt>
      <trkpt lat="44.29983" lon="3.319">
        <ele>470</ele>
        <time>2019-11-23T11:12:04Z</time>
      </trkpt>
      <trkpt lat="44.29986" lon="3.31902">
        <ele>467</ele>
        <time>2019-11-23T11:12:05Z</time>
      </trkpt>
      <trkpt lat="44.29991" lon="3.31865">
        <ele>462</ele>
        <time>2019-11-23T11:12:11Z</time>
      </trkpt>
      <trkpt lat="44.29988" lon="3.31766">
        <ele>463</ele>
        <time>2019-11-23T11:12:28Z</time>
      </trkpt>
      <trkpt lat="44.29984" lon="3.31723">
        <ele>466</ele>
        <time>2019-11-23T11:12:35Z</time>
      </trkpt>
      <trkpt lat="44.29976" lon="3.31693">
        <ele>471</ele>
        <time>2019-11-23T11:12:41Z</time>
      </trkpt>
      <trkpt lat="44.29975" lon="3.31666">
        <ele>471</ele>
        <time>2019-11-23T11:12:45Z</time>
      </trkpt>
      <trkpt lat="44.2998" lon="3.31636">
        <ele>467</ele>
        <time>2019-11-23T11:12:50Z</time>
      </trkpt>
      <trkpt lat="44.29991" lon="3.31619">
        <ele>461</ele>
        <time>2019-11-23T11:12:54Z</time>
      </trkpt>
      <trkpt lat="44.29992" lon="3.31609">
        <ele>460</ele>
        <time>2019-11-23T11:12:56Z</time>
      </trkpt>
      <trkpt lat="44.2999" lon="3.31602">
        <ele>460</ele>
        <time>2019-11-23T11:12:57Z</time>
      </trkpt>
      <trkpt lat="44.29972" lon="3.31563">
        <ele>464</ele>
        <time>2019-11-23T11:13:05Z</time>
      </trkpt>
      <trkpt lat="44.2995" lon="3.31528">
        <ele>465</ele>
        <time>2019-11-23T11:13:12Z</time>
      </trkpt>
      <trkpt lat="44.29931" lon="3.31487">
        <ele>462</ele>
        <time>2019-11-23T11:13:21Z</time>
      </trkpt>
      <trkpt lat="44.29892" lon="3.31436">
        <ele>460</ele>
        <time>2019-11-23T11:13:33Z</time>
      </trkpt>
      <trkpt lat="44.29881" lon="3.31414">
        <ele>458</ele>
        <time>2019-11-23T11:13:38Z</time>
      </trkpt>
      <trkpt lat="44.29887" lon="3.31425">
        <ele>459</ele>
        <time>2019-11-23T11:13:40Z</time>
      </trkpt>
      <trkpt lat="44.29876" lon="3.31408">
        <ele>459</ele>
        <time>2019-11-23T11:13:44Z</time>
      </trkpt>
      <trkpt lat="44.29837" lon="3.31392">
        <ele>466</ele>
        <time>2019-11-23T11:13:53Z</time>
      </trkpt>
      <trkpt lat="44.2983" lon="3.31386">
        <ele>467</ele>
        <time>2019-11-23T11:13:55Z</time>
      </trkpt>
      <trkpt lat="44.29821" lon="3.31371">
        <ele>468</ele>
        <time>2019-11-23T11:13:58Z</time>
      </trkpt>
      <trkpt lat="44.2982" lon="3.31355">
        <ele>466</ele>
        <time>2019-11-23T11:14:01Z</time>
      </trkpt>
      <trkpt lat="44.29822" lon="3.31345">
        <ele>464</ele>
        <time>2019-11-23T11:14:03Z</time>
      </trkpt>
      <trkpt lat="44.29836" lon="3.31334">
        <ele>458</ele>
        <time>2019-11-23T11:14:07Z</time>
      </trkpt>
      <trkpt lat="44.29838" lon="3.3133">
        <ele>457</ele>
        <time>2019-11-23T11:14:07Z</time>
      </trkpt>
      <trkpt lat="44.29824" lon="3.31266">
        <ele>466</ele>
        <time>2019-11-23T11:14:19Z</time>
      </trkpt>
      <trkpt lat="44.29824" lon="3.31258">
        <ele>467</ele>
        <time>2019-11-23T11:14:20Z</time>
      </trkpt>
      <trkpt lat="44.29825" lon="3.31246">
        <ele>467</ele>
        <time>2019-11-23T11:14:22Z</time>
      </trkpt>
      <trkpt lat="44.29837" lon="3.31206">
        <ele>467</ele>
        <time>2019-11-23T11:14:29Z</time>
      </trkpt>
      <trkpt lat="44.2984" lon="3.31173">
        <ele>471</ele>
        <time>2019-11-23T11:14:35Z</time>
      </trkpt>
      <trkpt lat="44.29844" lon="3.31157">
        <ele>473</ele>
        <time>2019-11-23T11:14:38Z</time>
      </trkpt>
      <trkpt lat="44.29854" lon="3.31143">
        <ele>473</ele>
        <time>2019-11-23T11:14:41Z</time>
      </trkpt>
      <trkpt lat="44.29868" lon="3.3114">
        <ele>469</ele>
        <time>2019-11-23T11:14:44Z</time>
      </trkpt>
      <trkpt lat="44.29887" lon="3.31118">
        <ele>467</ele>
        <time>2019-11-23T11:14:50Z</time>
      </trkpt>
      <trkpt lat="44.29901" lon="3.31088">
        <ele>469</ele>
        <time>2019-11-23T11:14:56Z</time>
      </trkpt>
      <trkpt lat="44.29916" lon="3.3107">
        <ele>472</ele>
        <time>2019-11-23T11:15:01Z</time>
      </trkpt>
      <trkpt lat="44.29953" lon="3.31041">
        <ele>479</ele>
        <time>2019-11-23T11:15:10Z</time>
      </trkpt>
      <trkpt lat="44.29969" lon="3.31037">
        <ele>477</ele>
        <time>2019-11-23T11:15:14Z</time>
      </trkpt>
      <trkpt lat="44.29996" lon="3.31042">
        <ele>470</ele>
        <time>2019-11-23T11:15:21Z</time>
      </trkpt>
      <trkpt lat="44.30027" lon="3.31038">
        <ele>468</ele>
        <time>2019-11-23T11:15:28Z</time>
      </trkpt>
      <trkpt lat="44.30056" lon="3.31031">
        <ele>468</ele>
        <time>2019-11-23T11:15:35Z</time>
      </trkpt>
      <trkpt lat="44.30071" lon="3.3103">
        <ele>467</ele>
        <time>2019-11-23T11:15:38Z</time>
      </trkpt>
      <trkpt lat="44.30089" lon="3.31034">
        <ele>463</ele>
        <time>2019-11-23T11:15:43Z</time>
      </trkpt>
      <trkpt lat="44.30098" lon="3.31033">
        <ele>462</ele>
        <time>2019-11-23T11:15:45Z</time>
      </trkpt>
      <trkpt lat="44.30103" lon="3.3103">
        <ele>461</ele>
        <time>2019-11-23T11:15:46Z</time>
      </trkpt>
      <trkpt lat="44.30119" lon="3.30982">
        <ele>471</ele>
        <time>2019-11-23T11:15:55Z</time>
      </trkpt>
      <trkpt lat="44.30131" lon="3.3096">
        <ele>475</ele>
        <time>2019-11-23T11:15:59Z</time>
      </trkpt>
      <trkpt lat="44.30189" lon="3.30901">
        <ele>472</ele>
        <time>2019-11-23T11:16:16Z</time>
      </trkpt>
      <trkpt lat="44.30279" lon="3.30773">
        <ele>469</ele>
        <time>2019-11-23T11:16:46Z</time>
      </trkpt>
      <trkpt lat="44.3031" lon="3.30698">
        <ele>471</ele>
        <time>2019-11-23T11:17:01Z</time>
      </trkpt>
      <trkpt lat="44.30354" lon="3.30612">
        <ele>468</ele>
        <time>2019-11-23T11:17:18Z</time>
      </trkpt>
      <trkpt lat="44.30381" lon="3.30538">
        <ele>468</ele>
        <time>2019-11-23T11:17:32Z</time>
      </trkpt>
      <trkpt lat="44.30399" lon="3.30507">
        <ele>464</ele>
        <time>2019-11-23T11:17:39Z</time>
      </trkpt>
      <trkpt lat="44.30444" lon="3.30396">
        <ele>469</ele>
        <time>2019-11-23T11:18:00Z</time>
      </trkpt>
      <trkpt lat="44.30461" lon="3.30362">
        <ele>468</ele>
        <time>2019-11-23T11:18:07Z</time>
      </trkpt>
      <trkpt lat="44.30497" lon="3.30267">
        <ele>462</ele>
        <time>2019-11-23T11:18:25Z</time>
      </trkpt>
      <trkpt lat="44.30502" lon="3.30222">
        <ele>465</ele>
        <time>2019-11-23T11:18:33Z</time>
      </trkpt>
      <trkpt lat="44.30515" lon="3.30165">
        <ele>466</ele>
        <time>2019-11-23T11:18:43Z</time>
      </trkpt>
      <trkpt lat="44.30513" lon="3.30152">
        <ele>466</ele>
        <time>2019-11-23T11:18:45Z</time>
      </trkpt>
      <trkpt lat="44.30506" lon="3.3014">
        <ele>467</ele>
        <time>2019-11-23T11:18:47Z</time>
      </trkpt>
      <trkpt lat="44.30499" lon="3.30061">
        <ele>461</ele>
        <time>2019-11-23T11:19:01Z</time>
      </trkpt>
      <trkpt lat="44.30473" lon="3.29986">
        <ele>459</ele>
        <time>2019-11-23T11:19:15Z</time>
      </trkpt>
      <trkpt lat="44.30458" lon="3.29963">
        <ele>460</ele>
        <time>2019-11-23T11:19:20Z</time>
      </trkpt>
      <trkpt lat="44.30388" lon="3.2988">
        <ele>457</ele>
        <time>2019-11-23T11:19:41Z</time>
      </trkpt>
      <trkpt lat="44.30375" lon="3.2987">
        <ele>457</ele>
        <time>2019-11-23T11:19:45Z</time>
      </trkpt>
      <trkpt lat="44.30325" lon="3.29849">
        <ele>458</ele>
        <time>2019-11-23T11:19:57Z</time>
      </trkpt>
      <trkpt lat="44.30314" lon="3.29847">
        <ele>460</ele>
        <time>2019-11-23T11:20:00Z</time>
      </trkpt>
      <trkpt lat="44.30269" lon="3.29822">
        <ele>460</ele>
        <time>2019-11-23T11:20:11Z</time>
      </trkpt>
      <trkpt lat="44.30224" lon="3.29789">
        <ele>460</ele>
        <time>2019-11-23T11:20:23Z</time>
      </trkpt>
      <trkpt lat="44.30203" lon="3.29779">
        <ele>461</ele>
        <time>2019-11-23T11:20:28Z</time>
      </trkpt>
      <trkpt lat="44.3019" lon="3.29781">
        <ele>464</ele>
        <time>2019-11-23T11:20:31Z</time>
      </trkpt>
      <trkpt lat="44.30164" lon="3.29766">
        <ele>464</ele>
        <time>2019-11-23T11:20:38Z</time>
      </trkpt>
      <trkpt lat="44.30112" lon="3.29742">
        <ele>468</ele>
        <time>2019-11-23T11:20:50Z</time>
      </trkpt>
      <trkpt lat="44.30044" lon="3.29671">
        <ele>469</ele>
        <time>2019-11-23T11:21:10Z</time>
      </trkpt>
      <trkpt lat="44.30024" lon="3.29639">
        <ele>469</ele>
        <time>2019-11-23T11:21:17Z</time>
      </trkpt>
      <trkpt lat="44.30014" lon="3.29616">
        <ele>466</ele>
        <time>2019-11-23T11:21:22Z</time>
      </trkpt>
      <trkpt lat="44.30009" lon="3.29611">
        <ele>466</ele>
        <time>2019-11-23T11:21:23Z</time>
      </trkpt>
      <trkpt lat="44.29999" lon="3.29568">
        <ele>459</ele>
        <time>2019-11-23T11:21:31Z</time>
      </trkpt>
      <trkpt lat="44.2999" lon="3.29551">
        <ele>462</ele>
        <time>2019-11-23T11:21:34Z</time>
      </trkpt>
      <trkpt lat="44.29979" lon="3.29508">
        <ele>462</ele>
        <time>2019-11-23T11:21:42Z</time>
      </trkpt>
      <trkpt lat="44.29977" lon="3.29485">
        <ele>461</ele>
        <time>2019-11-23T11:21:46Z</time>
      </trkpt>
      <trkpt lat="44.29964" lon="3.29459">
        <ele>465</ele>
        <time>2019-11-23T11:21:51Z</time>
      </trkpt>
      <trkpt lat="44.29962" lon="3.29429">
        <ele>461</ele>
        <time>2019-11-23T11:21:56Z</time>
      </trkpt>
      <trkpt lat="44.29954" lon="3.29397">
        <ele>461</ele>
        <time>2019-11-23T11:22:02Z</time>
      </trkpt>
      <trkpt lat="44.29941" lon="3.29384">
        <ele>465</ele>
        <time>2019-11-23T11:22:06Z</time>
      </trkpt>
      <trkpt lat="44.29936" lon="3.29388">
        <ele>467</ele>
        <time>2019-11-23T11:22:07Z</time>
      </trkpt>
      <trkpt lat="44.29936" lon="3.29403">
        <ele>469</ele>
        <time>2019-11-23T11:22:09Z</time>
      </trkpt>
      <trkpt lat="44.29941" lon="3.29408">
        <ele>468</ele>
        <time>2019-11-23T11:22:11Z</time>
      </trkpt>
      <trkpt lat="44.2993" lon="3.2941">
        <ele>472</ele>
        <time>2019-11-23T11:22:13Z</time>
      </trkpt>
      <trkpt lat="44.29906" lon="3.29408">
        <ele>481</ele>
        <time>2019-11-23T11:22:19Z</time>
      </trkpt>
      <trkpt lat="44.29896" lon="3.29416">
        <ele>486</ele>
        <time>2019-11-23T11:22:22Z</time>
      </trkpt>
      <trkpt lat="44.29885" lon="3.29418">
        <ele>491</ele>
        <time>2019-11-23T11:22:24Z</time>
      </trkpt>
      <trkpt lat="44.29881" lon="3.29416">
        <ele>492</ele>
        <time>2019-11-23T11:22:25Z</time>
      </trkpt>
      <trkpt lat="44.29885" lon="3.29405">
        <ele>488</ele>
        <time>2019-11-23T11:22:27Z</time>
      </trkpt>
      <trkpt lat="44.29885" lon="3.29382">
        <ele>485</ele>
        <time>2019-11-23T11:22:31Z</time>
      </trkpt>
      <trkpt lat="44.29881" lon="3.29377">
        <ele>485</ele>
        <time>2019-11-23T11:22:32Z</time>
      </trkpt>
      <trkpt lat="44.29872" lon="3.29373">
        <ele>488</ele>
        <time>2019-11-23T11:22:35Z</time>
      </trkpt>
      <trkpt lat="44.29861" lon="3.29358">
        <ele>489</ele>
        <time>2019-11-23T11:22:38Z</time>
      </trkpt>
      <trkpt lat="44.29848" lon="3.29332">
        <ele>489</ele>
        <time>2019-11-23T11:22:44Z</time>
      </trkpt>
      <trkpt lat="44.29833" lon="3.29281">
        <ele>483</ele>
        <time>2019-11-23T11:22:53Z</time>
      </trkpt>
      <trkpt lat="44.29803" lon="3.29259">
        <ele>490</ele>
        <time>2019-11-23T11:23:01Z</time>
      </trkpt>
      <trkpt lat="44.29773" lon="3.29221">
        <ele>491</ele>
        <time>2019-11-23T11:23:10Z</time>
      </trkpt>
      <trkpt lat="44.29756" lon="3.2918">
        <ele>486</ele>
        <time>2019-11-23T11:23:18Z</time>
      </trkpt>
      <trkpt lat="44.29733" lon="3.29165">
        <ele>491</ele>
        <time>2019-11-23T11:23:24Z</time>
      </trkpt>
      <trkpt lat="44.29707" lon="3.29129">
        <ele>489</ele>
        <time>2019-11-23T11:23:33Z</time>
      </trkpt>
      <trkpt lat="44.29679" lon="3.29107">
        <ele>492</ele>
        <time>2019-11-23T11:23:40Z</time>
      </trkpt>
      <trkpt lat="44.29668" lon="3.29081">
        <ele>488</ele>
        <time>2019-11-23T11:23:45Z</time>
      </trkpt>
      <trkpt lat="44.29653" lon="3.29068">
        <ele>495</ele>
        <time>2019-11-23T11:23:49Z</time>
      </trkpt>
      <trkpt lat="44.29666" lon="3.29034">
        <ele>484</ele>
        <time>2019-11-23T11:23:56Z</time>
      </trkpt>
      <trkpt lat="44.2967" lon="3.29013">
        <ele>480</ele>
        <time>2019-11-23T11:23:59Z</time>
      </trkpt>
      <trkpt lat="44.2966" lon="3.28974">
        <ele>483</ele>
        <time>2019-11-23T11:24:06Z</time>
      </trkpt>
      <trkpt lat="44.2964" lon="3.28935">
        <ele>493</ele>
        <time>2019-11-23T11:24:14Z</time>
      </trkpt>
      <trkpt lat="44.29647" lon="3.28923">
        <ele>489</ele>
        <time>2019-11-23T11:24:17Z</time>
      </trkpt>
      <trkpt lat="44.29647" lon="3.28897">
        <ele>488</ele>
        <time>2019-11-23T11:24:21Z</time>
      </trkpt>
      <trkpt lat="44.29651" lon="3.28884">
        <ele>486</ele>
        <time>2019-11-23T11:24:24Z</time>
      </trkpt>
      <trkpt lat="44.29651" lon="3.28865">
        <ele>485</ele>
        <time>2019-11-23T11:24:27Z</time>
      </trkpt>
      <trkpt lat="44.29647" lon="3.28845">
        <ele>488</ele>
        <time>2019-11-23T11:24:30Z</time>
      </trkpt>
      <trkpt lat="44.29636" lon="3.28837">
        <ele>496</ele>
        <time>2019-11-23T11:24:33Z</time>
      </trkpt>
      <trkpt lat="44.2964" lon="3.28779">
        <ele>494</ele>
        <time>2019-11-23T11:24:43Z</time>
      </trkpt>
      <trkpt lat="44.29645" lon="3.28766">
        <ele>491</ele>
        <time>2019-11-23T11:24:45Z</time>
      </trkpt>
      <trkpt lat="44.29645" lon="3.28721">
        <ele>491</ele>
        <time>2019-11-23T11:24:53Z</time>
      </trkpt>
      <trkpt lat="44.29638" lon="3.28714">
        <ele>495</ele>
        <time>2019-11-23T11:24:55Z</time>
      </trkpt>
      <trkpt lat="44.29638" lon="3.28708">
        <ele>495</ele>
        <time>2019-11-23T11:24:56Z</time>
      </trkpt>
      <trkpt lat="44.2961" lon="3.28669">
        <ele>509</ele>
        <time>2019-11-23T11:25:05Z</time>
      </trkpt>
      <trkpt lat="44.29595" lon="3.28663">
        <ele>518</ele>
        <time>2019-11-23T11:25:09Z</time>
      </trkpt>
      <trkpt lat="44.29593" lon="3.28656">
        <ele>520</ele>
        <time>2019-11-23T11:25:10Z</time>
      </trkpt>
      <trkpt lat="44.29597" lon="3.28635">
        <ele>518</ele>
        <time>2019-11-23T11:25:14Z</time>
      </trkpt>
      <trkpt lat="44.2961" lon="3.28609">
        <ele>511</ele>
        <time>2019-11-23T11:25:19Z</time>
      </trkpt>
      <trkpt lat="44.2961" lon="3.28566">
        <ele>512</ele>
        <time>2019-11-23T11:25:26Z</time>
      </trkpt>
      <trkpt lat="44.29619" lon="3.28536">
        <ele>507</ele>
        <time>2019-11-23T11:25:32Z</time>
      </trkpt>
      <trkpt lat="44.29617" lon="3.28511">
        <ele>510</ele>
        <time>2019-11-23T11:25:36Z</time>
      </trkpt>
      <trkpt lat="44.2963" lon="3.28474">
        <ele>502</ele>
        <time>2019-11-23T11:25:43Z</time>
      </trkpt>
      <trkpt lat="44.29625" lon="3.28468">
        <ele>505</ele>
        <time>2019-11-23T11:25:44Z</time>
      </trkpt>
      <trkpt lat="44.29632" lon="3.28438">
        <ele>501</ele>
        <time>2019-11-23T11:25:49Z</time>
      </trkpt>
      <trkpt lat="44.29627" lon="3.28403">
        <ele>503</ele>
        <time>2019-11-23T11:25:55Z</time>
      </trkpt>
      <trkpt lat="44.29612" lon="3.28373">
        <ele>510</ele>
        <time>2019-11-23T11:26:02Z</time>
      </trkpt>
      <trkpt lat="44.29593" lon="3.28354">
        <ele>520</ele>
        <time>2019-11-23T11:26:07Z</time>
      </trkpt>
      <trkpt lat="44.29587" lon="3.28335">
        <ele>522</ele>
        <time>2019-11-23T11:26:10Z</time>
      </trkpt>
      <trkpt lat="44.29591" lon="3.28307">
        <ele>523</ele>
        <time>2019-11-23T11:26:15Z</time>
      </trkpt>
      <trkpt lat="44.29578" lon="3.28281">
        <ele>536</ele>
        <time>2019-11-23T11:26:21Z</time>
      </trkpt>
      <trkpt lat="44.29582" lon="3.28266">
        <ele>535</ele>
        <time>2019-11-23T11:26:23Z</time>
      </trkpt>
      <trkpt lat="44.29589" lon="3.28264">
        <ele>530</ele>
        <time>2019-11-23T11:26:25Z</time>
      </trkpt>
      <trkpt lat="44.29597" lon="3.28253">
        <ele>527</ele>
        <time>2019-11-23T11:26:27Z</time>
      </trkpt>
      <trkpt lat="44.29608" lon="3.28244">
        <ele>520</ele>
        <time>2019-11-23T11:26:30Z</time>
      </trkpt>
      <trkpt lat="44.29625" lon="3.28217">
        <ele>512</ele>
        <time>2019-11-23T11:26:36Z</time>
      </trkpt>
      <trkpt lat="44.29627" lon="3.28193">
        <ele>514</ele>
        <time>2019-11-23T11:26:41Z</time>
      </trkpt>
      <trkpt lat="44.29634" lon="3.28176">
        <ele>513</ele>
        <time>2019-11-23T11:26:44Z</time>
      </trkpt>
      <trkpt lat="44.29632" lon="3.28163">
        <ele>517</ele>
        <time>2019-11-23T11:26:46Z</time>
      </trkpt>
      <trkpt lat="44.29636" lon="3.28148">
        <ele>521</ele>
        <time>2019-11-23T11:26:49Z</time>
      </trkpt>
      <trkpt lat="44.2963" lon="3.28135">
        <ele>528</ele>
        <time>2019-11-23T11:26:51Z</time>
      </trkpt>
      <trkpt lat="44.29632" lon="3.28124">
        <ele>531</ele>
        <time>2019-11-23T11:26:53Z</time>
      </trkpt>
      <trkpt lat="44.2966" lon="3.28114">
        <ele>522</ele>
        <time>2019-11-23T11:27:00Z</time>
      </trkpt>
      <trkpt lat="44.29673" lon="3.28116">
        <ele>514</ele>
        <time>2019-11-23T11:27:03Z</time>
      </trkpt>
      <trkpt lat="44.29694" lon="3.28094">
        <ele>509</ele>
        <time>2019-11-23T11:27:09Z</time>
      </trkpt>
      <trkpt lat="44.29715" lon="3.28077">
        <ele>501</ele>
        <time>2019-11-23T11:27:15Z</time>
      </trkpt>
      <trkpt lat="44.29739" lon="3.28047">
        <ele>499</ele>
        <time>2019-11-23T11:27:22Z</time>
      </trkpt>
      <trkpt lat="44.29737" lon="3.28032">
        <ele>506</ele>
        <time>2019-11-23T11:27:25Z</time>
      </trkpt>
      <trkpt lat="44.2975" lon="3.28006">
        <ele>509</ele>
        <time>2019-11-23T11:27:30Z</time>
      </trkpt>
      <trkpt lat="44.2975" lon="3.27993">
        <ele>514</ele>
        <time>2019-11-23T11:27:32Z</time>
      </trkpt>
      <trkpt lat="44.29761" lon="3.27961">
        <ele>517</ele>
        <time>2019-11-23T11:27:38Z</time>
      </trkpt>
      <trkpt lat="44.29769" lon="3.27959">
        <ele>512</ele>
        <time>2019-11-23T11:27:40Z</time>
      </trkpt>
      <trkpt lat="44.29793" lon="3.2791">
        <ele>509</ele>
        <time>2019-11-23T11:27:50Z</time>
      </trkpt>
      <trkpt lat="44.29806" lon="3.27893">
        <ele>504</ele>
        <time>2019-11-23T11:27:54Z</time>
      </trkpt>
      <trkpt lat="44.29823" lon="3.27852">
        <ele>502</ele>
        <time>2019-11-23T11:28:02Z</time>
      </trkpt>
      <trkpt lat="44.29816" lon="3.27837">
        <ele>510</ele>
        <time>2019-11-23T11:28:05Z</time>
      </trkpt>
      <trkpt lat="44.29818" lon="3.27826">
        <ele>510</ele>
        <time>2019-11-23T11:28:07Z</time>
      </trkpt>
      <trkpt lat="44.29814" lon="3.27813">
        <ele>513</ele>
        <time>2019-11-23T11:28:09Z</time>
      </trkpt>
      <trkpt lat="44.29816" lon="3.27798">
        <ele>513</ele>
        <time>2019-11-23T11:28:12Z</time>
      </trkpt>
      <trkpt lat="44.29812" lon="3.27783">
        <ele>516</ele>
        <time>2019-11-23T11:28:15Z</time>
      </trkpt>
      <trkpt lat="44.29812" lon="3.27764">
        <ele>518</ele>
        <time>2019-11-23T11:28:18Z</time>
      </trkpt>
      <trkpt lat="44.29836" lon="3.27732">
        <ele>506</ele>
        <time>2019-11-23T11:28:26Z</time>
      </trkpt>
      <trkpt lat="44.29836" lon="3.27702">
        <ele>509</ele>
        <time>2019-11-23T11:28:31Z</time>
      </trkpt>
      <trkpt lat="44.29829" lon="3.27687">
        <ele>514</ele>
        <time>2019-11-23T11:28:34Z</time>
      </trkpt>
      <trkpt lat="44.29848" lon="3.27661">
        <ele>505</ele>
        <time>2019-11-23T11:28:40Z</time>
      </trkpt>
      <trkpt lat="44.29855" lon="3.27618">
        <ele>501</ele>
        <time>2019-11-23T11:28:47Z</time>
      </trkpt>
      <trkpt lat="44.29855" lon="3.27605">
        <ele>501</ele>
        <time>2019-11-23T11:28:49Z</time>
      </trkpt>
      <trkpt lat="44.29859" lon="3.27596">
        <ele>499</ele>
        <time>2019-11-23T11:28:51Z</time>
      </trkpt>
      <trkpt lat="44.29857" lon="3.27556">
        <ele>499</ele>
        <time>2019-11-23T11:28:58Z</time>
      </trkpt>
      <trkpt lat="44.29851" lon="3.27551">
        <ele>502</ele>
        <time>2019-11-23T11:28:59Z</time>
      </trkpt>
      <trkpt lat="44.29853" lon="3.27519">
        <ele>500</ele>
        <time>2019-11-23T11:29:05Z</time>
      </trkpt>
      <trkpt lat="44.29861" lon="3.27517">
        <ele>495</ele>
        <time>2019-11-23T11:29:07Z</time>
      </trkpt>
      <trkpt lat="44.29861" lon="3.27506">
        <ele>494</ele>
        <time>2019-11-23T11:29:09Z</time>
      </trkpt>
      <trkpt lat="44.29872" lon="3.27491">
        <ele>488</ele>
        <time>2019-11-23T11:29:12Z</time>
      </trkpt>
      <trkpt lat="44.29874" lon="3.27476">
        <ele>486</ele>
        <time>2019-11-23T11:29:15Z</time>
      </trkpt>
      <trkpt lat="44.29889" lon="3.27457">
        <ele>479</ele>
        <time>2019-11-23T11:29:19Z</time>
      </trkpt>
      <trkpt lat="44.29894" lon="3.27444">
        <ele>477</ele>
        <time>2019-11-23T11:29:22Z</time>
      </trkpt>
      <trkpt lat="44.29887" lon="3.27429">
        <ele>480</ele>
        <time>2019-11-23T11:29:25Z</time>
      </trkpt>
      <trkpt lat="44.29896" lon="3.27423">
        <ele>476</ele>
        <time>2019-11-23T11:29:27Z</time>
      </trkpt>
      <trkpt lat="44.29909" lon="3.27438">
        <ele>470</ele>
        <time>2019-11-23T11:29:31Z</time>
      </trkpt>
      <trkpt lat="44.2993" lon="3.27446">
        <ele>462</ele>
        <time>2019-11-23T11:29:36Z</time>
      </trkpt>
      <trkpt lat="44.29947" lon="3.2744">
        <ele>457</ele>
        <time>2019-11-23T11:29:40Z</time>
      </trkpt>
      <trkpt lat="44.29941" lon="3.27425">
        <ele>460</ele>
        <time>2019-11-23T11:29:43Z</time>
      </trkpt>
      <trkpt lat="44.29947" lon="3.27375">
        <ele>467</ele>
        <time>2019-11-23T11:29:52Z</time>
      </trkpt>
      <trkpt lat="44.29945" lon="3.27358">
        <ele>471</ele>
        <time>2019-11-23T11:29:55Z</time>
      </trkpt>
      <trkpt lat="44.29947" lon="3.27328">
        <ele>476</ele>
        <time>2019-11-23T11:30:00Z</time>
      </trkpt>
      <trkpt lat="44.29951" lon="3.2732">
        <ele>476</ele>
        <time>2019-11-23T11:30:01Z</time>
      </trkpt>
      <trkpt lat="44.29954" lon="3.27292">
        <ele>482</ele>
        <time>2019-11-23T11:30:06Z</time>
      </trkpt>
      <trkpt lat="44.29969" lon="3.27268">
        <ele>483</ele>
        <time>2019-11-23T11:30:11Z</time>
      </trkpt>
      <trkpt lat="44.29973" lon="3.27245">
        <ele>487</ele>
        <time>2019-11-23T11:30:15Z</time>
      </trkpt>
      <trkpt lat="44.29971" lon="3.2723">
        <ele>491</ele>
        <time>2019-11-23T11:30:18Z</time>
      </trkpt>
      <trkpt lat="44.30007" lon="3.27195">
        <ele>483</ele>
        <time>2019-11-23T11:30:28Z</time>
      </trkpt>
      <trkpt lat="44.30024" lon="3.27189">
        <ele>478</ele>
        <time>2019-11-23T11:30:32Z</time>
      </trkpt>
      <trkpt lat="44.30031" lon="3.27174">
        <ele>479</ele>
        <time>2019-11-23T11:30:35Z</time>
      </trkpt>
      <trkpt lat="44.30054" lon="3.27167">
        <ele>472</ele>
        <time>2019-11-23T11:30:41Z</time>
      </trkpt>
      <trkpt lat="44.30076" lon="3.27144">
        <ele>470</ele>
        <time>2019-11-23T11:30:47Z</time>
      </trkpt>
      <trkpt lat="44.30093" lon="3.27131">
        <ele>466</ele>
        <time>2019-11-23T11:30:52Z</time>
      </trkpt>
      <trkpt lat="44.30097" lon="3.27114">
        <ele>468</ele>
        <time>2019-11-23T11:30:55Z</time>
      </trkpt>
      <trkpt lat="44.30115" lon="3.27084">
        <ele>466</ele>
        <time>2019-11-23T11:31:01Z</time>
      </trkpt>
      <trkpt lat="44.30123" lon="3.27047">
        <ele>471</ele>
        <time>2019-11-23T11:31:08Z</time>
      </trkpt>
      <trkpt lat="44.30125" lon="3.27">
        <ele>479</ele>
        <time>2019-11-23T11:31:15Z</time>
      </trkpt>
      <trkpt lat="44.30136" lon="3.26957">
        <ele>485</ele>
        <time>2019-11-23T11:31:23Z</time>
      </trkpt>
      <trkpt lat="44.3016" lon="3.26906">
        <ele>486</ele>
        <time>2019-11-23T11:31:33Z</time>
      </trkpt>
      <trkpt lat="44.302" lon="3.26833">
        <ele>493</ele>
        <time>2019-11-23T11:31:49Z</time>
      </trkpt>
      <trkpt lat="44.30265" lon="3.2674">
        <ele>495</ele>
        <time>2019-11-23T11:32:10Z</time>
      </trkpt>
      <trkpt lat="44.30299" lon="3.2671">
        <ele>487</ele>
        <time>2019-11-23T11:32:20Z</time>
      </trkpt>
      <trkpt lat="44.30316" lon="3.2668">
        <ele>488</ele>
        <time>2019-11-23T11:32:26Z</time>
      </trkpt>
      <trkpt lat="44.30327" lon="3.26657">
        <ele>490</ele>
        <time>2019-11-23T11:32:31Z</time>
      </trkpt>
      <trkpt lat="44.30318" lon="3.26624">
        <ele>503</ele>
        <time>2019-11-23T11:32:37Z</time>
      </trkpt>
      <trkpt lat="44.30316" lon="3.26603">
        <ele>509</ele>
        <time>2019-11-23T11:32:40Z</time>
      </trkpt>
      <trkpt lat="44.30359" lon="3.26601">
        <ele>491</ele>
        <time>2019-11-23T11:32:50Z</time>
      </trkpt>
      <trkpt lat="44.30374" lon="3.26564">
        <ele>494</ele>
        <time>2019-11-23T11:32:57Z</time>
      </trkpt>
      <trkpt lat="44.30389" lon="3.26511">
        <ele>500</ele>
        <time>2019-11-23T11:33:07Z</time>
      </trkpt>
      <trkpt lat="44.30406" lon="3.26464">
        <ele>500</ele>
        <time>2019-11-23T11:33:16Z</time>
      </trkpt>
      <trkpt lat="44.30411" lon="3.26395">
        <ele>508</ele>
        <time>2019-11-23T11:33:27Z</time>
      </trkpt>
      <trkpt lat="44.30421" lon="3.26315">
        <ele>509</ele>
        <time>2019-11-23T11:33:41Z</time>
      </trkpt>
      <trkpt lat="44.30441" lon="3.26268">
        <ele>496</ele>
        <time>2019-11-23T11:33:50Z</time>
      </trkpt>
      <trkpt lat="44.30441" lon="3.26234">
        <ele>496</ele>
        <time>2019-11-23T11:33:56Z</time>
      </trkpt>
      <trkpt lat="44.30415" lon="3.26208">
        <ele>514</ele>
        <time>2019-11-23T11:34:03Z</time>
      </trkpt>
      <trkpt lat="44.30391" lon="3.26197">
        <ele>526</ele>
        <time>2019-11-23T11:34:09Z</time>
      </trkpt>
      <trkpt lat="44.30398" lon="3.2617">
        <ele>522</ele>
        <time>2019-11-23T11:34:14Z</time>
      </trkpt>
      <trkpt lat="44.30417" lon="3.26152">
        <ele>512</ele>
        <time>2019-11-23T11:34:19Z</time>
      </trkpt>
      <trkpt lat="44.30432" lon="3.26144">
        <ele>502</ele>
        <time>2019-11-23T11:34:23Z</time>
      </trkpt>
      <trkpt lat="44.30432" lon="3.26122">
        <ele>502</ele>
        <time>2019-11-23T11:34:27Z</time>
      </trkpt>
      <trkpt lat="44.30406" lon="3.26045">
        <ele>514</ele>
        <time>2019-11-23T11:34:41Z</time>
      </trkpt>
      <trkpt lat="44.30391" lon="3.26028">
        <ele>520</ele>
        <time>2019-11-23T11:34:45Z</time>
      </trkpt>
      <trkpt lat="44.30376" lon="3.25983">
        <ele>524</ele>
        <time>2019-11-23T11:34:54Z</time>
      </trkpt>
      <trkpt lat="44.30378" lon="3.25964">
        <ele>521</ele>
        <time>2019-11-23T11:34:57Z</time>
      </trkpt>
      <trkpt lat="44.30385" lon="3.25946">
        <ele>515</ele>
        <time>2019-11-23T11:35:00Z</time>
      </trkpt>
      <trkpt lat="44.30381" lon="3.25927">
        <ele>516</ele>
        <time>2019-11-23T11:35:04Z</time>
      </trkpt>
      <trkpt lat="44.30372" lon="3.25908">
        <ele>521</ele>
        <time>2019-11-23T11:35:07Z</time>
      </trkpt>
      <trkpt lat="44.30366" lon="3.25811">
        <ele>516</ele>
        <time>2019-11-23T11:35:24Z</time>
      </trkpt>
      <trkpt lat="44.30363" lon="3.25803">
        <ele>517</ele>
        <time>2019-11-23T11:35:25Z</time>
      </trkpt>
      <trkpt lat="44.30344" lon="3.25785">
        <ele>525</ele>
        <time>2019-11-23T11:35:31Z</time>
      </trkpt>
      <trkpt lat="44.30327" lon="3.25732">
        <ele>529</ele>
        <time>2019-11-23T11:35:40Z</time>
      </trkpt>
      <trkpt lat="44.30301" lon="3.25667">
        <ele>543</ele>
        <time>2019-11-23T11:35:53Z</time>
      </trkpt>
      <trkpt lat="44.30295" lon="3.25577">
        <ele>550</ele>
        <time>2019-11-23T11:36:08Z</time>
      </trkpt>
      <trkpt lat="44.3026" lon="3.25506">
        <ele>563</ele>
        <time>2019-11-23T11:36:22Z</time>
      </trkpt>
      <trkpt lat="44.3026" lon="3.25479">
        <ele>560</ele>
        <time>2019-11-23T11:36:27Z</time>
      </trkpt>
      <trkpt lat="44.30239" lon="3.25419">
        <ele>568</ele>
        <time>2019-11-23T11:36:38Z</time>
      </trkpt>
      <trkpt lat="44.30241" lon="3.2538">
        <ele>574</ele>
        <time>2019-11-23T11:36:44Z</time>
      </trkpt>
      <trkpt lat="44.30263" lon="3.2535">
        <ele>572</ele>
        <time>2019-11-23T11:36:52Z</time>
      </trkpt>
      <trkpt lat="44.30303" lon="3.25331">
        <ele>569</ele>
        <time>2019-11-23T11:37:01Z</time>
      </trkpt>
      <trkpt lat="44.30346" lon="3.25328">
        <ele>562</ele>
        <time>2019-11-23T11:37:11Z</time>
      </trkpt>
      <trkpt lat="44.30381" lon="3.25339">
        <ele>546</ele>
        <time>2019-11-23T11:37:20Z</time>
      </trkpt>
      <trkpt lat="44.30406" lon="3.25322">
        <ele>549</ele>
        <time>2019-11-23T11:37:26Z</time>
      </trkpt>
      <trkpt lat="44.30432" lon="3.25275">
        <ele>557</ele>
        <time>2019-11-23T11:37:36Z</time>
      </trkpt>
      <trkpt lat="44.30456" lon="3.25243">
        <ele>558</ele>
        <time>2019-11-23T11:37:44Z</time>
      </trkpt>
      <trkpt lat="44.30481" lon="3.25217">
        <ele>555</ele>
        <time>2019-11-23T11:37:51Z</time>
      </trkpt>
      <trkpt lat="44.3052" lon="3.25155">
        <ele>553</ele>
        <time>2019-11-23T11:38:05Z</time>
      </trkpt>
      <trkpt lat="44.30563" lon="3.25099">
        <ele>537</ele>
        <time>2019-11-23T11:38:19Z</time>
      </trkpt>
      <trkpt lat="44.30569" lon="3.25049">
        <ele>536</ele>
        <time>2019-11-23T11:38:27Z</time>
      </trkpt>
      <trkpt lat="44.30544" lon="3.25">
        <ele>562</ele>
        <time>2019-11-23T11:38:37Z</time>
      </trkpt>
      <trkpt lat="44.30537" lon="3.2497">
        <ele>576</ele>
        <time>2019-11-23T11:38:43Z</time>
      </trkpt>
      <trkpt lat="44.30535" lon="3.2494">
        <ele>584</ele>
        <time>2019-11-23T11:38:48Z</time>
      </trkpt>
      <trkpt lat="44.30542" lon="3.24921">
        <ele>580</ele>
        <time>2019-11-23T11:38:51Z</time>
      </trkpt>
      <trkpt lat="44.30539" lon="3.24884">
        <ele>588</ele>
        <time>2019-11-23T11:38:57Z</time>
      </trkpt>
      <trkpt lat="44.30546" lon="3.24852">
        <ele>585</ele>
        <time>2019-11-23T11:39:03Z</time>
      </trkpt>
      <trkpt lat="44.30576" lon="3.24805">
        <ele>552</ele>
        <time>2019-11-23T11:39:14Z</time>
      </trkpt>
      <trkpt lat="44.30578" lon="3.2479">
        <ele>547</ele>
        <time>2019-11-23T11:39:16Z</time>
      </trkpt>
      <trkpt lat="44.30567" lon="3.24751">
        <ele>545</ele>
        <time>2019-11-23T11:39:23Z</time>
      </trkpt>
      <trkpt lat="44.30535" lon="3.2474">
        <ele>557</ele>
        <time>2019-11-23T11:39:31Z</time>
      </trkpt>
      <trkpt lat="44.30497" lon="3.24743">
        <ele>582</ele>
        <time>2019-11-23T11:39:40Z</time>
      </trkpt>
      <trkpt lat="44.30413" lon="3.24732">
        <ele>603</ele>
        <time>2019-11-23T11:39:59Z</time>
      </trkpt>
      <trkpt lat="44.30398" lon="3.24706">
        <ele>599</ele>
        <time>2019-11-23T11:40:05Z</time>
      </trkpt>
      <trkpt lat="44.30396" lon="3.2468">
        <ele>589</ele>
        <time>2019-11-23T11:40:09Z</time>
      </trkpt>
      <trkpt lat="44.30385" lon="3.24661">
        <ele>585</ele>
        <time>2019-11-23T11:40:13Z</time>
      </trkpt>
      <trkpt lat="44.30336" lon="3.2464">
        <ele>602</ele>
        <time>2019-11-23T11:40:25Z</time>
      </trkpt>
      <trkpt lat="44.30348" lon="3.24618">
        <ele>582</ele>
        <time>2019-11-23T11:40:30Z</time>
      </trkpt>
      <trkpt lat="44.30338" lon="3.24592">
        <ele>574</ele>
        <time>2019-11-23T11:40:35Z</time>
      </trkpt>
      <trkpt lat="44.30273" lon="3.24517">
        <ele>618</ele>
        <time>2019-11-23T11:40:55Z</time>
      </trkpt>
      <trkpt lat="44.30273" lon="3.24494">
        <ele>612</ele>
        <time>2019-11-23T11:40:59Z</time>
      </trkpt>
      <trkpt lat="44.3026" lon="3.24474">
        <ele>620</ele>
        <time>2019-11-23T11:41:03Z</time>
      </trkpt>
      <trkpt lat="44.30245" lon="3.24462">
        <ele>632</ele>
        <time>2019-11-23T11:41:07Z</time>
      </trkpt>
      <trkpt lat="44.30256" lon="3.24431">
        <ele>610</ele>
        <time>2019-11-23T11:41:13Z</time>
      </trkpt>
      <trkpt lat="44.30245" lon="3.24371">
        <ele>603</ele>
        <time>2019-11-23T11:41:23Z</time>
      </trkpt>
      <trkpt lat="44.30237" lon="3.2435">
        <ele>603</ele>
        <time>2019-11-23T11:41:27Z</time>
      </trkpt>
      <trkpt lat="44.30222" lon="3.24331">
        <ele>610</ele>
        <time>2019-11-23T11:41:32Z</time>
      </trkpt>
      <trkpt lat="44.30218" lon="3.24307">
        <ele>608</ele>
        <time>2019-11-23T11:41:36Z</time>
      </trkpt>
      <trkpt lat="44.3023" lon="3.24219">
        <ele>573</ele>
        <time>2019-11-23T11:41:51Z</time>
      </trkpt>
      <trkpt lat="44.30211" lon="3.24193">
        <ele>574</ele>
        <time>2019-11-23T11:41:57Z</time>
      </trkpt>
      <trkpt lat="44.30196" lon="3.24185">
        <ele>580</ele>
        <time>2019-11-23T11:42:01Z</time>
      </trkpt>
      <trkpt lat="44.30162" lon="3.24189">
        <ele>600</ele>
        <time>2019-11-23T11:42:09Z</time>
      </trkpt>
      <trkpt lat="44.30138" lon="3.24172">
        <ele>588</ele>
        <time>2019-11-23T11:42:15Z</time>
      </trkpt>
      <trkpt lat="44.30104" lon="3.24193">
        <ele>595</ele>
        <time>2019-11-23T11:42:24Z</time>
      </trkpt>
      <trkpt lat="44.30024" lon="3.2423">
        <ele>588</ele>
        <time>2019-11-23T11:42:44Z</time>
      </trkpt>
      <trkpt lat="44.29969" lon="3.24331">
        <ele>605</ele>
        <time>2019-11-23T11:43:05Z</time>
      </trkpt>
      <trkpt lat="44.29964" lon="3.24331">
        <ele>604</ele>
        <time>2019-11-23T11:43:06Z</time>
      </trkpt>
      <trkpt lat="44.29941" lon="3.24301">
        <ele>589</ele>
        <time>2019-11-23T11:43:13Z</time>
      </trkpt>
      <trkpt lat="44.29911" lon="3.24292">
        <ele>579</ele>
        <time>2019-11-23T11:43:20Z</time>
      </trkpt>
      <trkpt lat="44.29896" lon="3.24316">
        <ele>583</ele>
        <time>2019-11-23T11:43:26Z</time>
      </trkpt>
      <trkpt lat="44.29881" lon="3.24395">
        <ele>608</ele>
        <time>2019-11-23T11:43:39Z</time>
      </trkpt>
      <trkpt lat="44.29855" lon="3.24404">
        <ele>609</ele>
        <time>2019-11-23T11:43:46Z</time>
      </trkpt>
      <trkpt lat="44.29844" lon="3.24395">
        <ele>605</ele>
        <time>2019-11-23T11:43:49Z</time>
      </trkpt>
      <trkpt lat="44.29836" lon="3.24382">
        <ele>598</ele>
        <time>2019-11-23T11:43:52Z</time>
      </trkpt>
      <trkpt lat="44.29823" lon="3.24371">
        <ele>592</ele>
        <time>2019-11-23T11:43:55Z</time>
      </trkpt>
      <trkpt lat="44.29808" lon="3.2438">
        <ele>596</ele>
        <time>2019-11-23T11:43:59Z</time>
      </trkpt>
      <trkpt lat="44.29778" lon="3.24341">
        <ele>579</ele>
        <time>2019-11-23T11:44:08Z</time>
      </trkpt>
      <trkpt lat="44.29763" lon="3.24339">
        <ele>578</ele>
        <time>2019-11-23T11:44:12Z</time>
      </trkpt>
      <trkpt lat="44.29728" lon="3.24363">
        <ele>587</ele>
        <time>2019-11-23T11:44:21Z</time>
      </trkpt>
      <trkpt lat="44.29711" lon="3.24393">
        <ele>598</ele>
        <time>2019-11-23T11:44:28Z</time>
      </trkpt>
      <trkpt lat="44.29703" lon="3.24371">
        <ele>590</ele>
        <time>2019-11-23T11:44:32Z</time>
      </trkpt>
      <trkpt lat="44.29679" lon="3.24339">
        <ele>580</ele>
        <time>2019-11-23T11:44:39Z</time>
      </trkpt>
      <trkpt lat="44.29666" lon="3.24339">
        <ele>581</ele>
        <time>2019-11-23T11:44:42Z</time>
      </trkpt>
      <trkpt lat="44.29649" lon="3.24348">
        <ele>587</ele>
        <time>2019-11-23T11:44:47Z</time>
      </trkpt>
      <trkpt lat="44.29632" lon="3.24337">
        <ele>588</ele>
        <time>2019-11-23T11:44:51Z</time>
      </trkpt>
      <trkpt lat="44.29617" lon="3.24296">
        <ele>577</ele>
        <time>2019-11-23T11:44:59Z</time>
      </trkpt>
      <trkpt lat="44.29606" lon="3.24294">
        <ele>580</ele>
        <time>2019-11-23T11:45:01Z</time>
      </trkpt>
      <trkpt lat="44.29529" lon="3.24215">
        <ele>565</ele>
        <time>2019-11-23T11:45:24Z</time>
      </trkpt>
      <trkpt lat="44.29539" lon="3.24174">
        <ele>548</ele>
        <time>2019-11-23T11:45:31Z</time>
      </trkpt>
      <trkpt lat="44.29522" lon="3.24161">
        <ele>540</ele>
        <time>2019-11-23T11:45:35Z</time>
      </trkpt>
      <trkpt lat="44.29497" lon="3.24183">
        <ele>550</ele>
        <time>2019-11-23T11:45:42Z</time>
      </trkpt>
      <trkpt lat="44.29492" lon="3.24215">
        <ele>563</ele>
        <time>2019-11-23T11:45:48Z</time>
      </trkpt>
      <trkpt lat="44.29417" lon="3.24303">
        <ele>584</ele>
        <time>2019-11-23T11:46:11Z</time>
      </trkpt>
      <trkpt lat="44.29385" lon="3.24309">
        <ele>585</ele>
        <time>2019-11-23T11:46:18Z</time>
      </trkpt>
      <trkpt lat="44.29379" lon="3.24324">
        <ele>591</ele>
        <time>2019-11-23T11:46:21Z</time>
      </trkpt>
      <trkpt lat="44.29368" lon="3.24337">
        <ele>597</ele>
        <time>2019-11-23T11:46:24Z</time>
      </trkpt>
      <trkpt lat="44.29336" lon="3.24337">
        <ele>593</ele>
        <time>2019-11-23T11:46:32Z</time>
      </trkpt>
      <trkpt lat="44.29329" lon="3.24333">
        <ele>592</ele>
        <time>2019-11-23T11:46:34Z</time>
      </trkpt>
      <trkpt lat="44.29327" lon="3.24307">
        <ele>582</ele>
        <time>2019-11-23T11:46:38Z</time>
      </trkpt>
      <trkpt lat="44.29323" lon="3.24303">
        <ele>582</ele>
        <time>2019-11-23T11:46:39Z</time>
      </trkpt>
      <trkpt lat="44.29286" lon="3.24307">
        <ele>601</ele>
        <time>2019-11-23T11:46:48Z</time>
      </trkpt>
      <trkpt lat="44.2928" lon="3.24296">
        <ele>600</ele>
        <time>2019-11-23T11:46:50Z</time>
      </trkpt>
      <trkpt lat="44.2928" lon="3.24283">
        <ele>596</ele>
        <time>2019-11-23T11:46:52Z</time>
      </trkpt>
      <trkpt lat="44.2931" lon="3.24228">
        <ele>564</ele>
        <time>2019-11-23T11:47:04Z</time>
      </trkpt>
      <trkpt lat="44.29312" lon="3.24213">
        <ele>560</ele>
        <time>2019-11-23T11:47:06Z</time>
      </trkpt>
      <trkpt lat="44.29308" lon="3.242">
        <ele>560</ele>
        <time>2019-11-23T11:47:09Z</time>
      </trkpt>
      <trkpt lat="44.29286" lon="3.2418">
        <ele>569</ele>
        <time>2019-11-23T11:47:15Z</time>
      </trkpt>
      <trkpt lat="44.29273" lon="3.24153">
        <ele>571</ele>
        <time>2019-11-23T11:47:20Z</time>
      </trkpt>
      <trkpt lat="44.29263" lon="3.24095">
        <ele>562</ele>
        <time>2019-11-23T11:47:30Z</time>
      </trkpt>
      <trkpt lat="44.29258" lon="3.2408">
        <ele>560</ele>
        <time>2019-11-23T11:47:33Z</time>
      </trkpt>
      <trkpt lat="44.29252" lon="3.24073">
        <ele>561</ele>
        <time>2019-11-23T11:47:35Z</time>
      </trkpt>
      <trkpt lat="44.29222" lon="3.24067">
        <ele>559</ele>
        <time>2019-11-23T11:47:42Z</time>
      </trkpt>
      <trkpt lat="44.29192" lon="3.24067">
        <ele>558</ele>
        <time>2019-11-23T11:47:49Z</time>
      </trkpt>
      <trkpt lat="44.29155" lon="3.24084">
        <ele>565</ele>
        <time>2019-11-23T11:47:58Z</time>
      </trkpt>
      <trkpt lat="44.29121" lon="3.24092">
        <ele>572</ele>
        <time>2019-11-23T11:48:06Z</time>
      </trkpt>
      <trkpt lat="44.29087" lon="3.24071">
        <ele>567</ele>
        <time>2019-11-23T11:48:15Z</time>
      </trkpt>
      <trkpt lat="44.2907" lon="3.24037">
        <ele>558</ele>
        <time>2019-11-23T11:48:22Z</time>
      </trkpt>
      <trkpt lat="44.29044" lon="3.24017">
        <ele>559</ele>
        <time>2019-11-23T11:48:29Z</time>
      </trkpt>
      <trkpt lat="44.29033" lon="3.23996">
        <ele>555</ele>
        <time>2019-11-23T11:48:33Z</time>
      </trkpt>
      <trkpt lat="44.28977" lon="3.23994">
        <ele>563</ele>
        <time>2019-11-23T11:48:46Z</time>
      </trkpt>
      <trkpt lat="44.28945" lon="3.23968">
        <ele>545</ele>
        <time>2019-11-23T11:48:55Z</time>
      </trkpt>
      <trkpt lat="44.28926" lon="3.23987">
        <ele>550</ele>
        <time>2019-11-23T11:49:00Z</time>
      </trkpt>
      <trkpt lat="44.28913" lon="3.24007">
        <ele>554</ele>
        <time>2019-11-23T11:49:05Z</time>
      </trkpt>
      <trkpt lat="44.28911" lon="3.24035">
        <ele>560</ele>
        <time>2019-11-23T11:49:09Z</time>
      </trkpt>
      <trkpt lat="44.28881" lon="3.24054">
        <ele>555</ele>
        <time>2019-11-23T11:49:17Z</time>
      </trkpt>
      <trkpt lat="44.28876" lon="3.24077">
        <ele>559</ele>
        <time>2019-11-23T11:49:21Z</time>
      </trkpt>
      <trkpt lat="44.28866" lon="3.24095">
        <ele>560</ele>
        <time>2019-11-23T11:49:25Z</time>
      </trkpt>
      <trkpt lat="44.28812" lon="3.24137">
        <ele>564</ele>
        <time>2019-11-23T11:49:39Z</time>
      </trkpt>
      <trkpt lat="44.28795" lon="3.24142">
        <ele>567</ele>
        <time>2019-11-23T11:49:43Z</time>
      </trkpt>
      <trkpt lat="44.28791" lon="3.24135">
        <ele>567</ele>
        <time>2019-11-23T11:49:45Z</time>
      </trkpt>
      <trkpt lat="44.28803" lon="3.24092">
        <ele>557</ele>
        <time>2019-11-23T11:49:53Z</time>
      </trkpt>
      <trkpt lat="44.28819" lon="3.24013">
        <ele>539</ele>
        <time>2019-11-23T11:50:06Z</time>
      </trkpt>
      <trkpt lat="44.28816" lon="3.23914">
        <ele>524</ele>
        <time>2019-11-23T11:50:23Z</time>
      </trkpt>
      <trkpt lat="44.28797" lon="3.23886">
        <ele>518</ele>
        <time>2019-11-23T11:50:29Z</time>
      </trkpt>
      <trkpt lat="44.28791" lon="3.23871">
        <ele>514</ele>
        <time>2019-11-23T11:50:32Z</time>
      </trkpt>
      <trkpt lat="44.28797" lon="3.23848">
        <ele>507</ele>
        <time>2019-11-23T11:50:36Z</time>
      </trkpt>
      <trkpt lat="44.28784" lon="3.23844">
        <ele>506</ele>
        <time>2019-11-23T11:50:40Z</time>
      </trkpt>
      <trkpt lat="44.28716" lon="3.23882">
        <ele>514</ele>
        <time>2019-11-23T11:50:57Z</time>
      </trkpt>
      <trkpt lat="44.28668" lon="3.23893">
        <ele>509</ele>
        <time>2019-11-23T11:51:08Z</time>
      </trkpt>
      <trkpt lat="44.28638" lon="3.23912">
        <ele>515</ele>
        <time>2019-11-23T11:51:16Z</time>
      </trkpt>
      <trkpt lat="44.286" lon="3.23925">
        <ele>519</ele>
        <time>2019-11-23T11:51:25Z</time>
      </trkpt>
      <trkpt lat="44.28578" lon="3.23919">
        <ele>516</ele>
        <time>2019-11-23T11:51:30Z</time>
      </trkpt>
      <trkpt lat="44.28561" lon="3.23886">
        <ele>514</ele>
        <time>2019-11-23T11:51:37Z</time>
      </trkpt>
      <trkpt lat="44.28557" lon="3.23869">
        <ele>512</ele>
        <time>2019-11-23T11:51:40Z</time>
      </trkpt>
      <trkpt lat="44.28565" lon="3.23805">
        <ele>496</ele>
        <time>2019-11-23T11:51:51Z</time>
      </trkpt>
      <trkpt lat="44.28563" lon="3.23743">
        <ele>489</ele>
        <time>2019-11-23T11:52:01Z</time>
      </trkpt>
      <trkpt lat="44.28555" lon="3.23708">
        <ele>484</ele>
        <time>2019-11-23T11:52:07Z</time>
      </trkpt>
      <trkpt lat="44.28495" lon="3.2362">
        <ele>476</ele>
        <time>2019-11-23T11:52:28Z</time>
      </trkpt>
      <trkpt lat="44.28458" lon="3.23573">
        <ele>467</ele>
        <time>2019-11-23T11:52:39Z</time>
      </trkpt>
      <trkpt lat="44.28447" lon="3.23554">
        <ele>464</ele>
        <time>2019-11-23T11:52:43Z</time>
      </trkpt>
      <trkpt lat="44.28441" lon="3.2355">
        <ele>464</ele>
        <time>2019-11-23T11:52:45Z</time>
      </trkpt>
      <trkpt lat="44.28419" lon="3.23547">
        <ele>468</ele>
        <time>2019-11-23T11:52:50Z</time>
      </trkpt>
      <trkpt lat="44.28413" lon="3.23541">
        <ele>468</ele>
        <time>2019-11-23T11:52:52Z</time>
      </trkpt>
      <trkpt lat="44.28387" lon="3.23483">
        <ele>461</ele>
        <time>2019-11-23T11:53:03Z</time>
      </trkpt>
      <trkpt lat="44.28331" lon="3.23417">
        <ele>454</ele>
        <time>2019-11-23T11:53:20Z</time>
      </trkpt>
      <trkpt lat="44.28271" lon="3.23378">
        <ele>456</ele>
        <time>2019-11-23T11:53:36Z</time>
      </trkpt>
      <trkpt lat="44.28241" lon="3.23346">
        <ele>452</ele>
        <time>2019-11-23T11:53:45Z</time>
      </trkpt>
      <trkpt lat="44.28181" lon="3.23309">
        <ele>450</ele>
        <time>2019-11-23T11:54:00Z</time>
      </trkpt>
      <trkpt lat="44.28132" lon="3.23273">
        <ele>449</ele>
        <time>2019-11-23T11:54:13Z</time>
      </trkpt>
      <trkpt lat="44.28098" lon="3.2323">
        <ele>443</ele>
        <time>2019-11-23T11:54:23Z</time>
      </trkpt>
      <trkpt lat="44.28083" lon="3.23217">
        <ele>443</ele>
        <time>2019-11-23T11:54:28Z</time>
      </trkpt>
      <trkpt lat="44.28048" lon="3.23193">
        <ele>441</ele>
        <time>2019-11-23T11:54:37Z</time>
      </trkpt>
      <trkpt lat="44.28037" lon="3.23189">
        <ele>441</ele>
        <time>2019-11-23T11:54:39Z</time>
      </trkpt>
      <trkpt lat="44.28012" lon="3.23189">
        <ele>444</ele>
        <time>2019-11-23T11:54:45Z</time>
      </trkpt>
      <trkpt lat="44.28003" lon="3.23185">
        <ele>443</ele>
        <time>2019-11-23T11:54:47Z</time>
      </trkpt>
      <trkpt lat="44.27975" lon="3.23161">
        <ele>440</ele>
        <time>2019-11-23T11:54:55Z</time>
      </trkpt>
      <trkpt lat="44.27877" lon="3.23108">
        <ele>440</ele>
        <time>2019-11-23T11:55:20Z</time>
      </trkpt>
      <trkpt lat="44.27853" lon="3.23088">
        <ele>437</ele>
        <time>2019-11-23T11:55:26Z</time>
      </trkpt>
      <trkpt lat="44.27842" lon="3.23075">
        <ele>435</ele>
        <time>2019-11-23T11:55:30Z</time>
      </trkpt>
      <trkpt lat="44.27831" lon="3.23056">
        <ele>434</ele>
        <time>2019-11-23T11:55:34Z</time>
      </trkpt>
      <trkpt lat="44.27815" lon="3.22982">
        <ele>425</ele>
        <time>2019-11-23T11:55:47Z</time>
      </trkpt>
      <trkpt lat="44.2777" lon="3.22909">
        <ele>423</ele>
        <time>2019-11-23T11:56:03Z</time>
      </trkpt>
    </trkseg>
  </trk>
</gpx>